[[{"header":{"parameterUnit":"m.s-1","parameterCategory":1,"la1":30.6,"la2":29.2853,"lo1":-89.7004,"lo2":-87.6739,"dy":0.0162,"dx":0.0183,"nx":112,"ny":82,"refTime":"2025-01-09T06:00:00:Z","depth":0,"parameterNumber":2,"parameterNumberName":"U-component_of_WINDS"},"data":[0.0,0.0,0.0,0.0,0.0,0.0,0.0,0.0,0.0,0.0,0.0,0.0,0.0,0.0,0.0,0.0,0.0,0.0,0.0,0.0,0.0,0.0,0.0,0.0,0.0,0.0,0.0,0.0,0.0,0.0,0.0,0.0,0.0,0.0,0.0,0.0,0.0,0.0,0.0,0.0,0.0,0.0,0.0,0.0,0.0,0.0,0.0,0.0,0.0,0.0,0.0,0.0,0.0,0.0,0.0,0.0,0.0,0.0,0.0,0.0,0.0,0.0,0.0,0.0,0.0,0.0,0.0,0.0,0.0,0.0,0.0,0.0,0.0,0.0,0.0,0.0,0.0,0.0,0.0,0.0,0.0,0.0,0.0,0.0,0.0,0.0,0.0,0.0,0.0,0.0,2.4703,2.6774,2.904,3.0117,2.9355,2.9048,2.7453,2.403,0.0,0.0,0.0,0.0,0.0,0.0,0.0,0.0,0.0,0.0,0.0,0.0,0.0,0.0,0.0,0.0,0.0,0.0,0.0,0.0,0.0,0.0,0.0,0.0,0.0,0.0,0.0,0.0,0.0,0.0,0.0,0.0,0.0,0.0,0.0,0.0,0.0,0.0,0.0,0.0,0.0,0.0,0.0,0.0,0.0,0.0,0.0,0.0,0.0,0.0,0.0,0.0,0.0,0.0,0.0,0.0,0.0,0.0,0.0,0.0,0.0,0.0,0.0,0.0,0.0,0.0,0.0,0.0,0.0,0.0,0.0,0.0,0.0,0.0,0.0,0.0,0.0,0.0,0.0,0.0,0.0,0.0,0.0,0.0,0.0,0.0,0.0,0.0,0.0,0.0,0.0,0.0,0.0,0.0,0.0,0.0,0.0,0.0,0.0,0.0,0.0,0.0,0.0,0.0,2.4471,2.8317,2.9734,3.0346,3.0192,2.889,2.7107,2.4844,0.0,0.0,0.0,0.0,0.0,0.0,0.0,0.0,0.0,0.0,0.0,0.0,0.0,0.0,0.0,0.0,0.0,0.0,0.0,0.0,0.0,0.0,0.0,0.0,0.0,0.0,0.0,0.0,0.0,0.0,0.0,0.0,0.0,0.0,0.0,0.0,0.0,0.0,0.0,0.0,0.0,0.0,0.0,0.0,0.0,0.0,0.0,0.0,0.0,0.0,0.0,0.0,0.0,0.0,0.0,0.0,0.0,0.0,0.0,0.0,0.0,0.0,0.0,0.0,0.0,0.0,0.0,0.0,0.0,0.0,0.0,0.0,0.0,0.0,0.0,0.0,0.0,0.0,0.0,0.0,0.0,0.0,0.0,0.0,0.0,0.0,0.0,0.0,0.0,0.0,0.0,0.0,0.0,0.0,0.0,0.0,0.0,0.0,0.0,0.0,0.0,0.0,0.0,2.4121,2.612,2.9466,3.0155,3.0383,3.0383,2.885,2.703,2.5037,2.2115,0.0,0.0,0.0,0.0,0.0,0.0,0.0,0.0,0.0,0.0,0.0,0.0,0.0,0.0,0.0,0.0,0.0,0.0,0.0,0.0,0.0,0.0,0.0,0.0,0.0,0.0,0.0,0.0,0.0,0.0,0.0,0.0,0.0,0.0,0.0,0.0,0.0,0.0,0.0,0.0,0.0,0.0,0.0,0.0,0.0,0.0,0.0,0.0,0.0,0.0,0.0,0.0,0.0,0.0,0.0,0.0,0.0,0.0,0.0,0.0,0.0,0.0,0.0,0.0,0.0,0.0,0.0,0.0,0.0,0.0,0.0,0.0,0.0,0.0,0.0,0.0,0.0,0.0,0.0,0.0,0.0,0.0,0.0,0.0,0.0,0.0,0.0,0.0,0.0,0.0,0.0,0.0,0.0,0.0,0.0,0.0,0.0,0.0,0.0,0.0,0.0,0.0,2.6812,2.8004,3.0154,3.0383,3.0383,3.0383,2.8634,2.6807,2.4998,2.1543,0.0,0.0,0.0,0.0,0.0,0.0,0.0,0.0,0.0,0.0,0.0,0.0,0.0,0.0,0.0,0.0,0.0,0.0,0.0,0.0,0.0,0.0,0.0,0.0,0.0,0.0,0.0,0.0,0.0,0.0,0.0,0.0,0.0,0.0,0.0,0.0,0.0,0.0,0.0,0.0,0.0,0.0,0.0,0.0,0.0,0.0,0.0,0.0,0.0,0.0,0.0,0.0,0.0,0.0,0.0,0.0,0.0,0.0,0.0,0.0,0.0,0.0,0.0,0.0,0.0,0.0,0.0,0.0,0.0,0.0,0.0,0.0,0.0,0.0,0.0,0.0,0.0,0.0,0.0,0.0,0.0,0.0,0.0,0.0,0.0,0.0,0.0,0.0,0.0,0.0,0.0,0.0,0.0,0.0,0.0,0.0,0.0,0.0,0.0,0.0,0.0,0.0,2.7467,2.9315,3.0308,3.0383,3.0383,3.0383,2.8021,2.6055,2.4951,2.0868,0.0,0.0,0.0,0.0,0.0,0.0,0.0,0.0,0.0,0.0,0.0,0.0,0.0,0.0,0.0,0.0,0.0,0.0,0.0,0.0,0.0,0.0,0.0,0.0,0.0,0.0,0.0,0.0,0.0,0.0,0.0,0.0,0.0,0.0,0.0,0.0,0.0,0.0,0.0,0.0,0.0,0.0,0.0,0.0,0.0,0.0,0.0,0.0,0.0,0.0,0.0,0.0,0.0,0.0,0.0,0.0,0.0,0.0,0.0,0.0,0.0,0.0,0.0,0.0,0.0,0.0,0.0,0.0,0.0,0.0,0.0,0.0,0.0,0.0,0.0,0.0,0.0,0.0,0.0,0.0,0.0,0.0,0.0,0.0,0.0,0.0,0.0,0.0,0.0,0.0,0.0,0.0,0.0,0.0,0.0,0.0,0.0,0.0,0.0,0.0,0.0,0.0,2.7467,2.943,0.0,3.0886,3.1001,3.0462,2.8384,2.6527,2.4989,0.0,0.0,0.0,0.0,0.0,0.0,0.0,0.0,0.0,0.0,0.0,0.0,0.0,0.0,0.0,0.0,0.0,0.0,0.0,0.0,0.0,0.0,0.0,0.0,0.0,0.0,0.0,0.0,0.0,0.0,0.0,0.0,0.0,0.0,0.0,0.0,0.0,0.0,0.0,0.0,0.0,0.0,0.0,0.0,0.0,0.0,0.0,0.0,0.0,0.0,0.0,0.0,0.0,0.0,0.0,0.0,0.0,0.0,0.0,0.0,0.0,0.0,0.0,0.0,0.0,0.0,0.0,0.0,0.0,0.0,0.0,0.0,0.0,0.0,0.0,0.0,0.0,0.0,0.0,0.0,0.0,0.0,0.0,0.0,0.0,0.0,0.0,0.0,0.0,0.0,0.0,0.0,0.0,0.0,0.0,0.0,0.0,0.0,0.0,0.0,0.0,0.0,2.5453,2.8244,3.0238,0.0,3.142,3.1349,3.073,2.8407,2.6373,2.4878,0.0,0.0,0.0,0.0,0.0,0.0,0.0,0.0,0.0,0.0,0.0,0.0,0.0,0.0,0.0,0.0,0.0,0.0,0.0,0.0,0.0,0.0,0.0,0.0,0.0,0.0,0.0,0.0,0.0,0.0,0.0,0.0,0.0,0.0,0.0,0.0,0.0,0.0,0.0,0.0,0.0,0.0,0.0,0.0,0.0,0.0,0.0,0.0,0.0,0.0,0.0,0.0,0.0,0.0,0.0,0.0,0.0,0.0,0.0,0.0,0.0,0.0,0.0,0.0,0.0,0.0,0.0,0.0,0.0,0.0,0.0,0.0,0.0,0.0,0.0,0.0,0.0,0.0,0.0,0.0,0.0,0.0,0.0,0.0,0.0,0.0,0.0,0.0,0.0,0.0,0.0,0.0,0.0,0.0,0.0,0.0,0.0,0.0,0.0,0.0,0.0,0.0,2.7179,2.9995,3.2002,3.2811,3.1928,3.1314,3.1314,2.7869,2.5356,0.0,0.0,0.0,0.0,0.0,0.0,0.0,0.0,0.0,0.0,0.0,0.0,0.0,0.0,0.0,0.0,0.0,0.0,0.0,0.0,0.0,0.0,0.0,0.0,0.0,0.0,0.0,0.0,0.0,0.0,0.0,0.0,0.0,0.0,0.0,0.0,0.0,0.0,0.0,0.0,0.0,0.0,0.0,0.0,0.0,0.0,0.0,0.0,0.0,0.0,0.0,0.0,0.0,0.0,0.0,0.0,0.0,0.0,0.0,0.0,0.0,0.0,0.0,0.0,0.0,0.0,0.0,0.0,0.0,0.0,0.0,0.0,0.0,0.0,0.0,0.0,0.0,0.0,0.0,0.0,0.0,0.0,0.0,0.0,0.0,0.0,0.0,0.0,0.0,0.0,0.0,0.0,0.0,0.0,0.0,0.0,0.0,0.0,0.0,0.0,0.0,0.0,0.0,2.697,3.0237,3.2338,3.2607,3.2201,3.1687,3.1066,2.8266,2.5971,2.4576,0.0,0.0,0.0,0.0,0.0,0.0,0.0,0.0,0.0,0.0,0.0,0.0,0.0,0.0,0.0,0.0,0.0,0.0,0.0,0.0,0.0,0.0,0.0,0.0,0.0,0.0,0.0,0.0,0.0,0.0,0.0,0.0,0.0,0.0,0.0,0.0,0.0,0.0,0.0,0.0,0.0,0.0,0.0,0.0,0.0,0.0,0.0,0.0,0.0,0.0,0.0,0.0,0.0,0.0,0.0,0.0,0.0,0.0,0.0,0.0,0.0,0.0,0.0,0.0,0.0,0.0,0.0,0.0,0.0,0.0,0.0,0.0,0.0,0.0,0.0,0.0,0.0,0.0,0.0,0.0,0.0,0.0,0.0,0.0,0.0,0.0,0.0,0.0,0.0,0.0,0.0,0.0,0.0,0.0,0.0,0.0,0.0,0.0,0.0,0.0,0.0,0.0,2.7674,3.0702,3.2743,3.33,3.2567,3.1814,3.1309,2.8512,2.6248,2.4934,0.0,0.0,0.0,0.0,0.0,0.0,0.0,0.0,0.0,0.0,0.0,0.0,0.0,0.0,0.0,0.0,0.0,0.0,0.0,0.0,0.0,0.0,0.0,0.0,0.0,0.0,0.0,0.0,0.0,0.0,0.0,0.0,0.0,0.0,0.0,0.0,0.0,0.0,0.0,0.0,0.0,0.0,0.0,0.0,0.0,0.0,0.0,0.0,0.0,0.0,0.0,0.0,0.0,0.0,0.0,0.0,0.0,0.0,0.0,0.0,0.0,0.0,0.0,0.0,0.0,0.0,0.0,0.0,0.0,0.0,0.0,0.0,0.0,0.0,0.0,0.0,0.0,0.0,0.0,0.0,0.0,0.0,0.0,0.0,0.0,0.0,0.0,0.0,0.0,0.0,0.0,0.0,0.0,0.0,0.0,0.0,0.0,0.0,0.0,0.0,0.0,0.0,2.8795,3.1178,3.3017,3.4509,3.2981,3.1844,3.1773,2.8738,2.6429,2.545,0.0,0.0,0.0,0.0,0.0,0.0,0.0,0.0,0.0,0.0,0.0,0.0,0.0,0.0,0.0,0.0,0.0,0.0,0.0,0.0,0.0,0.0,0.0,0.0,0.0,0.0,0.0,0.0,0.0,0.0,0.0,0.0,0.0,0.0,0.0,0.0,0.0,0.0,0.0,0.0,0.0,0.0,0.0,0.0,0.0,0.0,0.0,0.0,0.0,0.0,0.0,0.0,0.0,0.0,0.0,0.0,0.0,0.0,0.0,0.0,2.3828,0.0,0.0,0.0,0.0,0.0,0.0,0.0,0.0,0.0,0.0,0.0,0.0,0.0,0.0,0.0,0.0,0.0,0.0,0.0,0.0,0.0,0.0,0.0,0.0,0.0,0.0,0.0,0.0,0.0,0.0,0.0,0.0,0.0,0.0,0.0,0.0,0.0,0.0,0.0,0.0,0.0,2.8771,3.0897,3.2553,3.4152,3.3197,3.2152,3.1541,2.9624,2.7598,2.5524,2.2806,0.0,0.0,0.0,0.0,0.0,0.0,0.0,0.0,0.0,0.0,0.0,0.0,0.0,0.0,0.0,0.0,0.0,0.0,0.0,0.0,0.0,0.0,0.0,0.0,0.0,0.0,0.0,0.0,0.0,0.0,0.0,0.0,0.0,0.0,0.0,0.0,0.0,0.0,0.0,0.0,0.0,0.0,0.0,0.0,0.0,0.0,0.0,0.0,0.0,0.0,0.0,0.0,0.0,0.0,0.0,0.0,0.0,0.0,0.0,0.0,2.6039,0.0,0.0,0.0,0.0,0.0,0.0,0.0,0.0,0.0,0.0,0.0,0.0,0.0,0.0,0.0,0.0,0.0,0.0,0.0,0.0,0.0,0.0,0.0,0.0,0.0,0.0,0.0,0.0,0.0,0.0,0.0,0.0,0.0,0.0,0.0,0.0,0.0,0.0,0.0,0.0,2.8693,3.1055,3.281,3.3901,3.3173,3.2439,3.2005,3.0164,2.8473,2.72,2.4153,0.0,0.0,0.0,0.0,0.0,0.0,0.0,0.0,0.0,0.0,0.0,0.0,0.0,0.0,0.0,0.0,0.0,0.0,0.0,0.0,0.0,0.0,0.0,0.0,0.0,0.0,0.0,0.0,0.0,0.0,0.0,0.0,0.0,0.0,0.0,0.0,0.0,0.0,0.0,0.0,0.0,0.0,0.0,0.0,0.0,0.0,0.0,0.0,0.0,0.0,0.0,0.0,0.0,3.2422,3.3317,3.4503,3.4659,3.4689,3.4496,3.2453,3.0562,2.8841,0.0,0.0,0.0,0.0,0.0,0.0,0.0,0.0,0.0,0.0,0.0,0.0,0.0,0.0,0.0,0.0,0.0,0.0,0.0,0.0,0.0,0.0,0.0,0.0,0.0,3.0658,3.0067,0.0,0.0,0.0,0.0,0.0,0.0,0.0,0.0,0.0,0.0,0.0,0.0,2.8838,3.1372,3.3155,3.3727,3.3216,3.2733,3.2622,3.0785,2.9461,2.9021,2.5865,2.3563,0.0,0.0,0.0,0.0,0.0,0.0,0.0,0.0,0.0,0.0,0.0,0.0,0.0,0.0,0.0,0.0,0.0,0.0,0.0,0.0,0.0,0.0,0.0,0.0,0.0,0.0,0.0,0.0,0.0,0.0,0.0,0.0,2.3164,2.5,0.0,0.0,0.0,0.0,0.0,0.0,0.0,0.0,0.0,0.0,0.0,0.0,0.0,3.0859,3.2539,3.4922,3.5859,3.5351,3.8398,3.9495,3.8916,3.9631,3.994,3.9787,3.9474,0.0,3.1287,3.0368,0.0,0.0,0.0,0.0,0.0,0.0,0.0,0.0,0.0,0.0,0.0,0.0,0.0,0.0,0.0,0.0,0.0,0.0,0.0,0.0,0.0,0.0,3.404,3.3625,3.4197,3.4372,0.0,2.9113,2.5556,2.3205,0.0,0.0,0.0,0.0,0.0,0.0,0.0,0.0,2.9622,3.1559,3.2962,3.3737,3.3697,3.3363,3.2659,3.2292,3.1225,2.9131,2.8507,2.7231,2.5012,2.3272,0.0,0.0,0.0,0.0,0.0,0.0,0.0,0.0,0.0,0.0,0.0,0.0,0.0,0.0,0.0,0.0,0.0,0.0,0.0,0.0,0.0,0.0,0.0,0.0,0.0,0.0,0.0,0.0,0.0,2.3437,2.5625,2.6328,2.6094,2.5469,0.0,0.0,0.0,0.0,0.0,0.0,0.0,0.0,0.0,3.3711,3.4726,3.582,3.7031,3.8596,3.9432,3.9552,4.1025,4.173,4.1786,4.2182,4.2265,4.2134,4.2163,4.0355,3.7246,3.5028,3.3067,3.1369,0.0,0.0,0.0,0.0,0.0,3.1046,3.2391,3.2582,0.0,0.0,0.0,0.0,0.0,0.0,0.0,0.0,0.0,0.0,0.0,0.0,0.0,3.5937,3.6211,3.6301,3.5914,3.3633,3.07,0.0,2.614,2.4745,2.1898,0.0,0.0,0.0,0.0,2.8264,3.058,3.2265,3.34,3.377,3.3807,3.366,3.329,3.2843,3.2142,3.1078,2.9754,2.8546,2.7457,2.544,2.3421,0.0,0.0,0.0,0.0,0.0,0.0,0.0,0.0,0.0,0.0,0.0,0.0,0.0,0.0,0.0,0.0,0.0,0.0,0.0,0.0,0.0,0.0,0.0,0.0,0.0,0.0,0.0,0.0,2.6172,2.7891,2.7695,2.8242,2.7851,0.0,0.0,0.0,0.0,0.0,0.0,3.2438,3.4659,3.6431,3.7525,3.8814,3.9909,4.0807,4.1578,4.2261,4.2936,4.3025,4.3382,4.4004,4.4002,4.394,4.3808,4.3808,4.3271,4.2196,3.9115,3.6951,3.5477,3.4575,3.4199,3.4314,3.5164,3.5512,3.5704,3.7161,3.7544,3.7121,3.5659,0.0,3.3692,3.0928,0.0,0.0,0.0,0.0,3.3759,3.6333,0.0,3.699,3.8418,3.8459,3.8167,3.8192,3.7238,3.5228,0.0,3.0497,2.9165,2.5493,0.0,0.0,0.0,0.0,3.0494,3.2118,3.355,3.4357,3.413,3.4097,3.4024,3.3807,3.325,3.2809,3.2622,3.0895,2.9757,2.9317,2.7383,2.5479,2.3637,0.0,0.0,0.0,0.0,0.0,0.0,0.0,0.0,0.0,0.0,0.0,0.0,0.0,0.0,0.0,0.0,0.0,0.0,0.0,0.0,0.0,0.0,0.0,0.0,0.0,0.0,0.0,0.0,0.0,2.957,3.1601,0.0,0.0,0.0,0.0,3.1873,3.4059,3.5797,3.6749,3.8363,4.0054,4.1741,4.1898,4.233,4.3232,4.4071,4.4547,4.46,4.5338,4.5706,4.5667,4.5682,4.5594,4.5477,4.5477,4.4975,4.3972,4.1397,3.9819,3.8971,3.8084,3.7738,3.7853,3.8703,3.9052,3.9167,4.0013,3.9821,3.9396,4.0891,3.9737,3.7522,3.6344,3.5018,0.0,0.0,3.6392,3.7794,4.0331,4.1012,4.1195,4.2047,4.1632,4.0916,4.0298,3.892,3.7116,0.0,3.3575,3.2169,3.0187,0.0,3.0173,3.0916,3.1825,3.2986,3.4597,3.5598,3.5859,3.5037,3.4927,3.4637,3.384,3.377,3.34,3.2656,3.2476,3.1742,3.0207,2.9283,2.7708,2.534,2.3676,0.0,0.0,0.0,0.0,0.0,0.0,0.0,0.0,0.0,0.0,0.0,0.0,0.0,0.0,0.0,0.0,0.0,0.0,0.0,0.0,0.0,0.0,0.0,0.0,0.0,0.0,0.0,0.0,3.3672,3.5416,0.0,3.379,3.4544,3.5423,3.6035,3.7877,3.9388,4.0256,4.1942,4.3134,4.3766,4.4281,4.4675,4.4991,4.5267,4.5393,4.5396,4.5592,4.5671,4.5671,4.5671,4.5633,4.5592,4.5592,4.5438,4.5051,4.4169,4.2974,4.1702,4.1393,4.1277,4.1316,4.1625,4.2087,4.2472,4.2241,4.2318,4.2433,4.1966,4.0816,3.9542,3.9146,3.9046,3.9171,3.9568,4.0376,4.1266,4.1899,4.195,4.183,4.1883,4.1547,4.1143,4.1148,4.0507,3.9627,3.8507,3.6138,3.3923,3.2722,3.2522,3.2596,3.2892,3.3617,3.4564,3.5672,3.6119,3.6196,3.5859,3.5334,3.4891,3.4604,3.4097,3.3697,3.34,3.2412,3.1571,3.0983,2.969,2.8109,2.6209,2.5112,2.2542,0.0,0.0,0.0,0.0,0.0,0.0,0.0,0.0,0.0,0.0,0.0,0.0,0.0,0.0,0.0,0.0,0.0,0.0,0.0,0.0,0.0,0.0,0.0,0.0,0.0,0.0,3.6003,3.6261,3.8292,3.8866,3.6816,3.7795,3.8846,3.9469,4.1055,4.226,4.2872,4.4243,4.4998,4.4998,4.5513,4.5791,4.5791,4.5751,4.5712,4.5712,4.5633,4.5592,4.5592,4.5592,4.5592,4.5592,4.5592,4.5592,4.5592,4.5592,4.4936,4.3934,4.3934,4.3934,4.3934,4.3934,4.428,4.4667,4.4126,4.428,4.4551,4.3431,4.2472,4.1783,4.1783,4.2202,4.2603,4.2519,4.3012,4.3522,4.3292,4.2969,4.2691,4.2476,4.2038,4.1695,4.1815,4.1443,4.0997,4.0633,3.8457,3.6296,3.5242,3.5062,3.5062,3.5062,3.5492,3.6152,3.7,3.7114,3.7004,3.6714,3.6189,3.5591,3.5034,3.4277,3.3697,3.34,3.2125,3.117,3.0613,2.9577,2.8064,2.6071,2.4978,2.3154,2.0558,0.0,0.0,0.0,0.0,0.0,0.0,0.0,0.0,0.0,0.0,0.0,0.0,0.0,0.0,0.0,0.0,0.0,0.0,0.0,0.0,0.0,0.0,0.0,3.2097,3.5768,3.8115,3.7252,4.0141,4.1204,3.8684,4.062,4.2059,4.2181,4.3511,4.4387,4.4523,4.5197,4.5592,4.5592,4.5592,4.5592,4.5592,4.5592,4.5592,4.5592,4.5592,4.5592,4.5592,4.5592,4.5592,4.5592,4.5592,4.5592,4.5592,4.5592,4.5592,4.5592,4.5592,4.5592,4.5592,4.5592,4.5592,4.5592,4.5592,4.5592,4.5592,4.5592,4.5013,4.4355,4.4348,4.4308,4.4255,4.3909,4.4195,4.4608,4.4599,4.4283,4.3986,4.3975,4.3394,4.2738,4.2419,4.1727,4.1173,4.1136,4.0524,3.9467,3.7893,3.7603,3.7566,3.7566,3.7566,0.0,3.8612,3.8685,3.8395,3.7639,3.7529,3.682,3.5184,3.4277,3.3473,3.2656,3.1825,3.0687,2.9131,2.9021,2.7728,2.5035,2.3419,2.2749,2.3043,0.0,0.0,0.0,0.0,0.0,0.0,0.0,0.0,0.0,0.0,0.0,0.0,0.0,0.0,0.0,0.0,0.0,0.0,0.0,0.0,0.0,3.398,3.6495,3.6538,3.9152,4.1419,4.2443,4.3875,4.4502,4.378,4.4252,4.4611,4.4641,4.5004,4.5244,4.5314,4.5475,4.5592,4.5592,4.5592,4.5592,4.5592,4.5592,4.5592,4.5592,4.5592,4.5592,4.5592,4.5592,4.5592,4.5592,4.5592,4.5592,4.5592,4.5592,4.5592,4.5592,4.5592,4.5592,4.5592,4.5592,4.5592,4.5592,4.5592,4.5592,4.5592,4.5592,4.5438,4.5213,4.4949,4.4886,4.4828,4.4451,4.449,4.4515,4.4233,4.4076,4.3955,4.3689,4.3471,4.3291,4.3201,4.2992,4.2657,4.2098,4.1805,4.1295,4.03,3.9647,3.9251,3.9251,3.8729,0.0,3.8685,3.8685,3.8615,3.8395,3.7852,3.7085,3.6042,3.4614,3.3473,3.2656,3.1308,3.0577,3.0727,2.9613,2.8368,2.7022,2.5411,2.4344,0.0,0.0,0.0,0.0,0.0,0.0,0.0,0.0,0.0,0.0,0.0,0.0,0.0,0.0,0.0,0.0,0.0,0.0,0.0,0.0,0.0,0.0,3.7455,4.0009,4.0789,4.2176,4.3609,4.4919,4.5472,4.5712,4.5712,4.5633,4.5592,4.5592,4.5592,4.5592,4.5592,4.5592,4.5592,4.5592,4.5592,4.5592,4.5592,4.5592,4.5592,4.5592,4.5592,4.5592,4.5592,4.5592,4.5592,0.0,4.5592,4.5592,4.5592,4.5592,4.5592,0.0,0.0,0.0,0.0,0.0,4.5592,4.5592,4.5592,4.5525,4.5398,4.5398,4.5286,4.5126,4.4948,4.489,4.4855,4.4666,4.4465,4.4286,4.4054,4.39,4.375,4.3534,4.3506,4.3506,4.3506,4.3506,4.3359,4.2878,0.0,0.0,4.2176,4.1144,4.0414,4.0414,3.9717,3.9203,0.0,3.8905,3.8685,3.8685,3.8285,3.7669,3.6864,3.5275,0.0,0.0,0.0,3.0613,3.039,2.936,0.0,0.0,0.0,0.0,0.0,0.0,0.0,0.0,2.4526,2.4343,0.0,0.0,0.0,0.0,0.0,0.0,0.0,0.0,0.0,0.0,0.0,0.0,0.0,0.0,0.0,0.0,4.0618,4.2738,4.4401,4.46,4.4878,4.5513,4.5592,4.5592,4.5592,4.5592,4.5592,4.5592,4.5592,4.5631,4.5746,0.0,0.0,0.0,0.0,4.5862,4.5862,4.5862,4.5862,4.5862,4.5862,4.5862,4.5862,4.5862,4.5862,4.5862,4.5862,4.5823,4.5746,4.5746,4.5708,4.5592,4.5592,4.5592,4.5592,4.5592,4.5575,0.0,0.0,0.0,0.0,4.503,4.4846,4.4602,4.4562,4.4549,4.4502,4.4503,4.4204,4.3925,4.3925,4.3726,4.3506,4.3506,4.3506,4.3506,4.3506,4.3506,4.3506,4.3506,4.3506,4.3506,4.3506,4.2249,4.1246,4.1246,4.0557,0.0,4.0051,3.935,3.8832,3.8832,0.0,0.0,3.7566,3.6039,3.4784,3.3987,3.2602,3.1127,2.961,2.9347,2.9331,2.9534,2.9939,3.1002,3.2733,3.2843,3.325,3.3807,2.8713,2.7869,0.0,0.0,0.0,0.0,0.0,0.0,0.0,0.0,0.0,0.0,0.0,0.0,0.0,0.0,0.0,4.0623,4.2652,4.4186,4.5237,4.5393,4.5434,4.5592,4.5592,4.5592,4.5592,4.5592,4.5592,4.5592,4.5592,4.5898,4.6622,4.6661,0.0,4.7584,4.7625,4.7625,4.7625,4.7625,4.7625,4.7625,0.0,0.0,4.7625,4.7625,4.7625,4.7625,4.7625,4.7238,4.6661,4.6661,4.624,4.5592,4.5592,4.5592,4.5592,4.5592,4.5426,4.5201,4.5201,4.4971,4.4707,4.4707,4.4663,4.4556,4.4208,4.411,0.0,4.3791,4.3668,4.3601,4.3601,4.3534,4.3506,4.3506,4.3506,4.3506,4.3506,4.3506,4.3506,4.3506,4.3506,4.3506,4.3506,4.2694,4.2062,4.2062,4.1364,4.0883,4.0883,4.0157,3.9688,3.9688,3.9093,3.8358,3.7566,3.66,3.5675,3.4821,3.4491,3.387,3.2923,3.3413,3.3486,3.2886,3.295,3.3203,3.3587,3.4237,3.4634,3.4744,3.2999,3.2522,0.0,0.0,0.0,0.0,0.0,0.0,0.0,0.0,0.0,0.0,0.0,3.3732,3.628,0.0,4.0583,4.2698,4.4126,4.509,4.5554,4.5592,4.5592,4.5592,4.5592,4.5592,4.5592,4.5973,4.624,4.624,4.6627,4.7048,4.7466,4.7505,4.7697,4.8084,4.8084,4.8084,4.8084,4.8084,4.8084,4.8084,4.8084,4.8084,4.8084,4.8084,4.8084,4.8084,4.8084,4.7851,4.7505,4.7505,4.7238,4.6857,4.6857,4.636,4.5592,4.5592,4.5395,4.5115,4.5115,4.4735,4.4293,4.4293,4.4205,4.4004,4.3827,4.3758,4.3714,4.3534,4.3506,4.3506,4.3506,4.3506,4.3506,4.3506,4.3506,4.3506,4.3506,4.3506,4.3506,4.3506,4.3506,4.3506,4.3506,4.3176,4.2914,4.2914,4.2213,4.169,4.169,4.0997,4.0483,4.0483,4.0149,3.9749,3.9353,3.8212,3.6964,3.5745,3.5635,3.5268,3.4424,3.5195,3.5268,3.4421,3.4835,3.5459,3.6263,3.6663,3.7279,3.8046,3.765,3.7033,0.0,0.0,0.0,0.0,0.0,0.0,0.0,3.0355,3.1317,3.3854,3.5619,3.7386,3.9627,4.1277,4.2775,4.4318,4.5128,4.5592,4.5592,4.5592,4.5592,4.5592,4.5746,4.5859,4.5859,4.6624,4.712,4.712,4.7735,4.8161,4.8353,4.8353,4.843,4.8584,4.8625,4.8625,4.8625,4.8625,4.8625,4.8625,4.8625,4.8625,4.8625,4.8625,4.8625,4.8586,4.843,4.8353,4.8353,4.8161,4.8084,4.8084,4.8084,4.7278,4.609,4.609,4.5779,4.5336,4.5278,4.468,4.3979,4.3935,4.3722,4.3506,4.3506,4.3506,4.3506,4.3506,4.3506,4.3506,4.3506,4.3506,4.3506,4.3506,4.3506,4.3506,4.3506,4.3506,4.3506,4.3506,4.3506,4.3506,4.3506,4.3506,4.3506,4.3506,4.2951,4.2543,4.2543,4.1841,4.1319,4.1319,4.1173,4.1099,4.1099,3.9892,3.8612,3.7294,3.7135,3.679,3.6208,3.6638,3.6618,3.6036,3.6589,3.7534,3.8854,3.8854,3.956,4.0926,4.0926,4.028,3.1734,3.0617,3.0192,3.0038,3.0578,3.2352,0.0,3.6892,3.6582,3.9129,4.0431,4.1427,4.247,4.3393,4.4357,4.5284,4.5554,4.5592,4.5592,4.5592,4.5592,4.5592,4.6278,4.6735,4.6735,4.7505,4.7968,4.7968,4.8045,4.843,4.9202,4.924,4.9627,5.0361,5.0399,5.0399,5.0399,5.0399,5.0399,5.0399,5.0399,5.0399,5.0399,5.0399,5.0399,5.0361,4.9589,4.924,4.9202,4.843,4.8084,4.8084,4.8084,4.8007,4.7815,4.7815,4.7121,4.6117,4.5833,4.4967,4.3966,4.3635,4.3512,4.3506,4.3506,4.3506,4.3506,4.3506,4.3506,4.3506,4.3506,4.3506,4.3506,4.3506,4.3506,4.3506,4.3506,4.3506,4.3506,4.3506,4.3506,4.3506,4.3506,4.3506,4.3506,4.3506,4.3437,4.3359,4.3359,4.2657,4.2172,4.2172,4.1544,4.1099,4.1099,4.0952,4.0732,4.0585,4.0043,3.9959,4.0382,3.9535,3.9213,3.9603,3.9237,3.9133,3.9315,3.9315,3.9675,4.0307,4.0307,4.0475,3.5042,3.362,3.2852,3.3809,3.4734,3.6045,3.8703,3.9088,3.951,4.1587,4.2662,4.3508,4.4397,4.4821,4.5167,0.0,4.5592,4.5592,4.5592,4.5592,4.5592,4.5592,4.6355,4.6889,4.6889,4.762,4.8315,4.8817,4.932,4.9781,5.013,5.0168,5.0322,5.0709,5.0709,5.0709,5.0709,5.0709,5.0709,5.0709,5.0709,5.0709,5.0709,5.0709,5.0709,5.0671,5.0322,5.0168,5.013,4.9743,4.9627,4.9627,4.9627,4.9627,4.9473,4.8469,4.766,4.7002,4.6621,4.6028,4.5403,4.5018,4.4901,4.4901,4.4901,4.4566,4.4195,4.4195,4.3869,4.3506,4.3506,4.3506,4.3506,4.3506,4.3506,4.3506,4.3506,4.3506,4.3506,4.3506,4.3506,4.3506,4.3506,4.3506,4.3506,4.3506,4.3506,4.3506,4.3506,4.3212,4.2992,4.2992,4.2694,4.2323,4.1837,4.1477,4.106,4.0611,4.0063,3.9832,4.0091,3.9638,3.9499,3.9726,3.9504,3.9635,4.011,4.011,4.0617,4.1659,4.1659,4.1969,3.6236,3.5468,3.5316,3.7005,3.8236,3.9315,4.0435,4.1129,4.1974,4.3472,4.4241,4.4859,4.5477,4.5592,4.5592,4.5592,4.5782,4.5859,4.5631,4.5821,4.5859,4.5631,4.6165,4.6622,4.6889,4.7853,4.8817,4.9704,5.0322,5.0709,5.0709,5.0709,5.0709,5.0709,5.0709,5.0709,5.0709,5.0709,5.0709,5.0709,5.0709,5.0709,5.0709,5.0709,5.0709,5.0709,5.0709,5.0709,5.0709,5.0709,5.0627,5.0566,5.0642,5.0579,5.0219,4.9061,4.8356,4.7859,4.7367,4.6866,4.6404,4.6008,4.5883,4.5883,4.5883,4.548,4.5035,4.5035,4.4599,4.4093,4.3906,4.3832,4.3763,4.3543,4.3506,4.3506,4.3506,4.3506,4.3506,4.3506,4.3506,4.3506,4.3506,4.3506,4.3506,4.3506,4.3506,4.3506,4.3506,4.3506,4.3506,4.3506,4.3356,4.3048,4.2459,4.1861,4.1264,4.0671,4.0121,3.9879,4.008,3.9777,3.9645,3.9805,3.9686,3.989,4.0471,4.0471,4.1072,4.2216,4.2216,4.2506,3.451,3.543,3.7042,3.878,4.0469,4.2119,4.3778,4.4164,4.4434,4.5323,4.5554,4.5554,4.5592,4.5592,4.5592,4.5592,4.6317,4.6584,4.5708,4.6317,4.6545,4.5708,4.5631,4.5975,4.6812,4.8394,4.9704,5.0594,5.0709,5.0709,5.0709,5.0709,5.0709,5.0709,5.0709,5.0709,5.0709,5.0709,5.0709,5.0709,5.0709,5.0709,5.0709,5.0709,5.0709,5.0709,5.0709,5.0709,5.0709,5.0709,5.0475,5.0159,5.0568,5.0212,4.9575,4.9892,4.9504,4.8671,4.7924,4.7123,4.6343,4.5995,4.5883,4.5883,4.5883,4.5888,4.5847,4.5847,4.5851,4.5663,4.4888,4.4663,4.4484,4.369,4.3506,4.3506,4.3506,4.3506,4.3506,4.3506,4.3506,4.3506,4.3506,4.3506,4.3506,4.3506,4.3506,4.3506,4.3506,4.3506,4.3506,4.3506,4.3046,4.2713,4.2676,4.2114,4.1796,4.1756,4.1175,4.1108,4.1713,4.0657,4.0324,4.0822,4.0342,4.0095,4.0135,4.0135,4.0395,4.0938,4.0938,4.1268,3.6622,3.7932,3.9625,4.1395,4.2662,4.3778,4.4898,4.5167,4.5246,4.5554,4.5592,4.5592,4.5592,4.5592,4.5592,4.5592,4.6317,4.6584,4.5708,4.6817,4.7161,4.5785,4.6126,4.6584,4.6889,4.7428,0.0,4.9743,4.9822,5.0091,5.0671,5.0709,5.0709,5.0709,5.0709,5.0709,5.0709,5.0709,5.0709,5.0709,5.0709,5.0709,5.0709,5.0709,5.0709,5.0709,5.0709,5.0709,5.0709,5.0709,5.047,5.0123,5.0232,4.9968,4.9482,4.936,4.9119,4.8848,4.8575,4.8315,4.8008,4.762,4.7494,4.7494,4.7494,4.7127,4.6718,4.6718,4.6319,4.5847,4.5553,4.5512,4.5296,4.4484,4.4305,4.4158,4.3616,4.3506,4.3506,4.3506,4.3506,4.3506,4.3506,4.3506,4.3506,4.3506,4.3506,4.3506,4.3506,4.3506,4.3352,4.3022,4.2794,4.2552,4.2154,4.1533,4.1189,4.1189,4.0684,4.0466,4.0648,4.031,4.0179,4.0362,4.0192,4.0113,4.0113,4.0113,4.0374,4.0914,4.0914,4.1211,3.8852,4.0123,4.1433,4.3472,4.4395,4.4898,4.5477,4.5592,4.5515,4.5208,4.5071,4.4901,4.4592,4.4515,4.463,4.4939,4.6075,4.6697,4.6126,4.724,4.7699,4.6627,4.6738,4.7005,4.7312,4.7312,0.0,4.932,4.9704,5.0091,5.0671,5.0709,5.0709,5.0709,5.0709,5.0709,5.0709,5.0709,5.0709,5.0709,5.0709,5.0709,5.0709,5.0709,5.0619,5.0486,5.0486,5.0388,5.0288,5.0288,5.0021,4.968,4.9846,4.955,4.9043,4.8928,4.8817,4.8707,4.8707,4.8707,4.8658,4.8369,4.8301,4.8301,4.8301,4.7929,4.7521,4.7521,4.7159,4.6691,4.6393,4.6319,4.6136,4.5328,4.5145,4.5002,4.4456,4.435,4.4277,4.3979,4.3942,4.3832,4.3543,4.3506,4.3506,4.3506,4.3506,4.3506,4.3506,4.3321,4.3092,4.2727,4.2358,4.1941,4.1495,4.0949,4.0625,4.0625,4.0276,4.0113,4.0113,4.0113,4.0113,4.0113,4.0113,4.0113,4.0113,4.0113,4.0291,4.0625,4.0625,4.0803,4.0964,4.1927,4.2583,4.5013,4.5592,4.5592,4.5592,4.5554,4.528,4.4385,4.3987,4.3479,4.2543,4.251,4.2863,4.3716,4.5602,4.6966,4.6966,4.7697,4.8199,4.8122,4.7466,4.7312,4.8045,4.8122,0.0,4.9358,0.0,5.0632,5.0709,5.0709,5.0709,5.0709,5.0709,5.0709,5.0709,5.0709,5.0702,5.0687,5.0687,5.0644,5.0629,5.0629,5.0446,5.0087,5.0087,4.9862,4.9493,4.9493,4.9265,4.8924,4.9322,4.9007,4.8358,4.8722,4.8635,4.8301,4.8301,4.8301,4.8301,4.8301,4.8301,4.8301,4.8301,4.8301,4.8301,4.8301,4.8301,4.8113,4.7369,4.7149,4.6971,4.614,4.5957,4.5957,4.5925,4.5883,4.5663,4.492,4.4773,4.4521,4.369,4.3543,4.3543,4.351,4.3484,4.3471,4.3471,4.2991,4.2669,4.2616,4.1647,4.0949,4.0874,4.0392,4.0113,4.0113,4.0113,4.0113,4.0113,4.0113,4.0113,4.0113,4.0113,4.0113,4.0113,4.0113,4.0113,4.0113,4.0113,4.0113,4.2352,4.3664,4.4782,4.5438,4.5592,4.5592,4.5592,4.509,4.4356,4.3326,4.2551,4.1541,3.9852,4.1259,4.2748,4.2962,4.57,0.0,4.7774,4.9086,4.955,4.8238,4.8507,4.8586,4.8122,4.8702,0.0,0.0,4.9627,5.0014,5.0671,5.0709,5.0709,5.0709,5.0709,5.0709,5.0709,5.0709,5.0568,5.0235,5.0235,5.0111,4.9822,4.9822,4.9734,4.9642,4.9642,4.9586,4.9493,4.9493,4.9265,4.8895,4.9006,4.8735,4.8316,4.8411,4.8374,4.8301,4.8301,4.8301,4.8301,4.8301,4.8301,4.8301,4.8301,4.8301,4.8301,4.8301,4.8301,4.8264,4.8039,4.8003,4.7783,4.6971,4.6787,4.6645,4.603,4.5883,4.5847,4.5626,4.559,4.5328,4.4521,4.4374,4.4195,4.3579,4.3164,4.2884,4.2884,4.277,4.2352,4.144,4.111,4.0773,4.0331,4.0173,4.0113,4.0113,4.0113,4.0113,4.0113,4.0113,4.0113,4.0113,4.0113,4.0113,4.0113,4.0113,4.0113,4.0113,4.0113,4.0113,4.3857,4.4898,4.5592,4.5592,4.5592,4.54,4.4667,4.4025,4.3011,4.0905,4.016,3.9223,3.7046,3.9248,4.1395,4.1386,4.4873,4.7697,4.8045,4.9281,4.9899,4.932,4.9358,4.9358,4.9243,4.9666,5.0127,0.0,5.0166,5.0358,5.1164,5.1241,5.1241,5.1241,5.1241,5.0955,5.0451,5.0451,5.0221,4.9849,4.9849,4.9704,4.9493,4.9493,4.9401,4.9237,0.0,4.9131,4.8986,4.8986,4.8843,4.8649,4.8649,4.8518,4.8301,4.8301,4.8301,4.8301,4.8301,4.8301,4.8301,4.8301,4.8301,4.8301,4.8301,4.8301,4.8301,4.8301,4.8301,4.8301,4.8301,4.8301,4.8191,4.7741,4.7631,4.7489,4.7053,4.6948,4.6833,4.6503,4.614,4.5773,4.5292,4.5218,4.5076,4.4603,4.4305,4.3785,4.2925,4.2281,4.1666,4.0955,4.0679,4.0441,4.0144,4.0113,4.0113,4.0113,4.0113,4.0113,4.0113,4.0113,4.0113,4.0113,4.0113,4.0113,4.0113,4.0113,4.0113,4.0113,4.0113,4.0113,4.5208,4.5592,4.5592,4.5592,4.5515,4.5007,4.3402,4.2614,4.1284,3.8015,3.7349,3.6649,3.4357,3.6865,3.9385,3.9682,4.3604,4.7049,4.8118,4.8933,4.9704,5.0594,5.0127,5.0012,5.0784,5.0976,5.1303,5.1949,5.1413,5.1303,5.1946,5.2059,5.2079,5.2079,5.1854,5.1256,5.027,5.0218,4.9981,4.9563,4.9676,4.9646,4.9525,4.9525,4.9256,4.883,0.0,0.0,4.8301,4.8301,4.8301,4.8301,4.8411,4.8485,4.8485,4.8485,4.8485,4.8448,4.8338,4.8301,4.8301,4.8301,4.8301,4.8301,4.8301,4.8301,4.8301,4.8301,4.8301,4.8301,4.8301,4.8301,4.8301,4.8301,4.8301,4.8301,4.8301,4.8301,4.8076,4.7369,4.6682,4.6177,4.6067,4.6067,4.603,4.592,4.5833,4.5137,4.3376,4.1993,4.1123,4.0948,4.0504,4.0282,4.0377,4.0309,4.0242,4.0242,4.014,4.0113,4.0113,4.0113,4.0113,4.0113,4.0113,4.0113,4.0113,4.0113,4.0113,4.0113,4.0113,4.0113,4.5515,4.5592,4.5592,4.5592,4.5051,4.4203,4.3039,4.1105,3.8876,3.6454,3.4864,3.3532,3.2145,3.4862,3.7853,3.9499,4.2968,4.6294,4.8832,4.932,4.9704,5.0594,5.1164,5.1543,5.1697,5.2354,0.0,0.0,5.2675,5.2669,5.2474,5.2793,5.2967,5.2967,5.1624,5.0978,5.1074,5.0768,5.0398,5.001,5.0678,5.0491,4.957,4.957,4.915,4.8397,0.0,0.0,4.8301,4.8301,4.8301,4.8375,4.9087,4.9385,4.9385,4.9385,4.9385,4.927,4.8558,4.8301,4.8301,4.8301,4.8301,4.8301,4.8301,4.8301,4.8301,4.8301,4.8301,4.8301,4.8301,4.8301,4.8301,4.8301,4.8301,4.8301,4.8301,4.8301,4.826,4.8113,4.7971,4.7677,4.7007,4.6897,4.6682,4.5993,4.5525,4.4921,4.4029,4.3166,4.2235,4.1254,4.1065,4.1278,4.186,4.1346,4.1001,4.1001,4.0445,4.0113,4.0113,4.0113,4.0113,4.0113,4.0113,4.0113,4.0113,4.0113,4.0113,4.0113,4.0113,4.0113,4.6278,4.6278,4.6278,4.6278,4.528,4.3658,4.1281,3.9309,3.706,3.3679,3.2578,3.1802,3.0429,3.3437,3.65,3.7468,4.1138,4.4763,4.744,4.8158,4.9155,5.1108,5.1461,5.185,5.2492,5.2967,5.3296,5.3572,5.3545,5.3433,5.3226,5.3653,5.3675,5.3206,5.2206,5.1566,5.1315,5.11,5.0847,5.0453,5.0864,5.0745,5.022,5.022,4.9999,4.9586,4.9155,0.0,4.8972,4.8972,4.8972,4.9045,4.9889,5.022,5.022,5.022,5.022,5.0146,4.9738,4.9586,4.9586,4.9586,4.8999,4.8375,4.882,4.8673,4.8375,4.8861,4.8636,4.8301,4.8301,4.8301,4.8301,4.8301,4.8301,4.8301,4.8301,4.8301,4.8301,4.8301,4.8301,4.8186,4.7783,4.7704,4.7599,4.7205,4.6941,4.6287,4.489,4.4434,4.3577,4.1936,4.1779,4.1921,4.2266,4.1988,4.1779,4.1779,4.1075,4.0669,4.0669,4.0309,4.0113,4.0113,4.0113,4.0113,4.0113,4.0506,4.0669,4.0669,4.1081,4.1251,4.6873,4.6848,4.6781,4.6876,4.5468,4.3111,3.9625,3.7699,3.5521,3.1369,3.0692,3.054,2.9467,3.2256,3.4937,3.5721,3.9274,4.2998,4.5963,4.6973,4.8498,5.1542,5.1722,5.2088,5.3366,5.3568,0.0,5.4438,0.0,0.0,5.3944,5.4112,5.3992,5.3491,5.2821,5.2181,5.158,5.1504,5.1336,5.1059,5.1237,5.1237,5.1059,5.1059,5.0949,5.076,5.0115,0.0,0.0,4.9789,4.9752,4.9716,5.0697,5.1059,5.1059,5.1059,5.1059,5.1022,5.087,5.0797,5.0797,5.0797,4.9916,4.8962,4.9637,4.9375,4.8962,4.9674,4.937,4.8815,4.8636,4.8595,4.8526,4.8338,4.8301,4.8301,4.8301,4.8301,4.8301,4.8301,4.8301,4.8301,4.8301,4.8301,4.8301,4.8301,4.8301,4.764,4.5752,4.5527,4.4827,4.2995,4.2631,4.2597,4.2773,4.2631,4.253,4.253,4.1847,4.1441,4.1441,4.0878,4.058,4.058,4.058,4.058,4.058,4.1143,4.1441,4.1434,4.2022,4.2293,4.6786,4.6633,4.6457,4.6791,4.5045,4.2383,3.9234,3.6705,3.4102,3.0889,2.9674,2.9393,2.9983,3.102,3.2875,3.6161,3.8296,4.1146,4.5758,4.6755,4.8267,5.1521,5.2226,5.2977,5.4256,5.4724,5.4794,5.4511,0.0,0.0,5.4407,5.3744,5.3646,5.4347,5.2851,5.2202,5.2472,5.2119,5.1918,5.1908,5.2632,5.2595,5.1877,5.1877,5.1505,5.0797,0.0,0.0,0.0,5.0403,5.0256,4.9752,5.1289,5.1877,5.1877,5.1877,5.1877,5.1798,5.1059,5.0797,5.0797,5.0797,5.0692,5.0582,5.0655,5.0613,5.0582,5.0655,5.0613,5.0398,4.9679,4.9495,4.927,4.8485,4.8301,4.8301,4.8301,4.8301,4.8301,4.8301,4.8301,4.8301,4.8301,4.8301,4.8301,4.8301,4.8301,4.7807,4.6488,4.6289,4.58,4.4523,4.3741,4.3599,4.4337,4.37,4.3281,4.3281,4.2625,4.2198,4.2198,4.213,4.2097,4.2097,4.2097,4.2097,4.2097,4.2164,4.2198,4.2191,4.2266,4.2293,4.6325,4.6426,4.6323,4.6485,4.4642,4.1862,3.8286,3.5949,3.3555,3.0172,2.9207,2.9097,2.9427,3.0133,3.1633,0.0,0.0,0.0,4.2938,4.4093,4.6074,5.0354,5.125,5.2472,5.4973,0.0,5.4822,5.4131,0.0,0.0,5.3715,5.3907,5.3883,5.3715,5.3322,5.3035,5.2964,5.2783,5.2706,5.2747,5.3067,5.3031,5.2706,5.2706,5.2559,5.2228,0.0,0.0,0.0,5.1394,5.1321,5.1143,5.227,5.2706,5.2706,5.2706,5.2706,5.2669,5.2375,5.2223,5.2223,5.2223,5.2223,5.2155,5.1683,5.1169,5.0912,5.1389,5.1169,5.0729,5.0398,5.033,5.022,4.9879,4.9806,4.9806,4.9806,4.9806,4.9806,4.9806,4.9407,4.9087,4.9087,4.8636,4.8301,4.8301,4.8301,4.7843,4.6548,4.6389,4.5934,4.4734,4.4323,4.4255,4.4574,4.4296,4.412,4.412,4.3396,4.2956,4.2956,4.253,4.2293,4.2293,4.2293,4.2293,4.2293,4.276,4.2956,4.2956,4.3443,4.3687,4.5933,4.6306,4.63,4.6309,4.4412,4.1593,3.7673,3.5516,3.3277,2.9729,2.8984,2.8984,2.8984,2.965,3.0904,0.0,0.0,3.7119,4.1135,4.246,4.4666,4.9138,4.9804,5.1146,5.4299,5.4666,5.4402,5.3663,0.0,0.0,0.0,5.3786,5.3847,5.3235,5.3479,5.3494,5.3214,5.3214,5.3214,5.3214,5.3214,5.3214,5.3214,5.3214,5.3214,5.3177,0.0,0.0,0.0,5.2165,5.2055,5.1762,5.2774,5.3214,5.3214,5.3214,5.3214,5.3214,5.3214,5.3214,5.3214,5.3214,5.3214,5.3104,5.2527,5.1971,5.1641,5.2202,5.1793,5.1169,5.1169,5.0986,5.0797,5.0797,5.0797,5.0797,5.0797,5.0797,5.0797,5.0797,5.033,4.9968,4.9968,4.9449,4.8871,4.8457,4.84,4.7855,4.6317,4.6142,4.5756,4.4706,4.4608,4.4608,4.4608,4.4608,4.4608,4.4608,4.4086,4.3768,4.3768,4.3274,4.2976,4.2976,4.2976,4.2976,4.2976,4.3504,4.3768,4.3768,4.433,4.4608,4.5775,4.6289,4.6313,4.6306,4.4412,4.1593,3.7673,3.5516,3.3277,2.9729,2.8984,2.8984,2.8984,2.965,3.0717,3.2362,3.4688,0.0,4.1208,4.2719,4.4708,4.8039,4.8074,4.8952,5.1764,5.3093,5.3625,0.0,0.0,0.0,0.0,5.3225,5.3225,5.3214,5.3183,5.3183,5.3214,5.3214,5.3214,5.3214,5.3214,5.3214,5.3214,5.3214,5.3214,0.0,0.0,0.0,0.0,5.2517,5.2265,5.098,5.2553,5.3214,5.3214,5.3214,5.3214,5.3214,5.3214,5.3214,5.3214,5.3214,5.3214,5.3214,5.3177,5.3177,5.3177,5.3177,5.2601,5.1982,5.1982,5.1394,5.0797,5.0797,5.0797,5.0797,5.0797,5.0797,5.0797,5.0797,5.0797,5.0802,5.0802,5.0765,5.0294,4.8829,4.8598,4.7844,4.5784,4.55,4.5267,4.4685,4.4608,4.4608,4.4608,4.4608,4.4608,4.4608,4.4608,4.4574,4.4574,4.4574,4.4574,4.4574,4.4574,4.4574,4.4574,4.4574,4.4574,4.4574,4.4608,4.4608,4.1044,4.1832,4.2158,4.1585,4.0427,3.8626,3.547,3.3896,3.2336,2.9563,2.8984,2.8984,2.8984,2.9207,3.0454,3.3717,3.4894,0.0,4.0733,4.2574,4.4708,4.8029,5.0999,5.303,0.0,0.0,5.3648,0.0,0.0,0.0,0.0,5.3214,5.3214,5.3214,5.3214,5.3214,5.3214,5.3214,5.3214,5.3214,5.3214,5.3214,5.3214,5.3214,0.0,0.0,0.0,0.0,0.0,5.2994,5.2884,5.248,5.2994,5.3214,5.3214,5.3214,5.3214,5.3214,5.3214,5.3214,5.3214,5.3214,5.3214,5.3214,5.3214,5.3214,5.3214,5.3214,5.3036,5.2816,5.2816,5.2632,5.2443,5.2443,5.2443,5.2443,5.2443,5.2443,5.2443,5.2443,5.2013,5.1615,5.1615,5.1169,5.0461,4.9509,4.9347,4.8793,4.7227,4.6999,4.6776,4.6162,4.5643,4.5135,4.4642,4.4608,4.4608,4.4608,4.4608,4.4608,4.4608,4.4608,4.4608,4.4608,4.4608,4.4608,4.4608,4.4608,4.4608,4.4608,4.4608,4.4608,3.8014,3.9438,3.9986,3.9373,3.8382,3.6876,3.4351,3.2926,3.1561,2.9427,2.8984,2.8984,2.8984,2.9244,3.0384,3.3173,3.4417,3.6211,3.9709,4.1846,4.4305,4.7781,5.1457,0.0,0.0,5.3469,0.0,0.0,0.0,0.0,0.0,5.3214,5.3214,5.3214,5.3214,5.3214,5.3214,5.3214,5.3214,5.3214,5.3214,5.3214,5.3214,5.3214,0.0,0.0,0.0,0.0,0.0,5.2632,5.2742,5.2779,5.3067,5.3214,5.3214,5.3214,5.3214,5.3214,5.3214,5.3214,5.3214,5.3214,5.3214,5.3214,5.3214,5.3214,5.3214,5.3214,5.3214,5.3214,5.3214,5.3214,5.3214,5.3214,5.3214,5.3214,5.3214,5.3214,5.3214,5.3214,5.2816,5.2454,5.2454,5.2045,5.127,5.0006,4.9799,4.9221,4.7589,4.736,4.7224,4.6844,4.638,4.594,4.5481,4.4912,4.4608,4.4608,4.4608,4.4608,4.4608,4.4608,4.4608,4.4608,4.4608,4.4608,4.4608,4.4608,4.4608,4.4608,4.4608,4.4608,0.0,3.8222,3.9096,3.8723,3.7536,3.5895,3.3977,3.2382,0.0,2.9317,2.8984,2.9021,2.9133,2.9687,3.0467,3.1574,3.3617,3.5995,3.8498,4.1144,4.4075,4.7636,5.0154,0.0,5.1549,5.2548,0.0,0.0,0.0,0.0,0.0,5.3214,5.3214,5.3214,5.3214,5.3214,5.3214,5.3214,5.3214,5.3214,5.3214,5.3214,5.3214,5.3141,0.0,0.0,0.0,0.0,0.0,5.1615,5.195,5.2055,5.2816,5.3141,5.3214,5.3214,5.3214,5.3214,5.3214,5.3214,5.3214,5.3214,5.3214,5.3214,5.3214,5.3214,5.3214,5.3214,5.3214,5.3214,5.3214,5.3214,5.3214,5.3214,5.3214,5.3214,5.3214,5.3214,5.3214,5.3214,5.3214,5.3214,5.3214,5.3214,5.2475,5.0376,5.0068,4.9311,4.7243,4.6962,4.6962,4.6962,4.6928,4.6894,4.6894,4.5582,4.4743,4.4743,4.4709,4.4675,4.4675,4.4642,4.4608,4.4608,4.4608,4.4608,4.4608,4.4608,4.4608,4.4608,4.4608,4.4642,2.9866,0.0,3.4086,3.341,3.2948,3.237,0.0,3.0757,3.0207,2.9204,2.8984,2.939,3.0613,2.9983,3.0571,3.4508,3.5605,3.707,4.0108,4.4515,4.819,5.0286,5.2137,5.3237,5.3237,0.0,0.0,0.0,0.0,0.0,0.0,5.3214,5.3214,5.3214,5.3214,5.3214,5.3214,5.3214,5.3214,5.3214,5.3214,5.3214,5.3177,5.2564,0.0,0.0,0.0,0.0,5.0802,5.0986,5.1431,5.2018,5.2202,5.2674,5.3214,5.3214,5.3214,5.3214,5.3214,5.3214,5.3214,5.3214,5.3214,5.3214,5.3214,5.3214,5.3214,5.3214,5.3214,5.3214,5.3214,5.3214,5.3214,5.3214,5.3214,5.3214,5.3214,5.3214,5.3214,5.3214,5.3214,5.3214,5.3214,5.3214,5.2646,5.1098,5.0857,5.0273,4.8689,4.8477,4.8477,4.8477,4.7996,4.765,4.765,4.6819,4.6293,4.6293,4.5737,4.5432,4.5432,4.4905,4.4608,4.4608,4.4608,4.4608,4.4608,4.4608,4.4608,4.4608,4.4608,4.4905,2.7166,2.9873,3.2512,3.2045,3.1935,3.1825,3.1415,3.0424,2.9537,2.9094,2.8984,2.939,3.0616,3.043,3.1341,3.5085,3.6343,3.8366,4.2686,4.6895,5.0235,5.1994,5.3148,5.3874,0.0,0.0,0.0,0.0,0.0,0.0,0.0,5.3214,5.3214,5.3214,5.3214,5.3214,5.3214,5.3214,5.3214,5.3214,5.3214,5.3214,5.3177,5.2386,0.0,0.0,0.0,0.0,5.0256,5.0256,5.0954,5.1987,5.1987,5.2491,5.3214,5.3214,5.3214,5.3214,5.3214,5.3214,5.3214,5.3214,5.3214,5.3214,5.3214,5.3214,5.3214,5.3214,5.3214,5.3214,5.3214,5.3214,5.3214,5.3214,5.3214,5.3214,5.3214,5.3214,5.3214,5.3214,5.3214,5.3214,5.3214,5.3214,5.2844,5.1704,5.1556,5.1176,5.009,4.9656,4.9603,4.9939,4.9016,4.8512,4.8844,4.8214,4.753,4.6827,4.6413,4.621,4.621,4.5812,4.5616,4.5616,4.5616,4.5616,4.5616,4.5616,4.5616,4.5616,4.5616,4.5812,2.6646,2.9721,3.2472,3.1999,3.2145,3.2366,3.2109,3.0454,2.8984,2.8984,2.9097,2.95,3.0574,3.1317,3.2635,3.5298,3.7261,4.0274,4.5637,4.8593,5.0946,5.2944,5.3559,0.0,0.0,0.0,0.0,0.0,0.0,0.0,0.0,5.3214,5.3214,5.3214,5.3067,5.3036,5.3036,5.3036,5.3036,5.3036,5.2884,5.2847,5.281,5.2013,5.1248,0.0,0.0,0.0,4.9422,4.9537,5.0487,5.184,5.195,5.2491,5.3214,5.3214,5.3214,5.3214,5.3214,5.3214,5.3214,5.3214,5.3214,5.3214,5.3214,5.3214,5.3214,5.3214,5.3214,5.3214,5.3214,5.3214,5.3214,5.3214,5.3214,5.3214,5.3214,5.3214,5.3214,5.3214,5.3214,5.3214,5.3214,5.3214,5.2948,5.22,5.2107,5.1844,5.1183,5.0547,5.0397,5.1027,5.0012,4.9506,4.9954,4.9477,4.8572,4.7206,4.703,4.6928,4.6793,4.6793,4.6793,4.6793,4.6793,4.6793,4.6793,4.6793,4.6793,4.6793,4.6793,4.6861,2.7852,3.0561,3.1965,2.9221,3.0069,3.124,2.987,2.9277,2.8984,2.8984,2.954,3.0684,3.2852,3.3333,3.4691,3.8509,4.1083,4.3967,0.0,0.0,5.0946,5.2944,0.0,0.0,0.0,0.0,0.0,0.0,0.0,0.0,0.0,5.3214,5.3214,5.3214,5.2527,5.2165,5.2165,5.2165,5.2165,5.2165,5.1494,5.1164,5.1127,5.0335,4.9899,0.0,0.0,0.0,4.8563,4.9307,5.0151,5.1059,5.1725,5.2491,5.3214,5.3214,5.3214,5.3214,5.3214,5.3214,5.3214,5.3214,5.3214,5.3214,5.3214,5.3214,5.3214,5.3214,5.3214,5.3214,5.3214,5.3214,5.3214,5.3214,5.3214,5.3214,5.3214,5.3214,5.3214,5.3214,5.3214,5.3214,5.3214,5.3214,5.2948,5.22,5.2107,5.1844,5.1183,5.1001,5.0975,5.1086,5.0903,5.0554,5.0047,4.9897,4.9522,4.8718,4.8097,4.7455,4.6827,4.6793,4.6793,4.6793,4.6793,4.6793,4.6793,4.6793,4.6793,4.6793,4.6793,4.7124,2.6539,2.9142,3.1048,2.9995,3.2238,3.4404,3.322,3.2222,3.1598,3.1598,3.1895,3.2742,3.4765,3.5862,3.7767,4.1846,4.4525,4.6856,4.8979,5.0575,5.1997,0.0,0.0,0.0,0.0,0.0,0.0,0.0,0.0,0.0,0.0,0.0,5.2994,5.2564,5.2202,5.1798,5.1353,5.0922,5.0922,5.1358,5.0986,5.0797,5.076,4.9968,4.9605,4.9547,0.0,4.8481,4.8394,4.9441,5.0238,5.087,5.1688,5.2491,5.3214,5.3214,5.3214,5.3214,5.3214,5.3214,5.3214,5.3214,5.3214,5.3214,5.3214,5.3214,5.3214,5.3214,5.3214,5.3214,5.3214,5.3214,5.3214,5.3214,5.3214,5.3214,5.3214,5.3214,5.3214,5.3214,5.3214,5.3214,5.3214,5.3214,5.3087,5.2747,5.2708,5.2571,5.226,5.1886,5.1637,5.1637,5.0968,5.0397,5.0082,4.9705,4.9339,4.9034,4.8672,4.8334,4.8003,4.8003,4.8003,4.8003,4.8003,4.8003,4.8003,4.8003,4.8003,4.8003,4.8003,4.8165,2.6439,2.86,3.0723,3.1721,3.4331,3.6571,3.6347,3.4985,3.3917,3.4284,3.4544,3.5132,3.66,3.8648,4.125,4.47,4.7122,4.8978,5.0065,5.1612,5.2923,0.0,0.0,0.0,0.0,0.0,0.0,0.0,0.0,0.0,0.0,0.0,5.2559,5.1725,5.1546,5.1137,5.0508,4.9706,4.9706,5.0508,5.032,5.021,5.0173,4.9564,4.9338,4.9435,4.9063,4.8718,4.8546,4.9639,5.0394,5.087,5.1688,5.2491,5.3214,5.3214,5.3214,5.3214,5.3214,5.3214,5.3214,5.3214,5.3214,5.3214,5.3214,5.3214,5.3214,5.3214,5.3214,5.3214,5.3214,5.3214,5.3214,5.3214,5.3214,5.3214,5.3214,5.3214,5.3214,5.3214,5.3214,5.3214,5.3214,5.3214,5.3214,5.3214,5.3214,5.313,5.2959,5.2593,5.2212,5.188,5.1209,5.0683,5.0597,4.9588,4.9061,4.9211,4.9084,4.9011,4.9011,4.9011,4.9011,4.9011,4.9011,4.9011,4.9011,4.9011,4.9011,4.9011,4.9011,4.9011,3.0142,3.1133,3.1684,3.3223,3.3844,3.4468,3.5976,3.4985,3.4247,3.5793,3.6718,3.7489,3.8358,4.1654,4.4842,4.6636,4.8379,5.019,5.2103,0.0,0.0,0.0,0.0,0.0,0.0,0.0,0.0,0.0,0.0,0.0,0.0,0.0,0.0,5.0907,5.0151,4.9711,4.9596,4.8815,4.882,4.9679,4.8857,4.8485,4.8485,4.8411,4.8597,4.8947,4.8907,4.8865,4.8906,4.9775,5.0394,5.087,5.1688,5.2491,5.3214,5.3214,5.3214,5.3214,5.3214,5.3214,5.3214,5.3214,5.3214,5.3214,5.3214,5.3214,5.3214,5.3214,5.3214,5.3214,5.3214,5.3214,5.3214,5.3214,5.3214,5.3214,5.3214,5.3214,5.3214,5.3214,5.3214,5.3214,5.3214,5.3214,5.3214,5.3214,5.3214,5.2948,5.2283,5.2736,5.263,5.1305,5.2236,5.2697,5.2018,5.0139,4.9264,4.9883,4.9354,4.9011,4.9011,4.9011,4.9011,4.9011,4.9011,4.9011,4.9011,4.9011,4.9011,4.9011,4.9011,4.9011,2.8671,3.0255,3.1797,3.3406,3.5349,3.689,3.7011,3.7738,3.8644,3.979,4.0271,4.0712,4.156,4.3754,4.5805,4.6929,4.8925,5.062,5.1379,0.0,0.0,0.0,0.0,0.0,0.0,0.0,0.0,0.0,0.0,0.0,0.0,0.0,0.0,5.0078,4.9752,4.9344,4.8746,4.8448,4.8485,4.8788,4.8448,4.8301,4.8311,4.8554,4.8753,4.8899,4.9163,4.9127,4.8952,4.9751,5.007,5.0188,5.1473,5.2491,5.3214,5.3214,5.3214,5.3214,5.3214,5.3214,5.3214,5.3214,5.3214,5.3214,5.3214,5.3214,5.3214,5.3214,5.3214,5.3214,5.3214,5.3214,5.3214,5.3214,5.3214,5.3214,5.3214,5.3214,5.3214,5.3214,5.3586,5.3807,5.3287,5.3618,5.377,5.3287,5.3214,5.3098,5.2808,5.3044,5.2839,5.1844,5.1832,5.1783,5.15,5.075,5.0397,5.0669,4.9639,4.9011,4.9011,4.9011,4.9011,4.9011,4.9011,4.9011,4.9011,4.9011,4.9011,4.9011,4.9011,4.9011,2.8154,2.9772,3.1724,3.3073,3.5896,3.8399,3.8583,4.012,4.1764,4.2832,4.3053,4.331,4.4093,4.5154,0.0,0.0,4.9512,5.098,0.0,0.0,0.0,0.0,0.0,0.0,0.0,0.0,0.0,0.0,0.0,0.0,0.0,0.0,0.0,0.0,4.9197,4.8898,4.8301,4.8301,4.8301,4.8301,4.8301,4.8382,4.8481,4.8919,4.9163,4.9299,4.9434,4.9341,4.9113,4.9558,4.9815,5.0115,5.1468,5.2491,5.3214,5.3214,5.3214,5.3214,5.3214,5.3214,5.3214,5.3214,5.3214,5.3214,5.3214,5.3214,5.3214,5.3214,5.3214,5.3214,5.3214,5.3214,5.3214,5.3214,5.3214,5.3214,5.3214,5.3214,5.3214,5.3214,5.3843,5.4216,5.3654,5.4252,5.4588,5.4027,5.3733,5.3486,5.3264,5.3212,5.3028,5.2514,5.1624,5.1273,5.1728,5.1138,5.0942,5.1387,4.9903,4.9214,4.9654,4.9425,4.9324,4.9324,4.9107,4.9011,4.9011,4.9011,4.9011,4.9011,4.9011,4.9011,2.9427,3.017,3.1608,3.2406,3.5092,3.8186,4.0589,4.1764,4.2796,4.4406,4.4737,4.4957,4.5736,4.5925,0.0,4.9165,5.0256,0.0,0.0,0.0,0.0,0.0,0.0,0.0,0.0,0.0,0.0,0.0,0.0,0.0,0.0,0.0,0.0,0.0,4.8301,4.8301,4.8301,4.8301,4.8301,4.8301,4.8311,4.8537,4.889,4.9314,4.9704,5.0052,4.9659,4.9493,4.9464,4.9059,4.9667,5.087,5.1688,5.2491,5.3214,5.3214,5.3214,5.3214,5.3214,5.3214,5.3214,5.3214,5.3214,5.3214,5.3214,5.3214,5.3214,5.3214,5.3214,5.3214,5.3214,5.3214,5.3214,5.3214,5.3214,5.3214,5.3214,5.3214,5.3214,5.3214,5.3843,5.4399,5.4399,5.5065,5.5622,5.5585,5.4919,5.4124,5.3381,5.3232,5.3214,5.3214,5.1934,5.1691,5.3082,5.1247,5.0635,5.2036,5.0181,4.9669,5.104,5.0376,4.9997,5.0004,4.9354,4.9011,4.9011,4.9011,4.9011,4.9011,4.9011,4.9011,2.8445,3.0173,3.2445,3.3253,3.7188,4.1226,4.2511,4.342,4.4443,4.6053,4.6383,4.6273,4.5957,4.6356,0.0,4.7709,0.0,0.0,0.0,0.0,0.0,0.0,0.0,0.0,0.0,0.0,0.0,0.0,0.0,0.0,0.0,0.0,0.0,0.0,4.8301,4.8301,4.8301,4.8301,4.8301,4.8306,4.8877,4.8919,4.8481,4.9179,4.9557,4.9659,4.9547,4.9493,4.9442,4.8748,4.9396,5.0834,5.1059,5.2008,5.3214,5.3214,5.3214,5.3214,5.3214,5.3214,5.3214,5.3214,5.3214,5.3214,5.3214,5.3214,5.3214,5.3214,5.3214,5.3214,5.3214,5.3214,5.3214,5.3214,5.3214,5.3214,5.3214,5.3214,5.3214,5.3214,5.4326,5.5065,5.4509,5.5537,5.6235,5.5695,5.4919,5.412,5.3317,5.3223,5.3214,5.3214,5.2839,5.2736,5.3151,5.2624,5.2429,5.2866,5.2313,5.1697,5.1118,4.9953,4.9521,4.999,4.9354,4.9011,4.9011,4.9011,4.9011,4.9011,4.9011,4.9011,2.9732,3.1858,3.4427,3.5862,3.9276,4.2759,4.4525,4.5328,4.6016,4.7301,4.7337,4.7044,4.687,4.6971,0.0,0.0,0.0,0.0,0.0,0.0,0.0,0.0,0.0,0.0,0.0,0.0,0.0,0.0,0.0,0.0,0.0,0.0,0.0,0.0,4.8301,4.8301,4.8301,4.8301,4.8301,4.8306,4.8783,4.8757,4.8349,4.9467,4.9895,4.9714,4.9561,4.9408,4.921,4.8559,4.9188,5.0557,5.073,5.1604,5.2742,5.3067,5.3214,5.3214,5.3214,5.3214,5.3214,5.3214,5.3214,5.3214,5.3214,5.3214,5.3214,5.3214,5.3214,5.3214,5.3214,5.3214,5.3214,5.3214,5.3214,5.3214,5.3214,5.3214,5.3214,5.3214,5.4509,5.5438,5.4955,5.6198,5.7005,5.6198,5.5133,5.4106,5.3287,5.3214,5.3214,5.3214,5.3214,5.3214,5.3214,5.2932,5.2899,5.3198,5.2675,5.2225,5.1964,5.0561,4.9896,4.9997,4.9354,4.9011,4.9011,4.9011,4.9011,4.9011,4.9011,4.9011,3.2149,3.4241,3.6784,3.928,4.1262,4.342,4.642,4.7149,4.7411,4.815,4.7704,4.7448,4.8186,4.7704,4.7704,0.0,0.0,0.0,0.0,0.0,0.0,0.0,0.0,0.0,0.0,0.0,0.0,0.0,0.0,0.0,0.0,0.0,0.0,0.0,4.8301,0.0,4.8301,4.8301,4.8301,0.0,4.8349,4.8331,4.8397,4.9885,5.0341,4.9968,4.9596,4.9237,4.8886,4.8477,4.9021,5.0202,5.0536,5.1241,5.2122,5.2831,5.3141,5.3214,5.3214,5.3214,5.3214,5.3214,5.3214,5.3214,5.3214,5.3214,5.3214,5.3214,5.3214,5.3214,5.3214,5.3214,5.3214,5.3214,5.3214,5.3214,5.3214,5.3214,5.3214,5.3214,5.4436,5.5475,5.5475,5.6754,5.7519,5.6706,5.5354,5.4106,5.3287,5.3214,5.3214,5.3214,5.3214,5.3214,5.3214,5.2582,5.2503,5.3146,5.2012,5.1832,5.306,5.1813,5.081,5.0188,4.9536,4.9168,4.9092,4.9092,4.9054,4.9011,4.9011,4.9011,3.0497,3.2953,3.6032,3.9133,4.2547,4.5475,4.6787,4.7594,4.8076,4.826,4.8154,4.8076,4.8264,4.8154,0.0,0.0,0.0,0.0,0.0,0.0,0.0,0.0,0.0,0.0,0.0,0.0,0.0,0.0,0.0,0.0,0.0,0.0,0.0,4.8301,0.0,4.8301,4.8301,4.8301,4.8301,0.0,4.8626,4.877,4.8783,4.9135,4.9249,4.9159,4.9063,4.8969,4.8886,4.8477,4.9182,5.0516,5.0056,5.0912,5.2368,5.2277,5.2674,5.3214,5.3214,5.3214,5.3214,5.3214,5.3214,5.3214,5.3214,5.3214,5.3214,5.3214,5.3214,5.3214,5.3214,5.3214,5.3214,5.3214,5.3214,5.3214,5.3214,5.3214,5.3214,5.3214,5.399,5.4656,5.4656,5.5469,5.5836,5.5023,5.462,5.4106,5.3287,5.3214,5.3214,5.3214,5.3214,5.3214,5.3214,5.3065,5.3044,5.3203,5.291,5.2605,5.2347,5.1531,5.1273,5.1643,5.0995,5.0342,4.9795,4.9795,4.9521,4.9011,4.9011,4.9011,3.1274,3.4024,3.7147,4.1181,4.4048,4.6099,4.6934,4.7704,4.8301,4.8301,4.8301,4.8301,4.8301,4.8301,0.0,0.0,0.0,0.0,0.0,0.0,0.0,0.0,0.0,0.0,0.0,0.0,0.0,0.0,0.0,0.0,0.0,4.8301,4.8301,0.0,4.8301,4.8301,4.8301,4.8301,4.8301,4.8301,4.8495,4.8618,4.8635,4.9002,4.9079,4.8882,4.8882,4.9002,4.9155,4.8748,4.9185,5.0105,4.9896,5.037,5.117,5.179,5.2275,5.2674,5.3073,5.3214,5.3214,5.3214,5.3214,5.3214,5.3214,5.3214,5.3214,5.3214,5.3214,5.3214,5.3214,5.3214,5.3214,5.3214,5.3214,5.3214,5.3214,5.3214,5.3214,5.3214,5.4179,5.4845,5.4473,5.473,5.4882,5.4473,5.4064,5.3654,5.3251,5.3214,5.3214,5.3214,5.3214,5.3214,5.3214,5.3214,5.3214,5.3214,5.3214,5.3044,5.2633,5.2283,5.194,5.1624,5.1279,5.0909,5.052,5.052,5.0363,5.0018,5.0018,5.0018,3.2005,3.5279,3.8843,4.353,4.5218,4.5915,4.6714,4.7526,4.8076,4.8076,4.8186,4.8301,4.8301,0.0,0.0,0.0,0.0,0.0,0.0,0.0,0.0,0.0,0.0,0.0,0.0,0.0,0.0,0.0,0.0,0.0,4.8301,4.8301,4.8301,4.8301,4.8301,4.8301,4.8301,4.8301,4.8301,4.8301,4.8355,4.8387,4.833,4.9047,4.9175,4.88,4.88,4.9055,4.9464,4.9059,4.9179,4.9626,4.9807,4.9819,4.9869,5.1283,5.1872,5.2129,5.2926,5.3214,5.3214,5.3214,5.3214,5.3214,5.3214,5.3214,5.3214,5.3214,5.3214,5.3214,5.3214,5.3214,5.3214,5.3214,5.3214,5.3214,5.3214,5.3214,5.3214,5.3214,5.4289,5.4955,5.4326,5.4179,5.4179,5.4179,5.3623,5.3214,5.3214,5.3214,5.3214,5.3214,5.3214,5.3214,5.3214,5.3214,5.3214,5.3214,5.3214,5.3214,5.3214,5.3214,5.2652,5.1504,5.1444,5.1387,5.1273,5.1273,5.1209,5.1099,5.1099,5.1099,2.9136,3.3984,3.9529,4.3672,4.4773,4.5067,4.5883,4.6682,4.7264,0.0,4.7815,4.8301,4.8301,0.0,0.0,0.0,0.0,0.0,0.0,0.0,0.0,0.0,0.0,0.0,0.0,0.0,0.0,0.0,0.0,0.0,4.8301,4.8301,4.8301,4.8301,4.8301,4.8301,4.8301,4.8301,4.8301,4.8306,4.8634,4.8649,4.832,4.877,4.8757,4.8364,4.8364,4.88,4.9464,4.9059,4.9352,4.9946,4.9307,4.9464,5.0127,5.0741,5.1394,5.2129,5.2926,5.3214,5.3214,5.3214,5.3214,5.3214,5.3214,5.3214,5.3214,5.3214,5.3214,5.3214,5.3214,5.3214,5.3214,5.3214,5.3214,5.3214,5.3214,5.3214,5.3214,5.3214,5.3361,5.3471,5.3398,5.3361,5.3361,5.3361,5.3287,5.3214,5.3214,5.3214,5.3214,5.3214,5.3214,5.3214,5.3214,5.3214,5.3214,5.3214,5.3214,5.3214,5.3214,5.3214,5.3103,5.2915,5.2915,5.2624,5.1982,5.1982,5.1661,5.1099,5.1099,5.1099,3.1188,3.5121,3.899,4.3024,4.4374,4.4773,4.5145,4.5838,4.6429,4.6429,4.7085,4.7783,0.0,0.0,0.0,0.0,0.0,0.0,0.0,0.0,0.0,0.0,0.0,0.0,0.0,0.0,0.0,0.0,0.0,4.8301,4.8301,4.7856,4.7631,4.7631,4.72,0.0,4.6943,4.7416,4.7856,4.8301,4.849,4.8481,4.8306,4.8495,4.8477,4.8301,4.8301,4.8635,4.9167,4.9218,4.9318,4.9423,4.9288,4.9197,4.9187,4.9863,5.0624,5.1426,5.2234,5.2816,5.3214,5.3214,5.3214,5.3214,5.3214,5.3214,5.3214,5.3214,5.3214,5.3214,5.3214,5.3214,5.3214,5.3214,5.3214,5.3214,5.3214,5.3214,5.3471,5.4363,5.4174,5.4174,5.5049,5.4467,5.388,5.388,5.3471,5.3214,5.3214,5.3214,5.3214,5.3214,5.3214,5.3214,5.3214,5.3214,5.3214,5.3214,5.3214,5.3214,5.3214,5.3214,5.3214,5.3214,5.3214,5.3055,5.2725,5.2725,5.2554,5.2266,5.2266,5.2266,3.1959,3.4688,3.6975,4.123,4.3057,4.3888,4.4301,4.5039,4.559,0.0,4.6241,4.6975,0.0,0.0,0.0,0.0,0.0,0.0,0.0,0.0,0.0,0.0,0.0,0.0,0.0,0.0,0.0,0.0,0.0,4.7897,4.7714,4.7122,4.6787,4.6787,4.6209,4.5883,4.5883,4.6498,4.7191,4.8003,4.8003,4.8113,4.8301,4.8301,4.8301,4.8301,4.8301,4.8518,4.8907,4.9222,4.9171,4.8916,4.9234,4.8928,4.8411,4.927,5.0115,5.0912,5.1725,5.2527,5.3214,5.3214,5.3214,5.3214,5.3214,5.3214,5.3214,5.3214,5.3214,5.3214,5.3214,5.3214,5.3214,5.3214,5.3214,5.3214,5.3214,5.3214,5.3623,5.5029,5.4808,5.484,5.6235,5.55,5.4698,5.4698,5.4032,5.3581,5.377,5.3623,5.3581,5.3807,5.3807,5.3807,5.3807,5.3623,5.3508,5.3508,5.3324,5.3214,5.3214,5.3214,5.3214,5.3214,5.3214,5.3214,5.3214,5.3214,5.3214,5.3214,5.3214,5.3214,2.84,3.05,3.2899,3.7734,4.0112,4.169,4.3208,4.4195,4.4773,4.4773,4.5402,0.0,0.0,0.0,0.0,0.0,0.0,0.0,0.0,0.0,0.0,0.0,0.0,0.0,0.0,0.0,0.0,0.0,0.0,4.6828,4.6071,4.5998,4.5957,4.5957,4.592,4.5883,4.5883,4.5957,4.6356,4.7149,4.7149,4.7558,4.8301,4.8301,4.8301,4.8301,4.8301,4.8518,4.8886,4.8907,4.8903,4.8886,4.8907,4.8652,4.8411,4.927,5.0115,5.0912,5.1725,5.2527,5.3214,5.3214,5.3214,5.3214,5.3214,5.3214,5.3214,5.3214,5.3214,5.3214,5.3214,5.3214,5.3214,5.3214,5.3214,5.3214,5.3214,5.3214,5.3434,5.4289,5.4436,5.4656,5.5511,5.5585,5.5548,5.5548,5.4845,5.462,5.5365,5.4808,5.462,5.5401,5.5475,5.5475,5.5475,5.4766,5.4326,5.4326,5.3623,5.3214,5.3214,5.3214,5.3214,5.3214,5.3214,5.3214,5.3214,5.3214,5.3214,5.3214,5.3214,5.3214,2.7344,2.9029,3.0901,3.5224,3.7943,3.9859,4.0936,4.2621,4.3942,4.3942,4.4557,0.0,0.0,0.0,0.0,0.0,0.0,0.0,0.0,0.0,0.0,0.0,0.0,0.0,0.0,0.0,0.0,0.0,0.0,0.0,4.592,4.5402,4.5145,4.5145,4.464,4.4599,4.5108,4.5145,4.5548,4.6356,4.686,4.7259,4.7558,4.8076,4.8301,4.8301,4.8301,4.8369,4.8522,4.8796,4.8744,4.8532,4.8805,4.8634,4.8338,4.8636,4.9627,5.0839,5.1132,5.2082,5.3214,5.3214,5.3214,5.3214,5.3214,5.3214,5.3214,5.3214,5.3214,5.3214,5.3214,5.3214,5.3214,5.3214,5.3214,5.3214,5.3214,5.3618,5.421,5.4992,5.5574,5.6198,5.7011,5.6717,5.6381,5.6381,5.569,5.5254,5.5548,5.5365,5.5291,5.5585,5.5585,5.5585,5.5585,5.5328,5.4955,5.4436,5.4142,5.3733,5.3214,5.3214,5.3214,5.3214,5.3214,5.3214,5.3214,5.3214,5.3214,5.3214,5.3214,5.3214,2.581,2.7275,2.9246,3.3537,3.5632,3.7364,4.0088,4.1523,4.2441,4.2992,4.3759,0.0,0.0,0.0,0.0,0.0,0.0,0.0,0.0,0.0,0.0,0.0,0.0,0.0,0.0,0.0,0.0,0.0,0.0,0.0,4.5117,4.4599,4.4305,4.4305,4.3795,4.3759,4.4301,4.4305,4.4704,4.5512,4.6058,4.6567,4.7113,4.7631,4.8039,4.8301,4.8301,4.8301,4.8325,4.8591,4.8532,4.8335,4.8595,4.8522,4.8301,4.8301,4.9366,5.0797,5.0797,5.1856,5.3214,5.3214,5.3214,5.3214,5.3214,5.3214,5.3214,5.3214,5.3214,5.3214,5.3214,5.3214,5.3214,5.3214,5.3214,5.3214,5.3214,5.3843,5.462,5.5438,5.6235,5.7073,5.7855,5.7556,5.7183,5.7183,5.6528,5.6093,5.6356,5.6167,5.6093,5.6393,5.6393,5.6393,5.6393,5.6167,5.5653,5.4845,5.4546,5.4027,5.3214,5.3214,5.3214,5.3214,5.3214,5.3214,5.3214,5.3214,5.3214,5.3214,5.3214,5.3214,0.0,0.0,0.0,3.2349,3.3013,3.4154,4.0512,0.0,4.0202,4.1882,4.2841,0.0,0.0,0.0,0.0,0.0,0.0,0.0,0.0,0.0,0.0,0.0,0.0,0.0,0.0,0.0,0.0,0.0,0.0,4.4301,4.3543,4.3506,4.3506,4.3506,4.3506,4.3506,4.3506,4.3506,4.3906,4.4659,4.47,4.5503,4.7039,4.7039,4.7484,4.826,4.826,4.8264,4.8301,4.8301,4.8301,4.8301,4.8301,4.8301,4.8301,4.8301,4.9366,5.0797,5.0797,5.1856,5.3214,5.3214,5.3214,5.3214,5.3214,5.3214,5.3214,5.3214,5.3214,5.3214,5.3214,5.3214,5.3214,5.3214,5.3214,5.3214,5.3214,5.3843,5.4656,5.5438,5.6271,5.7073,5.7886,5.8002,5.8002,5.8002,5.733,5.711,5.7886,5.7336,5.7147,5.7929,5.8002,5.8002,5.8002,5.7293,5.6486,5.5658,5.4876,5.41,5.3251,5.323,5.3235,5.3235,5.322,5.3225,5.3225,5.3193,5.3214,5.3214,5.3214,5.3214,2.2454,0.0,0.0,0.0,0.0,0.0,0.0,0.0,3.6453,3.9867,4.0271,0.0,0.0,0.0,0.0,0.0,0.0,0.0,0.0,0.0,0.0,0.0,0.0,0.0,0.0,0.0,0.0,0.0,4.3832,4.3722,4.351,4.3506,4.3506,4.3506,4.3506,4.3506,4.3506,4.3506,4.3616,4.3832,4.4411,4.4916,4.5393,4.5989,4.6682,4.7448,4.7448,4.7746,4.8301,4.8301,4.8301,4.8301,4.8301,4.8301,4.8301,4.8301,4.9366,5.0797,5.0797,5.1856,5.3214,5.3214,5.3214,5.3214,5.3214,5.3214,5.3214,5.3214,5.3214,5.3214,5.3214,5.3214,5.3214,5.3214,5.3214,5.3214,5.3214,5.4289,5.5328,5.5548,5.6717,5.774,5.796,5.8002,5.8002,5.8002,5.7813,5.774,5.7966,5.7813,5.774,5.7966,5.8002,5.8002,5.8002,5.7813,5.7085,5.5695,5.5941,5.5238,5.3287,5.4038,5.4241,5.3648,5.3974,5.4151,5.4151,5.3494,5.3214,5.3214,5.3214,5.3214,2.2928,2.3224,2.4134,2.6099,0.0,0.0,3.1813,3.2993,0.0,0.0,3.9276,0.0,0.0,0.0,0.0,0.0,0.0,0.0,0.0,0.0,0.0,0.0,0.0,0.0,0.0,0.0,0.0,0.0,4.3506,4.3506,4.3506,4.3506,4.3506,4.3506,4.3506,4.3506,4.3506,4.3506,4.3506,4.351,4.3979,4.4374,4.4737,4.5181,4.6021,4.7113,4.7113,4.7558,4.8301,4.8301,4.8301,4.8301,4.8301,4.8301,4.8301,4.8301,4.9366,5.0797,5.0797,5.1856,5.3214,5.3214,5.3214,5.3214,5.3214,5.3214,5.3214,5.3214,5.3214,5.3214,5.3214,5.3214,5.3214,5.3214,5.3214,5.3214,5.3214,5.4216,5.5212,5.5548,5.6901,5.8002,5.8002,5.8002,5.8002,5.8002,5.7703,5.7629,5.796,5.7703,5.7629,5.796,5.8002,5.7855,5.7519,5.7483,5.6822,5.5212,5.5718,5.5285,5.3523,5.4317,5.457,5.4092,5.4355,5.4484,5.4484,5.3988,5.3629,5.3444,5.3444,5.3359,2.4438,2.4377,2.5309,2.833,2.7212,0.0,3.2581,3.2926,3.314,0.0,0.0,0.0,0.0,0.0,0.0,0.0,0.0,0.0,0.0,0.0,0.0,0.0,0.0,0.0,0.0,4.3506,4.3506,4.3506,4.3506,4.3506,4.3506,4.3506,4.3506,4.3506,4.3506,4.3506,4.3506,4.3506,4.3506,4.3506,4.3506,4.3869,4.4557,4.4557,4.5434,4.6971,4.6971,4.7484,4.8301,4.8301,4.8301,4.8301,4.8301,4.8301,4.8301,4.8301,4.9366,5.0797,5.0797,5.1856,5.3214,5.3214,5.3214,5.3214,5.3214,5.3214,5.3214,5.3214,5.3214,5.3214,5.3214,5.3214,5.3214,5.3214,5.3214,5.3214,5.3214,5.3843,5.462,5.5328,5.6681,5.7745,5.7745,5.7819,5.7855,5.7745,5.7183,5.7036,5.7635,5.7116,5.6926,5.7672,5.7745,5.7446,5.6743,5.6669,5.6009,5.4509,5.4817,5.4664,5.3777,5.4296,5.4597,5.4484,5.4579,5.4625,5.4625,5.4532,5.428,5.3869,5.3869,5.3705,2.6213,2.6177,2.6165,2.5933,0.0,0.0,2.7076,2.7851,2.9332,0.0,3.1451,0.0,0.0,0.0,0.0,0.0,0.0,0.0,0.0,0.0,0.0,0.0,0.0,0.0,0.0,4.3506,4.3506,4.3506,4.3506,4.3506,4.3506,4.3506,4.3506,4.3506,4.3506,4.3506,4.3506,4.3506,4.3506,4.3506,4.3506,4.3579,4.3722,4.3722,4.4599,4.6136,4.6136,4.6943,4.8301,4.8301,4.8301,4.8301,4.8301,4.8301,4.8301,4.8301,4.9366,5.0797,5.0797,5.1856,5.3214,5.3214,5.3214,5.3214,5.3214,5.3214,5.3214,5.3214,5.3214,5.3214,5.3214,5.3214,5.3214,5.3214,5.3214,5.3214,5.3214,5.3843,5.4436,5.4583,5.5396,5.6062,5.6062,5.6602,5.6816,5.6167,5.6492,5.6633,5.6136,5.5915,5.5873,5.6062,5.6062,5.5989,5.5842,5.5836,5.5433,5.4473,5.5095,5.4822,5.3376,5.4717,5.5155,5.4522,5.514,5.5455,5.5455,5.4808,5.444,5.4355,5.4355,5.4309,2.7207,2.6962,2.725,2.7214,0.0,0.0,0.0,2.7067,2.7812,3.0766,3.0424,3.0568,3.38,0.0,0.0,0.0,0.0,0.0,0.0,0.0,0.0,0.0,0.0,0.0,0.0,4.3506,4.3506,4.3506,4.3506,4.3506,4.3506,4.3506,4.3506,4.3506,4.3506,4.3506,4.3506,4.3506,4.3506,4.3506,4.3506,4.3506,4.3506,4.3906,4.4745,4.592,4.6319,4.7195,4.8301,4.8301,4.8301,4.8301,4.8301,4.8301,4.8301,4.8301,4.9366,5.0797,5.0797,5.1856,5.3214,5.3214,5.3214,5.3214,5.3214,5.3214,5.3214,5.3214,5.3214,5.3214,5.3214,5.3214,5.3214,5.3214,5.3214,5.3214,5.3214,5.3508,5.3807,5.3807,5.4142,5.4656,5.5475,5.5946,5.6057,5.5658,5.5611,5.5611,5.5585,5.5254,5.5144,5.5548,5.5585,5.5438,5.5029,5.4992,5.4656,5.3843,5.4364,5.4447,5.3851,5.4867,5.5291,5.5107,5.5479,5.5706,5.5706,5.5316,5.5016,5.4793,5.4793,5.4686,0.0,0.0,2.9132,0.0,0.0,2.6848,0.0,0.0,0.0,0.0,0.0,0.0,0.0,0.0,0.0,0.0,0.0,0.0,0.0,0.0,0.0,0.0,0.0,0.0,0.0,4.2772,4.2845,4.3437,4.2919,4.2845,4.3469,4.3506,4.3506,4.3506,4.3506,4.3506,4.3506,4.3506,4.3506,4.3506,4.3506,4.3506,4.3547,4.4337,4.5145,4.5957,4.6755,4.7558,4.8301,4.8301,4.8301,4.8301,4.8301,4.8301,4.8301,4.8301,4.9366,5.0797,5.0797,5.1856,5.3214,5.3214,5.3214,5.3214,5.3214,5.3214,5.3214,5.3214,5.3214,5.3214,5.3214,5.3214,5.3214,5.3214,5.3214,5.3214,5.3214,5.3214,5.3214,5.3214,5.3214,5.3618,5.4919,5.5254,5.5322,5.5144,5.473,5.4583,5.5065,5.4583,5.4436,5.5065,5.5139,5.4882,5.4216,5.4179,5.388,5.3251,5.3519,5.386,5.4213,5.4723,5.5205,5.57,5.5706,5.5706,5.5706,5.5706,5.5546,5.5212,5.5212,5.506,0.0,0.0,0.0,0.0,3.0798,0.0,0.0,0.0,0.0,2.5044,0.0,0.0,0.0,0.0,0.0,0.0,0.0,0.0,0.0,0.0,0.0,0.0,0.0,0.0,0.0,0.0,0.0,4.329,4.0859,4.0491,4.3359,4.3506,4.3506,4.3506,4.3506,4.3506,4.3506,4.3506,4.3506,4.3506,4.3506,4.3506,4.3547,4.4337,4.5145,4.5957,4.6755,4.7558,4.8301,4.8301,4.8301,4.8301,4.8301,4.8301,4.8301,4.8301,4.9366,5.0797,5.0797,5.1856,5.3214,5.3214,5.3214,5.3214,5.3214,5.3214,5.3214,5.3214,5.3214,5.3214,5.3214,5.3214,5.3214,5.3214,5.3214,5.3214,5.3214,5.3214,5.3214,5.3214,5.3214,5.3251,5.3434,5.4064,5.4289,5.3581,5.399,5.4174,5.3544,5.3398,5.3361,5.3471,5.3471,5.3434,5.3324,5.3324,5.3287,5.3214,5.3235,5.3298,5.3365,5.4147,5.4912,5.5695,5.5706,5.5706,5.5706,5.5706,5.569,5.5618,5.5618,5.5602,0.0,0.0,0.0,0.0,0.0,0.0,2.5765,0.0,2.4645,0.0,0.0,0.0,0.0,0.0,0.0,0.0,0.0,0.0,0.0,0.0,0.0,0.0,0.0,0.0,0.0,0.0,0.0,0.0,0.0,3.9896,4.2657,4.3249,4.3506,4.3506,4.3506,4.3506,4.3506,4.3506,4.3506,4.3506,4.3506,4.3506,4.3543,4.4819,4.559,4.5957,4.7232,4.8003,4.8301,4.8301,4.8301,4.8301,4.8301,4.8301,4.8301,4.8301,4.9366,5.0797,5.0797,5.1856,5.3214,5.3214,5.3214,5.3214,5.3214,5.3214,5.3214,5.3214,5.3214,5.3214,5.3214,5.3214,5.3214,5.3214,5.3214,5.3214,5.3214,5.3214,5.3214,5.3214,5.3214,5.3214,5.3214,5.3471,5.3581,5.3251,5.3471,5.3581,5.3251,5.3214,5.3214,5.3214,5.3214,5.3214,5.3214,5.3214,5.3214,5.3214,5.3404,5.3677,5.3934,5.4532,5.5127,5.5698,5.5706,5.5706,5.5706,5.5706,5.5706,5.5706,5.5706,5.5706,3.4347,0.0,0.0,0.0,0.0,0.0,0.0,0.0,0.0,0.0,0.0,0.0,0.0,0.0,0.0,0.0,0.0,0.0,0.0,0.0,0.0,0.0,0.0,0.0,0.0,0.0,0.0,0.0,0.0,0.0,4.2103,4.2841,4.3286,4.3506,4.3506,4.3506,4.3506,4.3506,4.3506,4.3506,4.3506,4.3506,4.3543,4.5154,4.5883,4.5998,4.7604,4.8301,4.8301,4.8301,4.8301,4.8301,4.8301,4.8301,4.8301,4.8301,4.9366,5.0797,5.0797,5.1856,5.3214,5.3214,5.3214,5.3214,5.3214,5.3214,5.3214,5.3214,5.3214,5.3214,5.3214,5.3214,5.3214,5.3214,5.3214,5.3214,5.3214,5.3214,5.3214,5.3214,5.3214,5.3214,5.3214,5.3214,5.3214,5.3214,5.3214,5.3214,5.3214,5.3214,5.3214,5.3214,5.3214,5.3214,5.3214,5.3214,5.3214,5.3214,5.3479,5.3842,5.4284,5.4716,5.5134,5.554,5.5629,5.5706,5.5706,5.5706,5.5706,5.5706,5.5706,5.5706,0.0,0.0,0.0,3.1591,0.0,0.0,0.0,0.0,2.6669,0.0,0.0,0.0,0.0,0.0,2.8827,2.6917,0.0,0.0,0.0,0.0,0.0,0.0,0.0,0.0,0.0,0.0,0.0,0.0,0.0,0.0,4.1952,4.2319,4.2694,4.3474,4.3506,4.3506,4.3506,4.3506,4.3506,4.3506,4.3506,4.3506,4.3543,4.5154,4.5883,4.5998,4.7604,4.8301,4.8301,4.8301,4.8301,4.8301,4.8301,4.8301,4.8301,4.8301,4.9366,5.0797,5.0797,5.1856,5.3214,5.3214,5.3214,5.3214,5.3214,5.3214,5.3214,5.3214,5.3214,5.3214,5.3214,5.3214,5.3214,5.3214,5.3214,5.3214,5.3214,5.3214,5.3214,5.3214,5.3214,5.3214,5.3214,5.3214,5.3214,5.3214,5.3214,5.3214,5.3214,5.3214,5.3214,5.3214,5.3214,5.3214,5.3214,5.3214,5.3214,5.3214,5.3193,5.3415,5.3828,5.4267,5.4701,5.5121,5.5484,5.5706,5.5706,5.5706,5.5706,5.5706,5.5706,5.5706,0.0,0.0,3.803,3.3998,0.0,0.0,0.0,0.0,0.0,0.0,0.0,0.0,0.0,0.0,2.8139,2.7109,2.6967,0.0,0.0,0.0,0.0,0.0,0.0,0.0,0.0,0.0,0.0,0.0,0.0,0.0,0.0,4.2025,4.2657,4.3469,4.3506,4.3506,4.3506,4.3506,4.3506,4.3506,4.3506,4.3506,4.3543,4.5154,4.5883,4.5998,4.7604,4.8301,4.8301,4.8301,4.8301,4.8301,4.8301,4.8301,4.8301,4.8301,4.9366,5.0944,5.2003,5.2737,5.3214,5.3214,5.3214,5.3214,5.3214,5.3214,5.3214,5.3214,5.3214,5.3214,5.3214,5.3214,5.3214,5.3214,5.3214,5.3214,5.3214,5.3214,5.3214,5.3214,5.3214,5.3214,5.3214,5.3214,5.3214,5.3214,5.3214,5.3214,5.3214,5.3214,5.3214,5.3214,5.3214,5.3214,5.3214,5.3214,5.3214,5.3214,5.3214,5.339,5.3763,5.3946,5.4354,5.5101,5.5224,5.5432,5.5706,5.5706,5.5706,5.5706,5.5706,5.5706,3.906,3.9614,0.0,0.0,3.4246,0.0,2.8725,0.0,0.0,0.0,0.0,0.0,0.0,0.0,2.8776,2.8407,2.7493,2.6376,0.0,2.497,0.0,0.0,0.0,0.0,0.0,0.0,2.9873,3.4237,0.0,0.0,0.0,0.0,4.2249,4.3061,4.3359,4.3506,4.3506,4.3506,4.3506,4.3506,4.3506,4.3653,4.3979,4.5301,4.6067,4.6393,4.7714,4.8301,4.8301,4.8301,4.8301,4.8301,4.8301,4.8301,4.8301,4.8301,4.9366,5.1017,5.2627,5.3214,5.3214,5.3214,5.3214,5.3214,5.3214,5.3214,5.3214,5.3214,5.3214,5.3214,5.3214,5.3214,5.3214,5.3214,5.3214,5.3214,5.3214,5.3214,5.3214,5.3214,5.3214,5.3214,5.3214,5.3214,5.3214,5.3214,5.3214,5.3214,5.3214,5.3214,5.3214,5.3214,5.3214,5.3214,5.3214,5.3214,5.3214,5.3214,5.3214,5.3303,5.3575,5.373,5.4157,5.4862,5.5047,5.5437,5.617,5.5862,5.5862,5.6132,5.5824,5.5613]},{"header":{"parameterUnit":"m.s-1","parameterCategory":1,"la1":30.6,"la2":29.2853,"lo1":-89.7004,"lo2":-87.6739,"dy":0.0162,"dx":0.0183,"nx":112,"ny":82,"refTime":"2025-01-09T06:00:00:Z","depth":0,"parameterNumber":3,"parameterNumberName":"V-component_of_WINDS"},"data":[0.0,0.0,0.0,0.0,0.0,0.0,0.0,0.0,0.0,0.0,0.0,0.0,0.0,0.0,0.0,0.0,0.0,0.0,0.0,0.0,0.0,0.0,0.0,0.0,0.0,0.0,0.0,0.0,0.0,0.0,0.0,0.0,0.0,0.0,0.0,0.0,0.0,0.0,0.0,0.0,0.0,0.0,0.0,0.0,0.0,0.0,0.0,0.0,0.0,0.0,0.0,0.0,0.0,0.0,0.0,0.0,0.0,0.0,0.0,0.0,0.0,0.0,0.0,0.0,0.0,0.0,0.0,0.0,0.0,0.0,0.0,0.0,0.0,0.0,0.0,0.0,0.0,0.0,0.0,0.0,0.0,0.0,0.0,0.0,0.0,0.0,0.0,0.0,0.0,0.0,0.4321,0.4721,0.5145,0.5336,0.516,0.5097,0.5344,0.5991,0.0,0.0,0.0,0.0,0.0,0.0,0.0,0.0,0.0,0.0,0.0,0.0,0.0,0.0,0.0,0.0,0.0,0.0,0.0,0.0,0.0,0.0,0.0,0.0,0.0,0.0,0.0,0.0,0.0,0.0,0.0,0.0,0.0,0.0,0.0,0.0,0.0,0.0,0.0,0.0,0.0,0.0,0.0,0.0,0.0,0.0,0.0,0.0,0.0,0.0,0.0,0.0,0.0,0.0,0.0,0.0,0.0,0.0,0.0,0.0,0.0,0.0,0.0,0.0,0.0,0.0,0.0,0.0,0.0,0.0,0.0,0.0,0.0,0.0,0.0,0.0,0.0,0.0,0.0,0.0,0.0,0.0,0.0,0.0,0.0,0.0,0.0,0.0,0.0,0.0,0.0,0.0,0.0,0.0,0.0,0.0,0.0,0.0,0.0,0.0,0.0,0.0,0.0,0.0,0.4287,0.4969,0.526,0.5385,0.5358,0.5094,0.5284,0.6115,0.0,0.0,0.0,0.0,0.0,0.0,0.0,0.0,0.0,0.0,0.0,0.0,0.0,0.0,0.0,0.0,0.0,0.0,0.0,0.0,0.0,0.0,0.0,0.0,0.0,0.0,0.0,0.0,0.0,0.0,0.0,0.0,0.0,0.0,0.0,0.0,0.0,0.0,0.0,0.0,0.0,0.0,0.0,0.0,0.0,0.0,0.0,0.0,0.0,0.0,0.0,0.0,0.0,0.0,0.0,0.0,0.0,0.0,0.0,0.0,0.0,0.0,0.0,0.0,0.0,0.0,0.0,0.0,0.0,0.0,0.0,0.0,0.0,0.0,0.0,0.0,0.0,0.0,0.0,0.0,0.0,0.0,0.0,0.0,0.0,0.0,0.0,0.0,0.0,0.0,0.0,0.0,0.0,0.0,0.0,0.0,0.0,0.0,0.0,0.0,0.0,0.0,0.0,0.4246,0.4606,0.5204,0.5343,0.54,0.54,0.5095,0.5269,0.6148,0.5437,0.0,0.0,0.0,0.0,0.0,0.0,0.0,0.0,0.0,0.0,0.0,0.0,0.0,0.0,0.0,0.0,0.0,0.0,0.0,0.0,0.0,0.0,0.0,0.0,0.0,0.0,0.0,0.0,0.0,0.0,0.0,0.0,0.0,0.0,0.0,0.0,0.0,0.0,0.0,0.0,0.0,0.0,0.0,0.0,0.0,0.0,0.0,0.0,0.0,0.0,0.0,0.0,0.0,0.0,0.0,0.0,0.0,0.0,0.0,0.0,0.0,0.0,0.0,0.0,0.0,0.0,0.0,0.0,0.0,0.0,0.0,0.0,0.0,0.0,0.0,0.0,0.0,0.0,0.0,0.0,0.0,0.0,0.0,0.0,0.0,0.0,0.0,0.0,0.0,0.0,0.0,0.0,0.0,0.0,0.0,0.0,0.0,0.0,0.0,0.0,0.0,0.0,0.4735,0.4946,0.5351,0.54,0.54,0.54,0.5194,0.5393,0.6146,0.5471,0.0,0.0,0.0,0.0,0.0,0.0,0.0,0.0,0.0,0.0,0.0,0.0,0.0,0.0,0.0,0.0,0.0,0.0,0.0,0.0,0.0,0.0,0.0,0.0,0.0,0.0,0.0,0.0,0.0,0.0,0.0,0.0,0.0,0.0,0.0,0.0,0.0,0.0,0.0,0.0,0.0,0.0,0.0,0.0,0.0,0.0,0.0,0.0,0.0,0.0,0.0,0.0,0.0,0.0,0.0,0.0,0.0,0.0,0.0,0.0,0.0,0.0,0.0,0.0,0.0,0.0,0.0,0.0,0.0,0.0,0.0,0.0,0.0,0.0,0.0,0.0,0.0,0.0,0.0,0.0,0.0,0.0,0.0,0.0,0.0,0.0,0.0,0.0,0.0,0.0,0.0,0.0,0.0,0.0,0.0,0.0,0.0,0.0,0.0,0.0,0.0,0.0,0.4843,0.5161,0.5378,0.54,0.54,0.54,0.5494,0.5739,0.6171,0.5732,0.0,0.0,0.0,0.0,0.0,0.0,0.0,0.0,0.0,0.0,0.0,0.0,0.0,0.0,0.0,0.0,0.0,0.0,0.0,0.0,0.0,0.0,0.0,0.0,0.0,0.0,0.0,0.0,0.0,0.0,0.0,0.0,0.0,0.0,0.0,0.0,0.0,0.0,0.0,0.0,0.0,0.0,0.0,0.0,0.0,0.0,0.0,0.0,0.0,0.0,0.0,0.0,0.0,0.0,0.0,0.0,0.0,0.0,0.0,0.0,0.0,0.0,0.0,0.0,0.0,0.0,0.0,0.0,0.0,0.0,0.0,0.0,0.0,0.0,0.0,0.0,0.0,0.0,0.0,0.0,0.0,0.0,0.0,0.0,0.0,0.0,0.0,0.0,0.0,0.0,0.0,0.0,0.0,0.0,0.0,0.0,0.0,0.0,0.0,0.0,0.0,0.0,0.506,0.5181,0.0,0.5472,0.5493,0.5405,0.567,0.5957,0.618,0.0,0.0,0.0,0.0,0.0,0.0,0.0,0.0,0.0,0.0,0.0,0.0,0.0,0.0,0.0,0.0,0.0,0.0,0.0,0.0,0.0,0.0,0.0,0.0,0.0,0.0,0.0,0.0,0.0,0.0,0.0,0.0,0.0,0.0,0.0,0.0,0.0,0.0,0.0,0.0,0.0,0.0,0.0,0.0,0.0,0.0,0.0,0.0,0.0,0.0,0.0,0.0,0.0,0.0,0.0,0.0,0.0,0.0,0.0,0.0,0.0,0.0,0.0,0.0,0.0,0.0,0.0,0.0,0.0,0.0,0.0,0.0,0.0,0.0,0.0,0.0,0.0,0.0,0.0,0.0,0.0,0.0,0.0,0.0,0.0,0.0,0.0,0.0,0.0,0.0,0.0,0.0,0.0,0.0,0.0,0.0,0.0,0.0,0.0,0.0,0.0,0.0,0.5381,0.537,0.5323,0.0,0.5814,0.5978,0.5886,0.6322,0.6606,0.6615,0.0,0.0,0.0,0.0,0.0,0.0,0.0,0.0,0.0,0.0,0.0,0.0,0.0,0.0,0.0,0.0,0.0,0.0,0.0,0.0,0.0,0.0,0.0,0.0,0.0,0.0,0.0,0.0,0.0,0.0,0.0,0.0,0.0,0.0,0.0,0.0,0.0,0.0,0.0,0.0,0.0,0.0,0.0,0.0,0.0,0.0,0.0,0.0,0.0,0.0,0.0,0.0,0.0,0.0,0.0,0.0,0.0,0.0,0.0,0.0,0.0,0.0,0.0,0.0,0.0,0.0,0.0,0.0,0.0,0.0,0.0,0.0,0.0,0.0,0.0,0.0,0.0,0.0,0.0,0.0,0.0,0.0,0.0,0.0,0.0,0.0,0.0,0.0,0.0,0.0,0.0,0.0,0.0,0.0,0.0,0.0,0.0,0.0,0.0,0.0,0.0,0.0,0.5901,0.578,0.567,0.5804,0.6478,0.6924,0.6924,0.7525,0.7782,0.0,0.0,0.0,0.0,0.0,0.0,0.0,0.0,0.0,0.0,0.0,0.0,0.0,0.0,0.0,0.0,0.0,0.0,0.0,0.0,0.0,0.0,0.0,0.0,0.0,0.0,0.0,0.0,0.0,0.0,0.0,0.0,0.0,0.0,0.0,0.0,0.0,0.0,0.0,0.0,0.0,0.0,0.0,0.0,0.0,0.0,0.0,0.0,0.0,0.0,0.0,0.0,0.0,0.0,0.0,0.0,0.0,0.0,0.0,0.0,0.0,0.0,0.0,0.0,0.0,0.0,0.0,0.0,0.0,0.0,0.0,0.0,0.0,0.0,0.0,0.0,0.0,0.0,0.0,0.0,0.0,0.0,0.0,0.0,0.0,0.0,0.0,0.0,0.0,0.0,0.0,0.0,0.0,0.0,0.0,0.0,0.0,0.0,0.0,0.0,0.0,0.0,0.0,0.6467,0.6729,0.6809,0.6857,0.7601,0.8057,0.7962,0.8138,0.8041,0.7528,0.0,0.0,0.0,0.0,0.0,0.0,0.0,0.0,0.0,0.0,0.0,0.0,0.0,0.0,0.0,0.0,0.0,0.0,0.0,0.0,0.0,0.0,0.0,0.0,0.0,0.0,0.0,0.0,0.0,0.0,0.0,0.0,0.0,0.0,0.0,0.0,0.0,0.0,0.0,0.0,0.0,0.0,0.0,0.0,0.0,0.0,0.0,0.0,0.0,0.0,0.0,0.0,0.0,0.0,0.0,0.0,0.0,0.0,0.0,0.0,0.0,0.0,0.0,0.0,0.0,0.0,0.0,0.0,0.0,0.0,0.0,0.0,0.0,0.0,0.0,0.0,0.0,0.0,0.0,0.0,0.0,0.0,0.0,0.0,0.0,0.0,0.0,0.0,0.0,0.0,0.0,0.0,0.0,0.0,0.0,0.0,0.0,0.0,0.0,0.0,0.0,0.0,0.7496,0.7486,0.7512,0.8043,0.8707,0.9085,0.9005,0.8947,0.8711,0.8207,0.0,0.0,0.0,0.0,0.0,0.0,0.0,0.0,0.0,0.0,0.0,0.0,0.0,0.0,0.0,0.0,0.0,0.0,0.0,0.0,0.0,0.0,0.0,0.0,0.0,0.0,0.0,0.0,0.0,0.0,0.0,0.0,0.0,0.0,0.0,0.0,0.0,0.0,0.0,0.0,0.0,0.0,0.0,0.0,0.0,0.0,0.0,0.0,0.0,0.0,0.0,0.0,0.0,0.0,0.0,0.0,0.0,0.0,0.0,0.0,0.0,0.0,0.0,0.0,0.0,0.0,0.0,0.0,0.0,0.0,0.0,0.0,0.0,0.0,0.0,0.0,0.0,0.0,0.0,0.0,0.0,0.0,0.0,0.0,0.0,0.0,0.0,0.0,0.0,0.0,0.0,0.0,0.0,0.0,0.0,0.0,0.0,0.0,0.0,0.0,0.0,0.0,0.8692,0.8154,0.8051,0.9307,0.9828,1.0069,1.0037,0.9886,0.9619,0.9224,0.0,0.0,0.0,0.0,0.0,0.0,0.0,0.0,0.0,0.0,0.0,0.0,0.0,0.0,0.0,0.0,0.0,0.0,0.0,0.0,0.0,0.0,0.0,0.0,0.0,0.0,0.0,0.0,0.0,0.0,0.0,0.0,0.0,0.0,0.0,0.0,0.0,0.0,0.0,0.0,0.0,0.0,0.0,0.0,0.0,0.0,0.0,0.0,0.0,0.0,0.0,0.0,0.0,0.0,0.0,0.0,0.0,0.0,0.0,0.0,0.0,0.0,0.0,0.0,0.0,0.0,0.0,0.0,0.0,0.0,0.0,0.0,0.0,0.0,0.0,0.0,0.0,0.0,0.0,0.0,0.0,0.0,0.0,0.0,0.0,0.0,0.0,0.0,0.0,0.0,0.0,0.0,0.0,0.0,0.0,0.0,0.0,0.0,0.0,0.0,0.0,0.0,0.877,0.9299,0.9759,1.0411,1.1088,1.1366,1.1101,1.0663,1.0062,0.925,0.8266,0.0,0.0,0.0,0.0,0.0,0.0,0.0,0.0,0.0,0.0,0.0,0.0,0.0,0.0,0.0,0.0,0.0,0.0,0.0,0.0,0.0,0.0,0.0,0.0,0.0,0.0,0.0,0.0,0.0,0.0,0.0,0.0,0.0,0.0,0.0,0.0,0.0,0.0,0.0,0.0,0.0,0.0,0.0,0.0,0.0,0.0,0.0,0.0,0.0,0.0,0.0,0.0,0.0,0.0,0.0,0.0,0.0,0.0,0.0,0.0,0.0888,0.0,0.0,0.0,0.0,0.0,0.0,0.0,0.0,0.0,0.0,0.0,0.0,0.0,0.0,0.0,0.0,0.0,0.0,0.0,0.0,0.0,0.0,0.0,0.0,0.0,0.0,0.0,0.0,0.0,0.0,0.0,0.0,0.0,0.0,0.0,0.0,0.0,0.0,0.0,0.0,0.9531,1.01,1.0641,1.1446,1.1757,1.1837,1.1659,1.1007,1.0399,0.99,0.8791,0.0,0.0,0.0,0.0,0.0,0.0,0.0,0.0,0.0,0.0,0.0,0.0,0.0,0.0,0.0,0.0,0.0,0.0,0.0,0.0,0.0,0.0,0.0,0.0,0.0,0.0,0.0,0.0,0.0,0.0,0.0,0.0,0.0,0.0,0.0,0.0,0.0,0.0,0.0,0.0,0.0,0.0,0.0,0.0,0.0,0.0,0.0,0.0,0.0,0.0,0.0,0.0,0.0,0.0,0.0491,0.1393,0.14,0.3283,0.6364,0.2848,0.1217,0.1236,0.0,0.0,0.0,0.0,0.0,0.0,0.0,0.0,0.0,0.0,0.0,0.0,0.0,0.0,0.0,0.0,0.0,0.0,0.0,0.0,0.0,0.0,0.0,0.0,0.0,0.5415,0.5395,0.0,0.0,0.0,0.0,0.0,0.0,0.0,0.0,0.0,0.0,0.0,0.0,1.0425,1.0754,1.1214,1.2182,1.21,1.1944,1.1904,1.1243,1.0768,1.0607,0.9454,0.8584,0.0,0.0,0.0,0.0,0.0,0.0,0.0,0.0,0.0,0.0,0.0,0.0,0.0,0.0,0.0,0.0,0.0,0.0,0.0,0.0,0.0,0.0,0.0,0.0,0.0,0.0,0.0,0.0,0.0,0.0,0.0,0.0,0.0,0.0,0.0,0.0,0.0,0.0,0.0,0.0,0.0,0.0,0.0,0.0,0.0,0.0,0.0,0.0,0.0,0.0,0.0,0.0,0.0,0.2437,0.6949,0.6943,0.6014,0.4489,0.5965,0.0,0.5218,0.5261,0.0,0.0,0.0,0.0,0.0,0.0,0.0,0.0,0.0,0.0,0.0,0.0,0.0,0.0,0.0,0.0,0.0,0.0,0.0,0.0,0.0,0.0,0.6031,0.591,0.604,0.639,0.0,0.6197,0.5461,0.6367,0.0,0.0,0.0,0.0,0.0,0.0,0.0,0.0,1.0782,1.1399,1.1885,1.2269,1.2265,1.2153,1.1917,1.1783,1.1404,1.0648,1.042,0.9928,0.9057,0.847,0.0,0.0,0.0,0.0,0.0,0.0,0.0,0.0,0.0,0.0,0.0,0.0,0.0,0.0,0.0,0.0,0.0,0.0,0.0,0.0,0.0,0.0,0.0,0.0,0.0,0.0,0.0,0.0,0.0,0.0,0.0,0.0,0.0,0.0,0.0,0.0,0.0,0.0,0.0,0.0,0.0,0.0,0.0,0.0,0.0,0.0,0.0,0.2985,0.4493,0.4474,0.297,0.3479,0.5803,0.7319,0.7298,0.6133,0.7198,0.7331,0.6746,0.6275,0.5924,0.5655,0.0,0.0,0.0,0.0,0.0,0.5466,0.5711,0.5754,0.0,0.0,0.0,0.0,0.0,0.0,0.0,0.0,0.0,0.0,0.0,0.0,0.0,0.7342,0.7935,0.8423,0.8188,0.7997,0.7975,0.0,0.8023,0.7773,0.7788,0.0,0.0,0.0,0.0,1.0287,1.1121,1.1744,1.2167,1.2291,1.2305,1.2251,1.2127,1.1984,1.1739,1.135,1.0876,1.0425,0.9993,0.9252,0.8517,0.0,0.0,0.0,0.0,0.0,0.0,0.0,0.0,0.0,0.0,0.0,0.0,0.0,0.0,0.0,0.0,0.0,0.0,0.0,0.0,0.0,0.0,0.0,0.0,0.0,0.0,0.0,0.0,0.0,0.0,0.0,0.0,0.0,0.0,0.0,0.0,0.0,0.0,0.0,0.2011,0.14,0.1024,0.1024,0.1027,0.1023,0.1024,0.4979,0.7321,0.7982,0.5975,0.5027,0.5087,0.7092,0.7921,0.7774,0.7774,0.7666,0.7464,0.6941,0.6619,0.6425,0.6145,0.603,0.6051,0.6181,0.6232,0.6266,0.6552,0.6631,0.6556,0.6298,0.0,0.5979,0.568,0.0,0.0,0.0,0.0,0.6476,0.6949,0.0,0.8391,0.8627,0.9311,0.9837,0.9578,0.9989,1.0216,0.0,0.9406,0.9344,0.9106,0.0,0.0,0.0,0.0,1.1127,1.169,1.2211,1.2505,1.2444,1.2421,1.2394,1.2305,1.2122,1.1962,1.1904,1.1283,1.0868,1.0707,0.9967,0.9258,0.861,0.0,0.0,0.0,0.0,0.0,0.0,0.0,0.0,0.0,0.0,0.0,0.0,0.0,0.0,0.0,0.0,0.0,0.0,0.0,0.0,0.0,0.0,0.0,0.0,0.0,0.0,0.0,0.0,0.0,0.0,0.0,0.0,0.0,0.0,0.0,0.0339,0.2363,0.4912,0.7466,0.5178,0.3802,0.3801,0.3804,0.3796,0.3794,0.4062,0.5482,0.8002,0.7867,0.7802,0.7796,0.7939,0.7988,0.798,0.798,0.7905,0.7741,0.7276,0.6999,0.6861,0.6715,0.6654,0.6675,0.6803,0.6853,0.6873,0.7022,0.6988,0.6924,0.7222,0.7018,0.6753,0.7301,0.6757,0.0,0.0,0.8884,0.8552,0.9022,0.9198,0.9274,0.9406,0.9289,0.9788,1.2081,1.2178,1.127,0.0,0.9886,1.0588,1.0829,0.0,1.0982,1.1224,1.1583,1.2047,1.2646,1.2979,1.3063,1.2807,1.2766,1.265,1.2327,1.2291,1.2167,1.1926,1.185,1.1582,1.1004,1.0685,1.0102,0.9184,0.8617,0.0,0.0,0.0,0.0,0.0,0.0,0.0,0.0,0.0,0.0,0.0,0.0,0.0,0.0,0.0,0.0,0.0,0.0,0.0,0.0,0.0,0.0,0.0,0.0,0.0,0.0,0.0,0.0,0.0,0.305,0.0,0.5144,0.5124,0.5047,0.4904,0.4337,0.5175,0.7859,0.7101,0.6579,0.6578,0.6568,0.6577,0.6573,0.6576,0.705,0.7992,0.8001,0.8002,0.8002,0.8002,0.7995,0.8001,0.8001,0.7974,0.7918,0.7751,0.7553,0.7342,0.7299,0.7278,0.7285,0.7328,0.7409,0.7477,0.7436,0.745,0.747,0.7423,0.7197,0.6995,0.7211,0.7105,0.7072,0.7915,0.8054,0.8185,0.9169,0.9999,1.0806,1.1664,1.2405,1.2923,1.3036,1.3492,1.3415,1.1796,1.1775,1.1981,1.1859,1.1837,1.1864,1.1962,1.2256,1.2623,1.3006,1.3146,1.3163,1.3063,1.2904,1.2753,1.2627,1.2421,1.2265,1.2167,1.1797,1.1481,1.1268,1.0825,1.0257,0.9539,0.9125,0.8191,0.0,0.0,0.0,0.0,0.0,0.0,0.0,0.0,0.0,0.0,0.0,0.0,0.0,0.0,0.0,0.0,0.0,0.0,0.0,0.0,0.0,0.0,0.0,0.0,0.0,0.0,0.1936,0.1415,0.449,0.7006,0.7909,0.6325,0.5936,0.7605,0.6216,0.608,0.7898,0.8,0.7998,0.7998,0.8,0.7997,0.7997,0.8003,0.7996,0.7996,0.7995,0.8001,0.8001,0.8001,0.8001,0.8001,0.8001,0.8001,0.8001,0.8001,0.7898,0.7734,0.7734,0.7734,0.7734,0.7734,0.7795,0.7851,0.7768,0.7795,0.7831,0.7658,0.7477,0.7332,0.7332,0.743,0.7632,0.8085,0.8617,0.9239,1.0094,1.1238,1.2393,1.324,1.3964,1.4369,1.4016,1.4498,1.4707,1.3731,1.3453,1.3233,1.2816,1.274,1.274,1.274,1.2929,1.317,1.3467,1.3497,1.3457,1.334,1.3183,1.2998,1.2816,1.2497,1.2265,1.2167,1.1673,1.1326,1.1142,1.0792,1.0379,0.991,0.9487,0.8678,0.7476,0.0,0.0,0.0,0.0,0.0,0.0,0.0,0.0,0.0,0.0,0.0,0.0,0.0,0.0,0.0,0.0,0.0,0.0,0.0,0.0,0.0,0.0,0.0,0.5804,0.6126,0.5803,0.4306,0.4119,0.5139,0.775,0.7827,0.7783,0.7984,0.788,0.7864,0.7988,0.7995,0.8001,0.8001,0.8001,0.8001,0.8001,0.8001,0.8001,0.8001,0.8001,0.8001,0.8001,0.8001,0.8001,0.8001,0.8001,0.8001,0.8001,0.8001,0.8001,0.8001,0.8001,0.8001,0.8001,0.8001,0.8001,0.8001,0.8001,0.8001,0.8001,0.8001,0.7912,0.7821,0.7857,0.7862,0.8152,0.9484,1.0853,1.1914,1.195,1.2933,1.3908,1.3944,1.3708,1.3835,1.5138,1.5213,1.5024,1.501,1.475,1.4341,1.3757,1.364,1.3626,1.3626,1.3626,0.0,1.4065,1.4092,1.3975,1.3653,1.3613,1.339,1.286,1.2497,1.2194,1.1926,1.1583,1.1169,1.0648,1.0607,1.0497,1.0298,0.9708,0.9076,0.8415,0.0,0.0,0.0,0.0,0.0,0.0,0.0,0.0,0.0,0.0,0.0,0.0,0.0,0.0,0.0,0.0,0.0,0.0,0.0,0.0,0.0,0.4351,0.4997,0.6022,0.6959,0.7373,0.6948,0.69,0.7185,0.7929,0.7952,0.7941,0.7997,0.7961,0.7952,0.8003,0.7993,0.8001,0.8001,0.8001,0.8001,0.8001,0.8001,0.8001,0.8001,0.8001,0.8001,0.8001,0.8001,0.8001,0.8001,0.8001,0.8001,0.8001,0.8001,0.8001,0.8001,0.8001,0.8001,0.8001,0.8001,0.8001,0.8001,0.8001,0.8001,0.8001,0.8001,0.7974,0.8125,0.9094,0.94,0.9669,1.0954,1.1597,1.211,1.3102,1.362,1.4136,1.5057,1.5207,1.525,1.5617,1.5621,1.5513,1.5336,1.5229,1.503,1.468,1.4418,1.425,1.425,1.4084,0.0,1.4092,1.4092,1.4055,1.3975,1.3754,1.3463,1.3129,1.2599,1.2194,1.1926,1.1405,1.1129,1.1174,1.0806,1.0457,1.0154,0.9556,0.9064,0.0,0.0,0.0,0.0,0.0,0.0,0.0,0.0,0.0,0.0,0.0,0.0,0.0,0.0,0.0,0.0,0.0,0.0,0.0,0.0,0.0,0.0,0.5462,0.608,0.6894,0.7579,0.7996,0.7996,0.8005,0.7996,0.7996,0.7995,0.8001,0.8001,0.8001,0.8001,0.8001,0.8001,0.8001,0.8001,0.8001,0.8001,0.8001,0.8001,0.8001,0.8001,0.8001,0.8001,0.8001,0.8001,0.8001,0.0,0.8001,0.8001,0.8001,0.8001,0.8001,0.0,0.0,0.0,0.0,0.0,0.8001,0.8001,0.8001,0.8373,0.8837,0.8837,0.9201,0.9772,1.0558,1.0803,1.095,1.1695,1.2292,1.2921,1.3692,1.4304,1.4878,1.5617,1.5808,1.5808,1.5808,1.5808,1.5755,1.5593,0.0,0.0,1.5351,1.4988,1.471,1.471,1.4456,1.4269,0.0,1.4172,1.4092,1.4092,1.3935,1.3687,1.3383,1.2839,0.0,0.0,0.0,1.1142,1.107,1.1041,0.0,0.0,0.0,0.0,0.0,0.0,0.0,0.0,0.9246,0.9177,0.0,0.0,0.0,0.0,0.0,0.0,0.0,0.0,0.0,0.0,0.0,0.0,0.0,0.0,0.0,0.0,0.7414,0.7981,0.8004,0.8002,0.8002,0.8,0.8001,0.8001,0.8001,0.8001,0.8001,0.8001,0.8001,0.8007,0.8028,0.0,0.0,0.0,0.0,0.8048,0.8048,0.8048,0.8048,0.8048,0.8048,0.8048,0.8048,0.8048,0.8048,0.8048,0.8048,0.8041,0.8028,0.8028,0.8021,0.8001,0.8001,0.8001,0.8001,0.8001,0.81,0.0,0.0,0.0,0.0,1.0202,1.0987,1.1938,1.2084,1.2132,1.2159,1.2302,1.3199,1.41,1.41,1.4949,1.5808,1.5808,1.5808,1.5808,1.5808,1.5808,1.5808,1.5808,1.5808,1.5808,1.5808,1.5378,1.5051,1.5051,1.4774,0.0,1.4565,1.4322,1.4146,1.4146,0.0,0.0,1.3626,1.3139,1.2703,1.2381,1.1846,1.1329,1.0814,1.1403,1.1443,1.0795,1.1605,1.1997,1.1944,1.1984,1.2122,1.2305,1.0424,1.0118,0.0,0.0,0.0,0.0,0.0,0.0,0.0,0.0,0.0,0.0,0.0,0.0,0.0,0.0,0.0,0.7163,0.7581,0.7878,0.7989,0.8004,0.7998,0.8001,0.8001,0.8001,0.8001,0.8001,0.8001,0.8001,0.8001,0.8067,0.8234,0.8241,0.0,0.8404,0.8397,0.8397,0.8397,0.8397,0.8397,0.8397,0.0,0.0,0.8397,0.8397,0.8397,0.8397,0.8397,0.8343,0.8241,0.8241,0.8153,0.8001,0.8001,0.8001,0.8001,0.8001,0.8689,0.9608,0.9608,1.046,1.1536,1.1536,1.1707,1.2108,1.3187,1.3512,0.0,1.4758,1.5236,1.5427,1.5427,1.5617,1.5808,1.5808,1.5808,1.5808,1.5808,1.5808,1.5808,1.5808,1.5808,1.5808,1.5808,1.5526,1.5322,1.5322,1.5068,1.4905,1.4905,1.4616,1.4421,1.4421,1.4229,1.3961,1.3626,1.331,1.2996,1.2717,1.2596,1.2359,1.1993,1.2358,1.2385,1.198,1.2146,1.2249,1.2225,1.2493,1.2659,1.2699,1.2011,1.1837,0.0,0.0,0.0,0.0,0.0,0.0,0.0,0.0,0.0,0.0,0.0,0.5976,0.6377,0.0,0.7167,0.7541,0.7768,0.7925,0.7994,0.8001,0.8001,0.8001,0.8001,0.8001,0.8001,0.8093,0.8153,0.8153,0.8208,0.8296,0.8396,0.8403,0.8437,0.8492,0.8492,0.8492,0.8492,0.8492,0.8492,0.8492,0.8492,0.8492,0.8492,0.8492,0.8492,0.8492,0.8492,0.8464,0.8403,0.8403,0.8343,0.8249,0.8249,0.8148,0.8001,0.8001,0.885,1.0002,1.0002,1.127,1.2897,1.2897,1.3331,1.398,1.4651,1.4854,1.4985,1.5617,1.5808,1.5808,1.5808,1.5808,1.5808,1.5808,1.5808,1.5808,1.5808,1.5808,1.5808,1.5808,1.5808,1.5808,1.5808,1.5688,1.5606,1.5606,1.5364,1.52,1.52,1.4934,1.4747,1.4747,1.4638,1.448,1.4311,1.3908,1.3454,1.3032,1.2992,1.2858,1.2551,1.2832,1.2858,1.256,1.2679,1.2906,1.321,1.3367,1.3615,1.3906,1.3738,1.349,0.0,0.0,0.0,0.0,0.0,0.0,0.0,0.5335,0.5504,0.596,0.6301,0.6624,0.6965,0.7278,0.7554,0.7802,0.7932,0.8001,0.8001,0.8001,0.8001,0.8001,0.8028,0.806,0.806,0.8221,0.8335,0.8335,0.8444,0.8506,0.854,0.854,0.8553,0.858,0.8574,0.8574,0.8574,0.8574,0.8574,0.8574,0.8574,0.8574,0.8574,0.8574,0.8574,0.8567,0.8553,0.854,0.854,0.8506,0.8492,0.8492,0.8492,0.8336,0.8101,0.8101,0.8924,1.009,1.0349,1.1946,1.3932,1.4196,1.4961,1.5808,1.5808,1.5808,1.5808,1.5808,1.5808,1.5808,1.5808,1.5808,1.5808,1.5808,1.5808,1.5808,1.5808,1.5808,1.5808,1.5808,1.5808,1.5808,1.5808,1.5808,1.5808,1.5808,1.562,1.5484,1.5484,1.5242,1.5077,1.5077,1.5024,1.4997,1.4997,1.4544,1.4065,1.3574,1.378,1.3698,1.3246,1.3881,1.4045,1.3597,1.4011,1.449,1.4976,1.4976,1.5099,1.5353,1.5353,1.496,0.5613,0.5424,0.5358,0.533,0.5418,0.5705,0.0,0.6505,0.6461,0.6866,0.7129,0.7328,0.7489,0.7651,0.7809,0.7947,0.7994,0.8001,0.8001,0.8001,0.8001,0.8001,0.816,0.8267,0.8267,0.8403,0.8472,0.8472,0.8485,0.8553,0.8676,0.8682,0.8737,0.8852,0.8858,0.8858,0.8858,0.8858,0.8858,0.8858,0.8858,0.8858,0.8858,0.8858,0.8858,0.8852,0.873,0.8682,0.8676,0.8553,0.8492,0.8492,0.8492,0.8478,0.8444,0.8444,0.9186,1.0356,1.1547,1.2815,1.41,1.5211,1.5676,1.5808,1.5808,1.5808,1.5808,1.5808,1.5808,1.5808,1.5808,1.5808,1.5808,1.5808,1.5808,1.5808,1.5808,1.5808,1.5808,1.5808,1.5808,1.5808,1.5808,1.5808,1.5808,1.5808,1.577,1.5755,1.5755,1.5513,1.5362,1.5362,1.5146,1.4997,1.4997,1.4943,1.4863,1.481,1.5799,1.5904,1.4798,1.6832,1.7472,1.6366,1.7418,1.8028,1.8099,1.8099,1.7587,1.6606,1.6606,1.5982,0.6199,0.5938,0.5793,0.599,0.6144,0.6356,0.6803,0.687,0.6955,0.7321,0.7522,0.7672,0.7804,0.7878,0.7939,0.0,0.8001,0.8001,0.8001,0.8001,0.8001,0.8001,0.8174,0.8294,0.8294,0.8423,0.8533,0.8608,0.8683,0.8764,0.8811,0.8818,0.8845,0.8899,0.8899,0.8899,0.8899,0.8899,0.8899,0.8899,0.8899,0.8899,0.8899,0.8899,0.8899,0.8892,0.8845,0.8818,0.8811,0.8757,0.8737,0.8737,0.8737,0.8737,0.871,0.856,0.9278,1.0514,1.1935,1.3226,1.4479,1.5873,1.6315,1.6315,1.6315,1.6207,1.6086,1.6086,1.5953,1.5808,1.5808,1.5808,1.5808,1.5808,1.5808,1.5808,1.5808,1.5808,1.5808,1.5808,1.5808,1.5808,1.5808,1.5808,1.5808,1.5808,1.5808,1.5808,1.5808,1.5701,1.5621,1.5621,1.5526,1.5404,1.5253,1.5883,1.62,1.6061,1.7186,1.7618,1.7121,1.8051,1.8353,1.7856,1.8342,1.8706,1.889,1.889,1.835,1.7322,1.7322,1.6664,0.64,0.6254,0.6217,0.6535,0.6753,0.6932,0.7107,0.7218,0.7377,0.7653,0.7789,0.7885,0.798,0.8001,0.8001,0.8001,0.8047,0.806,0.8007,0.8054,0.806,0.8007,0.8127,0.8234,0.8294,0.8451,0.8608,0.875,0.8845,0.8899,0.8899,0.8899,0.8899,0.8899,0.8899,0.8899,0.8899,0.8899,0.8899,0.8899,0.8899,0.8899,0.8899,0.8899,0.8899,0.8899,0.8899,0.8899,0.8899,0.8899,0.9141,0.9472,0.9058,0.9403,1.0032,0.9439,0.9783,1.0802,1.2637,1.3841,1.4812,1.6236,1.67,1.67,1.67,1.6553,1.6405,1.6405,1.6233,1.6021,1.5967,1.594,1.5901,1.5821,1.5808,1.5808,1.5808,1.5808,1.5808,1.5808,1.5808,1.5808,1.5808,1.5808,1.5808,1.5808,1.5808,1.5808,1.5808,1.5808,1.5808,1.5808,1.6103,1.6256,1.6047,1.7139,1.7755,1.7552,1.8682,1.9195,1.8863,1.9494,1.9672,1.9347,1.9679,1.997,2.0206,2.0206,1.9687,1.8699,1.8699,1.8029,0.6066,0.6247,0.6552,0.6816,0.7136,0.745,0.7719,0.7775,0.7822,0.7953,0.7994,0.7994,0.8001,0.8001,0.8001,0.8001,0.8167,0.8227,0.8021,0.8167,0.822,0.8021,0.8007,0.8081,0.8281,0.8533,0.875,0.8878,0.8899,0.8899,0.8899,0.8899,0.8899,0.8899,0.8899,0.8899,0.8899,0.8899,0.8899,0.8899,0.8899,0.8899,0.8899,0.8899,0.8899,0.8899,0.8899,0.8899,0.8899,0.8899,0.974,1.0891,0.9458,1.0644,1.2994,1.1547,1.0961,1.1279,1.3983,1.4872,1.5002,1.6274,1.67,1.67,1.67,1.6688,1.6687,1.6687,1.6674,1.662,1.6352,1.6284,1.6205,1.5875,1.5808,1.5808,1.5808,1.5808,1.5808,1.5808,1.5808,1.5808,1.5808,1.5808,1.5808,1.5808,1.5808,1.5808,1.5808,1.5808,1.5808,1.5808,1.6915,1.7638,1.7623,1.8736,1.9434,1.9429,2.0543,2.0678,1.952,2.1717,2.241,2.1236,2.2377,2.2974,2.2983,2.2983,2.2362,2.1183,2.1183,2.0533,0.6458,0.6678,0.6976,0.7287,0.7522,0.7719,0.7891,0.7939,0.794,0.7994,0.8001,0.8001,0.8001,0.8001,0.8001,0.8001,0.8167,0.8227,0.8021,0.8255,0.8329,0.8034,0.812,0.8227,0.8294,0.8389,0.0,0.8757,0.8757,0.8804,0.8892,0.8899,0.8899,0.8899,0.8899,0.8899,0.8899,0.8899,0.8899,0.8899,0.8899,0.8899,0.8899,0.8899,0.8899,0.8899,0.8899,0.8899,0.8899,0.8899,0.9767,1.1055,1.0548,1.1565,1.3345,1.379,1.3925,1.4021,1.4938,1.5248,1.544,1.6834,1.7301,1.7301,1.7301,1.7167,1.7033,1.7033,1.6873,1.6687,1.658,1.6579,1.6486,1.6205,1.6126,1.6072,1.5848,1.5808,1.5808,1.5808,1.5808,1.5808,1.5808,1.5808,1.5808,1.5808,1.5808,1.5808,1.5808,1.5808,1.6114,1.6974,1.7439,1.8021,1.8837,1.9991,2.0691,2.0691,2.1832,2.2315,2.1898,2.2676,2.2906,2.2503,2.2884,2.3101,2.3101,2.3101,2.2481,2.1313,2.1313,2.0646,0.6862,0.7075,0.7294,0.7653,0.7816,0.7891,0.798,0.8001,0.7987,0.7933,0.8252,0.8525,0.8479,0.8464,0.8486,0.8532,0.841,0.826,0.812,0.833,0.8424,0.8208,0.8254,0.8315,0.8369,0.8369,0.0,0.8683,0.875,0.8804,0.8892,0.8899,0.8899,0.8899,0.8899,0.8899,0.8899,0.8899,0.8899,0.8899,0.8899,0.8899,0.8899,0.8899,0.9182,0.9685,0.9685,0.998,1.0474,1.0474,1.1333,1.2588,1.2082,1.3089,1.4877,1.5251,1.5729,1.6194,1.6194,1.6194,1.634,1.7292,1.7595,1.7595,1.7595,1.7474,1.734,1.734,1.7193,1.6994,1.69,1.6873,1.6806,1.6512,1.6445,1.638,1.6167,1.6115,1.6088,1.5993,1.598,1.594,1.5821,1.5808,1.5808,1.5808,1.5808,1.5808,1.5808,1.6197,1.6798,1.7603,1.8473,1.9307,2.007,2.1246,2.1943,2.1943,2.2657,2.3101,2.3101,2.3101,2.3101,2.3101,2.3101,2.3101,2.3101,2.3101,2.2709,2.1943,2.1943,2.1525,0.7258,0.7416,0.7521,0.7912,0.8001,0.8001,0.8001,0.7994,0.7971,0.7876,0.8725,0.944,0.9334,0.9303,0.9331,0.9454,0.8812,0.8308,0.8308,0.8437,0.8512,0.8499,0.8396,0.8369,0.8485,0.8499,0.0,0.8689,0.0,0.8885,0.8899,0.8899,0.8899,0.8899,0.8899,0.8899,0.8899,0.8899,0.894,0.9023,0.9023,0.9044,0.9127,0.9127,0.9891,1.1219,1.1219,1.2014,1.3305,1.3305,1.4126,1.5264,1.3925,1.5129,1.7437,1.6022,1.6406,1.7595,1.7595,1.7595,1.7595,1.7595,1.7595,1.7595,1.7595,1.7595,1.7595,1.7595,1.7595,1.7541,1.73,1.7219,1.7139,1.6794,1.6727,1.6727,1.6701,1.67,1.662,1.6377,1.6324,1.6218,1.5875,1.5821,1.5821,1.5796,1.5867,1.5903,1.5903,1.6948,1.7742,1.787,1.9934,2.1331,2.1391,2.2448,2.3101,2.3101,2.3101,2.3101,2.3101,2.3101,2.3101,2.3101,2.3101,2.3101,2.3101,2.3101,2.3101,2.3101,2.3101,2.3101,0.748,0.7687,0.7871,0.7974,0.8001,0.8001,0.8001,0.7925,0.8033,0.8643,0.8923,0.9162,0.9533,0.9348,0.9123,0.9058,0.8715,0.0,0.8451,0.8655,0.8723,0.8519,0.8567,0.8567,0.8499,0.8587,0.0,0.0,0.8737,0.8791,0.8892,0.8899,0.8899,0.8899,0.8899,0.8899,0.8899,0.8899,0.9458,1.0535,1.0535,1.1109,1.2177,1.2177,1.2371,1.2737,1.2737,1.2954,1.3305,1.3305,1.4126,1.5358,1.4997,1.5982,1.7556,1.7173,1.7279,1.7595,1.7595,1.7595,1.7595,1.7595,1.7595,1.7595,1.7595,1.7595,1.7595,1.7595,1.7595,1.7582,1.7515,1.7501,1.7421,1.7139,1.7072,1.7006,1.6754,1.67,1.6687,1.6607,1.6593,1.6512,1.6218,1.6165,1.6086,1.5835,1.661,1.7217,1.7217,1.7498,1.8388,2.0184,2.0933,2.1665,2.2558,2.2917,2.3101,2.3101,2.3101,2.3101,2.3101,2.3101,2.3101,2.3101,2.3101,2.3101,2.3101,2.3101,2.3101,2.3101,2.3101,2.3101,0.7721,0.7891,0.8001,0.8001,0.8001,0.7967,0.7851,0.811,0.8421,0.859,0.9422,1.0121,1.01,0.9865,0.9628,0.9495,0.8875,0.8437,0.8485,0.8676,0.877,0.8683,0.8689,0.8689,0.8669,0.8743,0.8825,0.0,0.8832,0.8865,0.9022,0.9035,0.9035,0.9035,0.9035,0.93,0.9864,0.9864,1.0603,1.2068,1.2068,1.2493,1.3305,1.3305,1.3642,1.422,0.0,1.4583,1.5196,1.5196,1.5649,1.6366,1.6366,1.6869,1.7595,1.7595,1.7595,1.7595,1.7595,1.7595,1.7595,1.7595,1.7595,1.7595,1.7595,1.7595,1.7595,1.7595,1.7595,1.7595,1.7595,1.7595,1.7555,1.7421,1.738,1.7314,1.7141,1.7088,1.706,1.694,1.6794,1.666,1.6499,1.6472,1.6406,1.622,1.6799,1.7593,1.8539,1.9032,1.9804,2.115,2.1758,2.2359,2.3046,2.3101,2.3101,2.3101,2.3101,2.3101,2.3101,2.3101,2.3101,2.3101,2.3101,2.3101,2.3101,2.3101,2.3101,2.3101,2.3101,2.3101,0.7933,0.8001,0.8001,0.8001,0.7987,0.7949,0.7824,0.8416,0.8869,0.846,1.0029,1.1325,1.0802,1.0603,1.0427,1.0216,0.9231,0.8508,0.8525,0.8628,0.875,0.8878,0.8825,0.8804,0.8926,0.896,0.9133,0.9511,0.9181,0.9133,0.9525,0.9341,0.9227,0.9227,0.9596,1.0224,1.1116,1.1349,1.2187,1.3643,1.3674,1.3783,1.3924,1.3924,1.4576,1.5689,0.0,0.0,1.7595,1.7595,1.7595,1.7595,1.7635,1.7662,1.7662,1.7662,1.7662,1.7649,1.7608,1.7595,1.7595,1.7595,1.7595,1.7595,1.7595,1.7595,1.7595,1.7595,1.7595,1.7595,1.7595,1.7595,1.7595,1.7595,1.7595,1.7595,1.7595,1.7595,1.7528,1.73,1.702,1.6807,1.6767,1.6767,1.6754,1.6714,1.6838,1.7681,1.9739,2.0652,2.1251,2.1586,2.2568,2.3198,2.3268,2.3229,2.319,2.319,2.3131,2.3101,2.3101,2.3101,2.3101,2.3101,2.3101,2.3101,2.3101,2.3101,2.3101,2.3101,2.3101,2.3101,0.7987,0.8001,0.8001,0.8001,0.7918,0.8006,0.8683,0.8585,0.873,1.0045,1.0348,1.0563,1.1147,1.1149,1.0843,1.0146,0.976,0.934,0.8748,0.8683,0.875,0.8878,0.9022,0.9117,0.9145,0.9246,0.0,0.0,1.009,0.991,1.1273,1.0098,0.9369,0.9369,1.1681,1.2386,1.1279,1.2584,1.3992,1.5454,1.5675,1.6268,1.7174,1.7174,1.7194,1.7213,0.0,0.0,1.7595,1.7595,1.7595,1.7622,1.7836,1.7929,1.7929,1.7929,1.7929,1.7902,1.7689,1.7595,1.7595,1.7595,1.7595,1.7595,1.7595,1.7595,1.7595,1.7595,1.7595,1.7595,1.7595,1.7595,1.7595,1.7595,1.7595,1.7595,1.7595,1.7595,1.7595,1.7541,1.7475,1.7368,1.7153,1.7113,1.702,1.674,1.7546,1.8736,2.0283,2.0286,2.0957,2.3148,2.356,2.3817,2.4137,2.3856,2.3672,2.3672,2.3307,2.3101,2.3101,2.3101,2.3101,2.3101,2.3101,2.3101,2.3101,2.3101,2.3101,2.3101,2.3101,2.3101,0.816,0.816,0.816,0.816,0.7971,0.7944,0.8504,0.876,0.9111,0.9946,1.0468,1.0824,1.0963,1.0985,1.0877,1.0479,0.9865,0.9413,0.9383,0.9579,0.9569,0.9112,0.9785,1.0035,0.9359,0.9369,0.9743,1.0595,1.0727,1.1084,1.1861,1.0383,1.0266,1.1948,1.2458,1.3096,1.39,1.4668,1.5788,1.7249,1.7374,1.7721,1.8263,1.8263,1.8183,1.8063,1.7876,0.0,1.7809,1.7809,1.7809,1.7836,1.8143,1.8263,1.8263,1.8263,1.8263,1.8236,1.8103,1.8063,1.8063,1.8063,1.7849,1.7622,1.7769,1.7716,1.7622,1.7769,1.7702,1.7595,1.7595,1.7595,1.7595,1.7595,1.7595,1.7595,1.7595,1.7595,1.7595,1.7595,1.7595,1.7568,1.7421,1.7407,1.7354,1.7181,1.7668,1.8701,2.0561,2.0617,2.1416,2.3847,2.4121,2.4188,2.4371,2.4227,2.4121,2.4121,2.37,2.3465,2.3465,2.3229,2.3101,2.3101,2.3101,2.3101,2.3101,2.3357,2.3465,2.3465,2.3688,2.3786,0.8384,0.8524,0.867,0.8371,0.803,0.7893,0.8411,0.8964,0.9455,0.9759,1.0568,1.1116,1.0752,1.0822,1.0911,1.0889,1.0237,0.9803,0.9966,1.0642,1.0627,0.9349,1.0479,1.0834,0.9575,0.9777,0.0,1.0643,0.0,0.0,1.2578,1.2012,1.2543,1.438,1.3707,1.4287,1.6325,1.6688,1.7442,1.8584,1.8665,1.8665,1.8584,1.8584,1.8544,1.8491,1.8209,0.0,0.0,1.8076,1.8062,1.8049,1.8437,1.8584,1.8584,1.8584,1.8584,1.8571,1.8531,1.8504,1.8504,1.8504,1.8183,1.7836,1.8036,1.7956,1.7836,1.8049,1.7969,1.7782,1.7702,1.7702,1.7662,1.7608,1.7595,1.7595,1.7595,1.7595,1.7595,1.7595,1.7595,1.7595,1.7595,1.7595,1.7595,1.7595,1.7595,1.8466,2.0836,2.1139,2.206,2.4434,2.4598,2.4578,2.4664,2.4598,2.4539,2.4539,2.416,2.3926,2.3926,2.3571,2.3385,2.3385,2.3385,2.3385,2.3385,2.3739,2.3926,2.3937,2.4246,2.4402,0.8645,0.9236,0.9901,0.8619,0.7955,0.7963,0.9261,0.9247,0.9317,1.0598,1.0755,1.0726,1.0932,1.1166,1.131,1.1185,1.1549,1.1399,1.0171,1.14,1.163,0.9462,1.0551,1.0974,0.9704,1.1009,1.254,1.4034,0.0,0.0,1.4435,1.6994,1.7301,1.4658,1.6966,1.7688,1.6482,1.793,1.8736,1.8877,1.9173,1.9159,1.885,1.885,1.873,1.8504,0.0,0.0,0.0,1.833,1.8276,1.8062,1.8636,1.885,1.885,1.885,1.885,1.8837,1.8584,1.8504,1.8504,1.8504,1.845,1.841,1.8437,1.8437,1.841,1.8437,1.8437,1.8343,1.8036,1.7969,1.7902,1.7662,1.7595,1.7595,1.7595,1.7595,1.7595,1.7595,1.7595,1.7595,1.7595,1.7595,1.7595,1.7595,1.7595,1.8576,2.1293,2.1631,2.2648,2.5302,2.5254,2.5188,2.555,2.5246,2.5035,2.5035,2.4609,2.4332,2.4332,2.4293,2.4274,2.4274,2.4274,2.4274,2.4274,2.4313,2.4332,2.4344,2.4371,2.4402,0.9768,0.9855,1.015,0.9576,0.9032,0.897,1.0304,1.0255,1.0089,1.0638,1.0667,1.0626,1.0747,1.0977,1.1309,0.0,0.0,0.0,1.1656,1.2604,1.248,1.0345,1.1567,1.1828,0.991,0.0,1.3272,1.5858,0.0,0.0,1.7469,1.6868,1.6812,1.7469,1.7664,1.7906,1.8237,1.887,1.92,1.9199,1.9348,1.9334,1.92,1.92,1.9146,1.9026,0.0,0.0,0.0,1.869,1.8663,1.8583,1.9025,1.92,1.92,1.92,1.92,1.9186,1.9079,1.904,1.904,1.904,1.904,1.8999,1.8811,1.8624,1.8531,1.8704,1.8624,1.8464,1.8343,1.8303,1.8263,1.817,1.8143,1.8143,1.8143,1.8143,1.8143,1.8143,1.7983,1.7836,1.7836,1.7702,1.7595,1.7595,1.7595,1.859,2.1351,2.1693,2.273,2.5406,2.5574,2.5535,2.5686,2.5542,2.5457,2.5457,2.507,2.4816,2.4816,2.4539,2.4402,2.4402,2.4402,2.4402,2.4402,2.4687,2.4816,2.4816,2.5066,2.5191,1.046,1.0226,1.0251,1.0213,0.9744,0.9638,1.0903,1.089,1.0592,1.0601,1.0594,1.0594,1.0594,1.0819,1.1258,0.0,0.0,1.1915,1.2687,1.3681,1.3563,1.1514,1.2735,1.3004,1.114,1.2574,1.4752,1.7501,0.0,0.0,0.0,1.7249,1.7059,1.9343,1.83,1.8256,1.9401,1.9401,1.9401,1.9401,1.9401,1.9401,1.9401,1.9401,1.9401,1.9388,0.0,0.0,0.0,1.8971,1.893,1.8824,1.9241,1.9401,1.9401,1.9401,1.9401,1.9401,1.9401,1.9401,1.9401,1.9401,1.9401,1.9361,1.9118,1.8932,1.8812,1.8984,1.8851,1.8624,1.8624,1.8557,1.8504,1.8504,1.8504,1.8504,1.8504,1.8504,1.8504,1.8504,1.8303,1.8156,1.8156,1.7983,1.7969,1.8298,1.8337,1.9304,2.1937,2.2303,2.3172,2.5455,2.5706,2.5706,2.5706,2.5706,2.5706,2.5706,2.5437,2.5285,2.5285,2.4969,2.4781,2.4781,2.4781,2.4781,2.4781,2.5117,2.5285,2.5285,2.5562,2.5706,1.045,1.0302,1.0373,1.0226,0.9744,0.9638,1.0903,1.089,1.0592,1.0601,1.0594,1.0594,1.0594,1.0819,1.1199,1.1819,1.2625,0.0,1.2845,1.4514,1.4973,1.2844,1.3884,1.45,1.3734,1.5648,1.7618,0.0,0.0,0.0,0.0,1.9372,1.9372,1.9401,1.9373,1.9373,1.9401,1.9401,1.9401,1.9401,1.9401,1.9401,1.9401,1.9401,1.9401,0.0,0.0,0.0,0.0,1.9147,1.9039,1.8571,1.916,1.9401,1.9401,1.9401,1.9401,1.9401,1.9401,1.9401,1.9401,1.9401,1.9401,1.9401,1.9388,1.9388,1.9388,1.9388,1.9145,1.8904,1.8904,1.869,1.8504,1.8504,1.8504,1.8504,1.8504,1.8504,1.8504,1.8504,1.8504,1.849,1.849,1.8477,1.8851,1.9915,2.0068,2.0943,2.3375,2.367,2.4196,2.5572,2.5706,2.5706,2.5706,2.5706,2.5706,2.5706,2.5706,2.5686,2.5686,2.5686,2.5686,2.5686,2.5686,2.5686,2.5686,2.5686,2.5686,2.5686,2.5706,2.5706,1.1757,1.1699,1.184,1.1569,1.1211,1.1121,1.1804,1.1702,1.1312,1.0715,1.0594,1.0594,1.0594,1.0667,1.1122,1.2324,1.2744,0.0,1.4162,1.5168,1.4973,1.2729,1.2789,1.336,0.0,0.0,1.7674,0.0,0.0,0.0,0.0,1.9401,1.9401,1.9401,1.9401,1.9401,1.9401,1.9401,1.9401,1.9401,1.9401,1.9401,1.9401,1.9401,0.0,0.0,0.0,0.0,0.0,1.9321,1.9281,1.9134,1.9321,1.9401,1.9401,1.9401,1.9401,1.9401,1.9401,1.9401,1.9401,1.9401,1.9401,1.9401,1.9401,1.9401,1.9401,1.9401,1.932,1.924,1.924,1.9173,1.912,1.912,1.912,1.912,1.912,1.912,1.912,1.912,1.8931,1.877,1.877,1.8624,1.8961,2.0318,2.0503,2.1501,2.4242,2.4597,2.5101,2.6451,2.6335,2.6042,2.5725,2.5706,2.5706,2.5706,2.5706,2.5706,2.5706,2.5706,2.5706,2.5706,2.5706,2.5706,2.5706,2.5706,2.5706,2.5706,2.5706,2.5706,1.2066,1.1823,1.1761,1.2037,1.1803,1.1649,1.2175,1.1984,1.1507,1.0747,1.0594,1.0594,1.0594,1.068,1.1087,1.2105,1.2569,1.3236,1.4477,1.5231,1.5066,1.349,1.3518,0.0,0.0,1.6827,0.0,0.0,0.0,0.0,0.0,1.9401,1.9401,1.9401,1.9401,1.9401,1.9401,1.9401,1.9401,1.9401,1.9401,1.9401,1.9401,1.9401,0.0,0.0,0.0,0.0,0.0,1.9173,1.9213,1.9226,1.9348,1.9401,1.9401,1.9401,1.9401,1.9401,1.9401,1.9401,1.9401,1.9401,1.9401,1.9401,1.9401,1.9401,1.9401,1.9401,1.9401,1.9401,1.9401,1.9401,1.9401,1.9401,1.9401,1.9401,1.9401,1.9401,1.9401,1.9401,1.924,1.9092,1.9092,1.8959,1.9473,2.1355,2.1637,2.2643,2.5404,2.5748,2.6076,2.691,2.6777,2.6523,2.6225,2.5881,2.5706,2.5706,2.5706,2.5706,2.5706,2.5706,2.5706,2.5706,2.5706,2.5706,2.5706,2.5706,2.5706,2.5706,2.5706,2.5706,0.0,1.0971,1.0601,1.1758,1.1633,1.1382,1.2063,1.1766,0.0,1.0707,1.0594,1.0607,1.064,1.0833,1.1089,1.1472,1.2256,1.3146,1.4036,1.4874,1.5257,1.4934,1.5648,0.0,1.6161,1.8126,0.0,0.0,0.0,0.0,0.0,1.9401,1.9401,1.9401,1.9401,1.9401,1.9401,1.9401,1.9401,1.9401,1.9401,1.9401,1.9401,1.9374,0.0,0.0,0.0,0.0,0.0,1.877,1.8876,1.893,1.924,1.9374,1.9401,1.9401,1.9401,1.9401,1.9401,1.9401,1.9401,1.9401,1.9401,1.9401,1.9401,1.9401,1.9401,1.9401,1.9401,1.9401,1.9401,1.9401,1.9401,1.9401,1.9401,1.9401,1.9401,1.9401,1.9401,1.9401,1.9401,1.9401,1.9401,1.9401,2.0258,2.2842,2.3231,2.4184,2.6763,2.7097,2.7097,2.7097,2.7077,2.7057,2.7057,2.6284,2.5784,2.5784,2.5764,2.5745,2.5745,2.5725,2.5706,2.5706,2.5706,2.5706,2.5706,2.5706,2.5706,2.5706,2.5706,2.5725,1.0448,0.0,1.1509,1.1555,1.1456,1.1334,0.0,1.1204,1.1004,1.0674,1.0594,1.0734,1.1142,1.0932,1.1146,1.2549,1.2959,1.3504,1.4635,1.5057,1.5382,1.575,1.6376,1.6785,1.6785,0.0,0.0,0.0,0.0,0.0,0.0,1.9401,1.9401,1.9401,1.9401,1.9401,1.9401,1.9401,1.9401,1.9401,1.9401,1.9401,1.9388,1.9132,0.0,0.0,0.0,0.0,1.849,1.8557,1.8704,1.8917,1.8984,1.9172,1.9401,1.9401,1.9401,1.9401,1.9401,1.9401,1.9401,1.9401,1.9401,1.9401,1.9401,1.9401,1.9401,1.9401,1.9401,1.9401,1.9401,1.9401,1.9401,1.9401,1.9401,1.9401,1.9401,1.9401,1.9401,1.9401,1.9401,1.9401,1.9401,1.9401,2.0357,2.3236,2.3665,2.4706,2.7617,2.7988,2.7988,2.7988,2.7728,2.7545,2.7545,2.7031,2.6693,2.6693,2.6406,2.623,2.623,2.5893,2.5706,2.5706,2.5706,2.5706,2.5706,2.5706,2.5706,2.5706,2.5706,2.5893,0.9879,1.0891,1.1864,1.1663,1.1623,1.1583,1.1453,1.1092,1.0787,1.0634,1.0594,1.0734,1.1134,1.1076,1.1427,1.2791,1.3217,1.394,1.5549,1.5577,1.5388,1.5232,1.6281,1.6712,0.0,0.0,0.0,0.0,0.0,0.0,0.0,1.9401,1.9401,1.9401,1.9401,1.9401,1.9401,1.9401,1.9401,1.9401,1.9401,1.9401,1.9388,1.9051,0.0,0.0,0.0,0.0,1.8276,1.8276,1.853,1.889,1.889,1.9105,1.9401,1.9401,1.9401,1.9401,1.9401,1.9401,1.9401,1.9401,1.9401,1.9401,1.9401,1.9401,1.9401,1.9401,1.9401,1.9401,1.9401,1.9401,1.9401,1.9401,1.9401,1.9401,1.9401,1.9401,1.9401,1.9401,1.9401,1.9401,1.9401,1.9401,2.0169,2.2448,2.2786,2.3627,2.5936,2.6839,2.702,2.6309,2.7275,2.7692,2.7022,2.7347,2.7441,2.7018,2.6797,2.668,2.668,2.6433,2.6303,2.6303,2.6303,2.6303,2.6303,2.6303,2.6303,2.6303,2.6303,2.6433,0.9707,1.0854,1.1859,1.1676,1.173,1.181,1.1716,1.1122,1.0594,1.0594,1.0626,1.0774,1.1137,1.1379,1.1868,1.2891,1.355,1.4522,1.6231,1.6038,1.5333,1.431,1.5865,0.0,0.0,0.0,0.0,0.0,0.0,0.0,0.0,1.9401,1.9401,1.9401,1.9348,1.932,1.932,1.932,1.932,1.932,1.9281,1.9267,1.9254,1.8931,1.8637,0.0,0.0,0.0,1.7942,1.7969,1.8329,1.8836,1.8876,1.9105,1.9401,1.9401,1.9401,1.9401,1.9401,1.9401,1.9401,1.9401,1.9401,1.9401,1.9401,1.9401,1.9401,1.9401,1.9401,1.9401,1.9401,1.9401,1.9401,1.9401,1.9401,1.9401,1.9401,1.9401,1.9401,1.9401,1.9401,1.9401,1.9401,1.9401,1.9895,2.1372,2.16,2.2123,2.3613,2.4944,2.5247,2.3947,2.6086,2.7195,2.6195,2.7249,2.7744,2.722,2.7136,2.7077,2.6999,2.6999,2.6999,2.6999,2.6999,2.6999,2.6999,2.6999,2.6999,2.6999,2.6999,2.7038,1.0163,1.1171,1.1654,1.0627,1.0926,1.1361,1.09,1.0701,1.0594,1.0594,1.0779,1.1177,1.1957,1.2122,1.2616,1.4004,1.4928,1.5448,0.0,0.0,1.5333,1.431,0.0,0.0,0.0,0.0,0.0,0.0,0.0,0.0,0.0,1.9401,1.9401,1.9401,1.9118,1.8971,1.8971,1.8971,1.8971,1.8971,1.8758,1.8638,1.8625,1.8289,1.8116,0.0,0.0,0.0,1.7675,1.7916,1.8223,1.8584,1.881,1.9105,1.9401,1.9401,1.9401,1.9401,1.9401,1.9401,1.9401,1.9401,1.9401,1.9401,1.9401,1.9401,1.9401,1.9401,1.9401,1.9401,1.9401,1.9401,1.9401,1.9401,1.9401,1.9401,1.9401,1.9401,1.9401,1.9401,1.9401,1.9401,1.9401,1.9401,1.9895,2.1372,2.16,2.2123,2.3613,2.4003,2.4058,2.3822,2.4211,2.4931,2.6018,2.6304,2.6923,2.8039,2.7786,2.7415,2.7018,2.6999,2.6999,2.6999,2.6999,2.6999,2.6999,2.6999,2.6999,2.6999,2.6999,2.7207,0.9659,1.0616,1.132,1.0899,1.1704,1.249,1.2091,1.1748,1.152,1.152,1.1619,1.1917,1.2643,1.3053,1.3758,1.5231,1.6206,1.6765,1.673,1.6387,1.6037,0.0,0.0,0.0,0.0,0.0,0.0,0.0,0.0,0.0,0.0,0.0,1.9321,1.9132,1.8984,1.8837,1.8691,1.8503,1.8503,1.8677,1.8557,1.8504,1.8491,1.8156,1.8009,1.7942,0.0,1.6856,1.7569,1.7069,1.7513,1.8531,1.8797,1.9105,1.9401,1.9401,1.9401,1.9401,1.9401,1.9401,1.9401,1.9401,1.9401,1.9401,1.9401,1.9401,1.9401,1.9401,1.9401,1.9401,1.9401,1.9401,1.9401,1.9401,1.9401,1.9401,1.9401,1.9401,1.9401,1.9401,1.9401,1.9401,1.9401,1.9401,1.9634,2.0314,2.0414,2.0659,2.133,2.2125,2.2603,2.2603,2.4072,2.5333,2.6036,2.683,2.7578,2.8274,2.8119,2.7923,2.7715,2.7715,2.7715,2.7715,2.7715,2.7715,2.7715,2.7715,2.7715,2.7715,2.7715,2.7826,0.959,1.0392,1.1182,1.1526,1.2464,1.3277,1.3207,1.2723,1.2345,1.2478,1.2562,1.2776,1.331,1.4079,1.5039,1.6297,1.718,1.7676,1.7652,1.6988,1.648,0.0,0.0,0.0,0.0,0.0,0.0,0.0,0.0,0.0,0.0,0.0,1.9146,1.881,1.873,1.8597,1.8384,1.8076,1.8076,1.8384,1.833,1.829,1.8277,1.8009,1.7714,1.7324,1.5986,1.6035,1.7027,1.6234,1.6938,1.8531,1.8797,1.9105,1.9401,1.9401,1.9401,1.9401,1.9401,1.9401,1.9401,1.9401,1.9401,1.9401,1.9401,1.9401,1.9401,1.9401,1.9401,1.9401,1.9401,1.9401,1.9401,1.9401,1.9401,1.9401,1.9401,1.9401,1.9401,1.9401,1.9401,1.9401,1.9401,1.9401,1.9401,1.9401,1.9401,1.9518,1.9866,2.0601,2.1344,2.2039,2.3557,2.4668,2.502,2.7047,2.8147,2.7807,2.8107,2.8314,2.8314,2.8314,2.8314,2.8314,2.8314,2.8314,2.8314,2.8314,2.8314,2.8314,2.8314,2.8314,1.0952,1.1312,1.1513,1.2082,1.2318,1.2545,1.3083,1.2723,1.2465,1.3016,1.333,1.361,1.3961,1.5186,1.6363,1.7032,1.7609,1.765,1.6741,0.0,0.0,0.0,0.0,0.0,0.0,0.0,0.0,0.0,0.0,0.0,0.0,0.0,0.0,1.8544,1.8223,1.8063,1.8036,1.7782,1.7769,1.8036,1.7782,1.7662,1.7662,1.7635,1.6882,1.558,1.545,1.5451,1.5581,1.5813,1.6938,1.8531,1.8797,1.9105,1.9401,1.9401,1.9401,1.9401,1.9401,1.9401,1.9401,1.9401,1.9401,1.9401,1.9401,1.9401,1.9401,1.9401,1.9401,1.9401,1.9401,1.9401,1.9401,1.9401,1.9401,1.9401,1.9401,1.9401,1.9401,1.9401,1.9401,1.9401,1.9401,1.9401,1.9401,1.9401,1.9401,1.9895,2.1273,2.0342,2.0615,2.3347,2.1387,2.0443,2.1813,2.5841,2.7713,2.6332,2.7551,2.8314,2.8314,2.8314,2.8314,2.8314,2.8314,2.8314,2.8314,2.8314,2.8314,2.8314,2.8314,2.8314,1.0426,1.0984,1.1544,1.2149,1.2866,1.3427,1.3437,1.3724,1.4089,1.4482,1.4645,1.4805,1.5101,1.5925,1.6686,1.7139,1.7822,1.819,1.7801,0.0,0.0,0.0,0.0,0.0,0.0,0.0,0.0,0.0,0.0,0.0,0.0,0.0,0.0,1.8196,1.8062,1.7929,1.7742,1.7649,1.7662,1.7742,1.7649,1.7595,1.7569,1.6645,1.5929,1.5344,1.4475,1.4596,1.5435,1.5761,1.6799,1.8236,1.8703,1.9105,1.9401,1.9401,1.9401,1.9401,1.9401,1.9401,1.9401,1.9401,1.9401,1.9401,1.9401,1.9401,1.9401,1.9401,1.9401,1.9401,1.9401,1.9401,1.9401,1.9401,1.9401,1.9401,1.9401,1.9401,1.9401,1.9401,1.952,1.9601,1.9428,1.9548,1.9587,1.9428,1.9401,1.9605,2.0155,1.975,2.0184,2.2224,2.2252,2.2365,2.2913,2.453,2.5247,2.4696,2.6952,2.8314,2.8314,2.8314,2.8314,2.8314,2.8314,2.8314,2.8314,2.8314,2.8314,2.8314,2.8314,2.8314,1.0247,1.0827,1.1517,1.2037,1.3076,1.3964,1.4031,1.4603,1.5227,1.5603,1.5683,1.5777,1.6021,1.6421,0.0,0.0,1.8036,1.8571,0.0,0.0,0.0,0.0,0.0,0.0,0.0,0.0,0.0,0.0,0.0,0.0,0.0,0.0,0.0,0.0,1.7876,1.7782,1.7595,1.7595,1.7595,1.7595,1.7595,1.7371,1.6856,1.541,1.4475,1.4005,1.3521,1.3857,1.4781,1.5462,1.6698,1.8209,1.8717,1.9105,1.9401,1.9401,1.9401,1.9401,1.9401,1.9401,1.9401,1.9401,1.9401,1.9401,1.9401,1.9401,1.9401,1.9401,1.9401,1.9401,1.9401,1.9401,1.9401,1.9401,1.9401,1.9401,1.9401,1.9401,1.9401,1.9401,1.9614,1.9733,1.9562,1.9746,1.9852,1.9681,1.9574,1.9682,2.0163,1.9746,1.9793,2.0802,2.2631,2.3417,2.2492,2.371,2.4128,2.3165,2.6377,2.7879,2.6925,2.7344,2.7605,2.7605,2.8067,2.8314,2.8314,2.8314,2.8314,2.8314,2.8314,2.8314,1.0747,1.099,1.1494,1.1815,1.2772,1.3863,1.4798,1.5227,1.559,1.619,1.631,1.6391,1.6647,1.6701,0.0,1.7849,1.8276,0.0,0.0,0.0,0.0,0.0,0.0,0.0,0.0,0.0,0.0,0.0,0.0,0.0,0.0,0.0,0.0,0.0,1.7595,1.7595,1.7595,1.7595,1.7595,1.7595,1.7569,1.6816,1.5371,1.3952,1.2493,1.1197,1.267,1.3305,1.3413,1.4824,1.6648,1.8531,1.8797,1.9105,1.9401,1.9401,1.9401,1.9401,1.9401,1.9401,1.9401,1.9401,1.9401,1.9401,1.9401,1.9401,1.9401,1.9401,1.9401,1.9401,1.9401,1.9401,1.9401,1.9401,1.9401,1.9401,1.9401,1.9401,1.9401,1.9401,1.9614,1.98,1.98,2.0025,2.021,2.0197,1.9972,2.032,2.1788,2.0467,1.9401,1.9401,2.2011,2.2576,1.9649,2.3473,2.4765,2.177,2.5758,2.6898,2.3919,2.5288,2.6114,2.61,2.7551,2.8314,2.8314,2.8314,2.8314,2.8314,2.8314,2.8314,1.0362,1.0982,1.1819,1.2113,1.3524,1.4992,1.5459,1.5817,1.6203,1.6805,1.6925,1.6885,1.6727,1.6886,0.0,1.7394,0.0,0.0,0.0,0.0,0.0,0.0,0.0,0.0,0.0,0.0,0.0,0.0,0.0,0.0,0.0,0.0,0.0,0.0,1.7595,1.7595,1.7595,1.7595,1.7595,1.7582,1.5543,1.541,1.6856,1.4422,1.3062,1.267,1.3102,1.3305,1.3494,1.5942,1.7553,1.8518,1.8584,1.8945,1.9401,1.9401,1.9401,1.9401,1.9401,1.9401,1.9401,1.9401,1.9401,1.9401,1.9401,1.9401,1.9401,1.9401,1.9401,1.9401,1.9401,1.9401,1.9401,1.9401,1.9401,1.9401,1.9401,1.9401,1.9401,1.9401,1.9773,2.0025,1.984,2.0214,2.0468,2.0237,1.9972,1.9882,2.0134,1.9717,1.9401,1.9401,2.0184,2.0342,1.946,2.063,2.1016,2.0112,2.1302,2.2562,2.3752,2.6282,2.7168,2.6127,2.7551,2.8314,2.8314,2.8314,2.8314,2.8314,2.8314,2.8314,1.0822,1.1605,1.2541,1.3053,1.4295,1.5576,1.6206,1.6512,1.6791,1.726,1.7273,1.7166,1.7074,1.7139,0.0,0.0,0.0,0.0,0.0,0.0,0.0,0.0,0.0,0.0,0.0,0.0,0.0,0.0,0.0,0.0,0.0,0.0,0.0,0.0,1.7595,1.7595,1.7595,1.7595,1.7595,1.7582,1.5836,1.5916,1.7463,1.3399,1.1878,1.2453,1.3048,1.3615,1.4314,1.6631,1.7554,1.7547,1.823,1.8798,1.9213,1.9348,1.9401,1.9401,1.9401,1.9401,1.9401,1.9401,1.9401,1.9401,1.9401,1.9401,1.9401,1.9401,1.9401,1.9401,1.9401,1.9401,1.9401,1.9401,1.9401,1.9401,1.9401,1.9401,1.9401,1.9401,1.984,2.0144,1.9985,2.0454,2.0748,2.0454,2.0067,1.9693,1.9428,1.9401,1.9401,1.9401,1.9401,1.9401,1.9401,1.9939,2.0025,1.9445,2.0501,2.1416,2.2041,2.4917,2.6391,2.6114,2.7551,2.8314,2.8314,2.8314,2.8314,2.8314,2.8314,2.8314,1.1721,1.2484,1.3377,1.4285,1.5006,1.5817,1.6939,1.7219,1.73,1.7555,1.7407,1.7313,1.7568,1.7407,1.7407,0.0,0.0,0.0,0.0,0.0,0.0,0.0,0.0,0.0,0.0,0.0,0.0,0.0,0.0,0.0,0.0,0.0,0.0,0.0,1.7595,0.0,1.7595,1.7595,1.7595,0.0,1.7463,1.7397,1.7213,1.1919,1.0213,1.1565,1.2913,1.422,1.5516,1.6988,1.6849,1.5889,1.7725,1.854,1.8746,1.9196,1.9374,1.9401,1.9401,1.9401,1.9401,1.9401,1.9401,1.9401,1.9401,1.9401,1.9401,1.9401,1.9401,1.9401,1.9401,1.9401,1.9401,1.9401,1.9401,1.9401,1.9401,1.9401,1.9401,1.9401,1.9813,2.0157,2.0157,2.0639,2.0935,2.0657,2.0147,1.9693,1.9428,1.9401,1.9401,1.9401,1.9401,1.9401,1.9401,2.063,2.083,1.9475,2.1927,2.2252,1.9707,2.2294,2.4405,2.5659,2.7141,2.796,2.8094,2.8094,2.8161,2.8314,2.8314,2.8314,1.1119,1.2024,1.3159,1.4231,1.5473,1.6566,1.7072,1.7367,1.7528,1.7595,1.7542,1.7528,1.7582,1.7542,0.0,0.0,0.0,0.0,0.0,0.0,0.0,0.0,0.0,0.0,0.0,0.0,0.0,0.0,0.0,0.0,0.0,0.0,0.0,1.7595,0.0,1.7595,1.7595,1.7595,1.7595,0.0,1.6433,1.5876,1.5836,1.4569,1.418,1.4489,1.481,1.5118,1.5516,1.6988,1.6248,1.444,1.7083,1.7717,1.7316,1.8544,1.9172,1.9401,1.9401,1.9401,1.9401,1.9401,1.9401,1.9401,1.9401,1.9401,1.9401,1.9401,1.9401,1.9401,1.9401,1.9401,1.9401,1.9401,1.9401,1.9401,1.9401,1.9401,1.9401,1.9401,1.9667,1.9893,1.9893,2.0172,2.0306,2.0027,1.988,1.9693,1.9428,1.9401,1.9401,1.9401,1.9401,1.9401,1.9401,1.9692,1.975,1.943,1.9996,2.0572,2.1116,2.2842,2.3417,2.2589,2.4017,2.5357,2.6581,2.6581,2.7168,2.8314,2.8314,2.8314,1.1383,1.2394,1.352,1.5001,1.6032,1.6793,1.7126,1.7407,1.7595,1.7595,1.7595,1.7595,1.7595,1.7595,0.0,0.0,0.0,0.0,0.0,0.0,0.0,0.0,0.0,0.0,0.0,0.0,0.0,0.0,0.0,0.0,0.0,1.7595,1.7595,0.0,1.7595,1.7595,1.7595,1.7595,1.7595,1.7595,1.6817,1.6459,1.6406,1.5011,1.4757,1.5398,1.5398,1.5011,1.4502,1.5942,1.5346,1.3734,1.6077,1.7129,1.7448,1.8515,1.9011,1.9172,1.9333,1.9401,1.9401,1.9401,1.9401,1.9401,1.9401,1.9401,1.9401,1.9401,1.9401,1.9401,1.9401,1.9401,1.9401,1.9401,1.9401,1.9401,1.9401,1.9401,1.9401,1.9401,1.972,1.9945,1.9826,1.992,1.9958,1.9826,1.9694,1.9562,1.9415,1.9401,1.9401,1.9401,1.9401,1.9401,1.9401,1.9401,1.9401,1.9401,1.9401,1.975,2.0501,2.1273,2.1997,2.2631,2.3403,2.4197,2.4999,2.4999,2.5402,2.6159,2.6159,2.6159,1.1659,1.2829,1.4114,1.5857,1.6472,1.6726,1.7046,1.7327,1.7528,1.7528,1.7568,1.7595,1.7595,0.0,0.0,0.0,0.0,0.0,0.0,0.0,0.0,0.0,0.0,0.0,0.0,0.0,0.0,0.0,0.0,0.0,1.7595,1.7595,1.7595,1.7595,1.7595,1.7595,1.7595,1.7595,1.7595,1.7595,1.7331,1.7358,1.7516,1.4864,1.4435,1.5783,1.5783,1.4837,1.3413,1.4824,1.4422,1.3109,1.505,1.6563,1.7736,1.8539,1.8864,1.8957,1.928,1.9401,1.9401,1.9401,1.9401,1.9401,1.9401,1.9401,1.9401,1.9401,1.9401,1.9401,1.9401,1.9401,1.9401,1.9401,1.9401,1.9401,1.9401,1.9401,1.9401,1.9401,1.976,1.9985,1.9773,1.972,1.972,1.972,1.9534,1.9401,1.9401,1.9401,1.9401,1.9401,1.9401,1.9401,1.9401,1.9401,1.9401,1.9401,1.9401,1.9401,1.9401,1.9401,2.0558,2.2999,2.3039,2.3165,2.3417,2.3417,2.3557,2.3794,2.3794,2.3794,1.0632,1.239,1.44,1.5922,1.6324,1.6431,1.67,1.702,1.7247,0.0,1.7447,1.7595,1.7595,0.0,0.0,0.0,0.0,0.0,0.0,0.0,0.0,0.0,0.0,0.0,0.0,0.0,0.0,0.0,0.0,0.0,1.7595,1.7595,1.7595,1.7595,1.7595,1.7595,1.7595,1.7595,1.7595,1.7582,1.6287,1.6366,1.7542,1.5876,1.5916,1.7305,1.7305,1.5783,1.3413,1.4824,1.3817,1.166,1.4401,1.5759,1.6378,1.7968,1.869,1.8957,1.928,1.9401,1.9401,1.9401,1.9401,1.9401,1.9401,1.9401,1.9401,1.9401,1.9401,1.9401,1.9401,1.9401,1.9401,1.9401,1.9401,1.9401,1.9401,1.9401,1.9401,1.9401,1.9455,1.9495,1.9468,1.9455,1.9455,1.9455,1.9428,1.9401,1.9401,1.9401,1.9401,1.9401,1.9401,1.9401,1.9401,1.9401,1.9401,1.9401,1.9401,1.9401,1.9401,1.9401,1.9591,1.9982,1.9982,2.063,2.1898,2.1898,2.2547,2.3794,2.3794,2.3794,1.139,1.2805,1.4167,1.5646,1.6165,1.6324,1.6445,1.6712,1.6913,1.6913,1.7167,1.7421,0.0,0.0,0.0,0.0,0.0,0.0,0.0,0.0,0.0,0.0,0.0,0.0,0.0,0.0,0.0,0.0,0.0,1.7595,1.7595,1.7448,1.738,1.738,1.7194,0.0,1.71,1.7287,1.7448,1.7595,1.6948,1.6975,1.7582,1.6935,1.6988,1.7595,1.7595,1.6406,1.4462,1.4288,1.3938,1.3561,1.4046,1.5306,1.6967,1.7872,1.841,1.8718,1.9011,1.924,1.9401,1.9401,1.9401,1.9401,1.9401,1.9401,1.9401,1.9401,1.9401,1.9401,1.9401,1.9401,1.9401,1.9401,1.9401,1.9401,1.9401,1.9401,1.9495,1.9786,1.9734,1.9734,2.007,1.9841,1.9627,1.9627,1.9495,1.9401,1.9401,1.9401,1.9401,1.9401,1.9401,1.9401,1.9401,1.9401,1.9401,1.9401,1.9401,1.9401,1.9401,1.9401,1.9401,1.9401,1.9401,1.9721,2.0371,2.0371,2.0702,2.1316,2.1316,2.1316,1.1672,1.2625,1.3423,1.4981,1.5671,1.6015,1.6138,1.6393,1.6593,0.0,1.6859,1.7127,0.0,0.0,0.0,0.0,0.0,0.0,0.0,0.0,0.0,0.0,0.0,0.0,0.0,0.0,0.0,0.0,0.0,1.7448,1.7381,1.718,1.7072,1.7072,1.6833,1.67,1.67,1.6953,1.722,1.7501,1.7501,1.7541,1.7595,1.7595,1.7595,1.7595,1.7595,1.675,1.5318,1.4274,1.4449,1.5291,1.4234,1.5383,1.7635,1.7902,1.8209,1.8531,1.881,1.9118,1.9401,1.9401,1.9401,1.9401,1.9401,1.9401,1.9401,1.9401,1.9401,1.9401,1.9401,1.9401,1.9401,1.9401,1.9401,1.9401,1.9401,1.9401,1.9534,2.0012,1.9932,1.996,2.0468,2.0201,1.9892,1.9892,1.9666,1.9535,1.9587,1.9534,1.9535,1.9601,1.9601,1.9601,1.9601,1.9534,1.9508,1.9508,1.9441,1.9401,1.9401,1.9401,1.9401,1.9401,1.9401,1.9401,1.9401,1.9401,1.9401,1.9401,1.9401,1.9401,1.0372,1.1111,1.1944,1.3734,1.4625,1.52,1.5713,1.6086,1.6324,1.6324,1.6539,0.0,0.0,0.0,0.0,0.0,0.0,0.0,0.0,0.0,0.0,0.0,0.0,0.0,0.0,0.0,0.0,0.0,0.0,1.7073,1.6754,1.6728,1.6727,1.6727,1.6714,1.67,1.67,1.6727,1.6886,1.7219,1.7219,1.7354,1.7595,1.7595,1.7595,1.7595,1.7595,1.675,1.5384,1.5318,1.5331,1.5384,1.5318,1.6234,1.7635,1.7902,1.8209,1.8531,1.881,1.9118,1.9401,1.9401,1.9401,1.9401,1.9401,1.9401,1.9401,1.9401,1.9401,1.9401,1.9401,1.9401,1.9401,1.9401,1.9401,1.9401,1.9401,1.9401,1.9481,1.976,1.9813,1.9893,2.017,2.0197,2.0184,2.0184,1.9945,1.988,2.0117,1.9932,1.988,2.013,2.0157,2.0157,2.0157,1.9933,1.9773,1.9773,1.9534,1.9401,1.9401,1.9401,1.9401,1.9401,1.9401,1.9401,1.9401,1.9401,1.9401,1.9401,1.9401,1.9401,0.9961,1.0584,1.1266,1.2864,1.3845,1.452,1.4874,1.5499,1.598,1.598,1.6231,0.0,0.0,0.0,0.0,0.0,0.0,0.0,0.0,0.0,0.0,0.0,0.0,0.0,0.0,0.0,0.0,0.0,0.0,0.0,1.6714,1.6539,1.6445,1.6445,1.6234,1.6233,1.6432,1.6445,1.6592,1.6886,1.7099,1.7259,1.7354,1.7528,1.7595,1.7595,1.7595,1.7292,1.6737,1.5796,1.5956,1.6711,1.5769,1.6287,1.7608,1.7702,1.8063,1.8504,1.8611,1.8972,1.9401,1.9401,1.9401,1.9401,1.9401,1.9401,1.9401,1.9401,1.9401,1.9401,1.9401,1.9401,1.9401,1.9401,1.9401,1.9401,1.9401,1.9548,1.9748,1.9998,2.0227,2.0454,2.0733,2.0626,2.0521,2.0521,2.0252,2.0077,2.0184,2.0117,2.009,2.0197,2.0197,2.0197,2.0197,2.0104,1.9985,1.9813,1.9706,1.9574,1.9401,1.9401,1.9401,1.9401,1.9401,1.9401,1.9401,1.9401,1.9401,1.9401,1.9401,1.9401,0.9714,1.0147,1.0672,1.2248,1.3002,1.3611,1.4578,1.5088,1.5421,1.5621,1.5913,0.0,0.0,0.0,0.0,0.0,0.0,0.0,0.0,0.0,0.0,0.0,0.0,0.0,0.0,0.0,0.0,0.0,0.0,0.0,1.6407,1.6233,1.6126,1.6126,1.5927,1.5913,1.6138,1.6126,1.6285,1.6579,1.6792,1.6992,1.7206,1.738,1.7515,1.7595,1.7595,1.7595,1.7529,1.6539,1.6711,1.7503,1.6525,1.6737,1.7595,1.7595,1.7983,1.8504,1.8504,1.8906,1.9401,1.9401,1.9401,1.9401,1.9401,1.9401,1.9401,1.9401,1.9401,1.9401,1.9401,1.9401,1.9401,1.9401,1.9401,1.9401,1.9401,1.9614,1.988,2.0144,2.0468,2.0791,2.104,2.0949,2.0831,2.0831,2.0575,2.0399,2.0477,2.0426,2.0399,2.049,2.049,2.049,2.049,2.0426,2.0239,1.9945,1.9853,1.9681,1.9401,1.9401,1.9401,1.9401,1.9401,1.9401,1.9401,1.9401,1.9401,1.9401,1.9401,1.9401,0.0,0.0,0.0,1.1854,1.2087,1.2494,1.4783,0.0,1.4607,1.5244,1.558,0.0,0.0,0.0,0.0,0.0,0.0,0.0,0.0,0.0,0.0,0.0,0.0,0.0,0.0,0.0,0.0,0.0,0.0,1.6138,1.5821,1.5808,1.5808,1.5808,1.5808,1.5808,1.5808,1.5808,1.5967,1.6296,1.6297,1.6604,1.7179,1.7179,1.7327,1.7595,1.7595,1.7582,1.7595,1.7595,1.7595,1.7595,1.7595,1.7595,1.7595,1.7595,1.7983,1.8504,1.8504,1.8906,1.9401,1.9401,1.9401,1.9401,1.9401,1.9401,1.9401,1.9401,1.9401,1.9401,1.9401,1.9401,1.9401,1.9401,1.9401,1.9401,1.9401,1.9614,1.9893,2.0144,2.0481,2.0791,2.1069,2.1093,2.1093,2.1093,2.0884,2.0804,2.1069,2.0869,2.0817,2.1066,2.1093,2.1093,2.1093,2.0871,2.0577,2.0224,1.9973,1.9708,1.9415,1.9358,1.9343,1.9343,1.9272,1.9257,1.9257,1.9344,1.9401,1.9401,1.9401,1.9401,1.0166,0.0,0.0,0.0,0.0,0.0,0.0,0.0,1.3257,1.4498,1.4645,0.0,0.0,0.0,0.0,0.0,0.0,0.0,0.0,0.0,0.0,0.0,0.0,0.0,0.0,0.0,0.0,0.0,1.594,1.59,1.5796,1.5808,1.5808,1.5808,1.5808,1.5808,1.5808,1.5808,1.5848,1.594,1.6178,1.639,1.6564,1.6753,1.702,1.7313,1.7313,1.7408,1.7595,1.7595,1.7595,1.7595,1.7595,1.7595,1.7595,1.7595,1.7983,1.8504,1.8504,1.8906,1.9401,1.9401,1.9401,1.9401,1.9401,1.9401,1.9401,1.9401,1.9401,1.9401,1.9401,1.9401,1.9401,1.9401,1.9401,1.9401,1.9401,1.976,2.0104,2.0184,2.0626,2.1015,2.1096,2.1093,2.1093,2.1093,2.1042,2.1015,2.108,2.1042,2.1015,2.108,2.1093,2.1093,2.1093,2.1042,2.0759,2.0237,2.0361,2.0122,1.9428,1.8475,1.787,1.7674,1.6518,1.5928,1.5928,1.8256,1.9401,1.9401,1.9401,1.9401,1.1268,1.1194,1.119,1.1586,0.0,0.0,1.2391,1.2366,0.0,0.0,1.4295,0.0,0.0,0.0,0.0,0.0,0.0,0.0,0.0,0.0,0.0,0.0,0.0,0.0,0.0,0.0,0.0,0.0,1.5808,1.5808,1.5808,1.5808,1.5808,1.5808,1.5808,1.5808,1.5808,1.5808,1.5808,1.5796,1.5993,1.6165,1.631,1.6459,1.6779,1.7206,1.7206,1.7354,1.7595,1.7595,1.7595,1.7595,1.7595,1.7595,1.7595,1.7595,1.7983,1.8504,1.8504,1.8906,1.9401,1.9401,1.9401,1.9401,1.9401,1.9401,1.9401,1.9401,1.9401,1.9401,1.9401,1.9401,1.9401,1.9401,1.9401,1.9401,1.9401,1.9733,2.0079,2.0184,2.0693,2.1093,2.1093,2.1093,2.1093,2.1093,2.1002,2.0975,2.1096,2.1002,2.0975,2.1096,2.1093,2.104,2.0935,2.0922,2.0681,2.0079,1.9594,1.9053,1.8413,1.6996,1.6164,1.5991,1.5074,1.4599,1.4599,1.6474,1.7733,1.8402,1.8402,1.8765,1.2781,1.2387,1.1996,1.2236,1.1472,0.0,1.2242,1.2096,1.2082,0.0,0.0,0.0,0.0,0.0,0.0,0.0,0.0,0.0,0.0,0.0,0.0,0.0,0.0,0.0,0.0,1.5808,1.5808,1.5808,1.5808,1.5808,1.5808,1.5808,1.5808,1.5808,1.5808,1.5808,1.5808,1.5808,1.5808,1.5808,1.5808,1.5953,1.6231,1.6231,1.6565,1.7139,1.7139,1.7327,1.7595,1.7595,1.7595,1.7595,1.7595,1.7595,1.7595,1.7595,1.7983,1.8504,1.8504,1.8906,1.9401,1.9401,1.9401,1.9401,1.9401,1.9401,1.9401,1.9401,1.9401,1.9401,1.9401,1.9401,1.9401,1.9401,1.9401,1.9401,1.9401,1.9614,1.988,2.0104,2.0613,2.1,2.1,2.1026,2.104,2.1,2.0831,2.0777,2.096,2.0788,2.0737,2.0973,2.1,2.0909,2.067,2.0643,2.0403,1.984,1.8491,1.758,1.7279,1.5569,1.4629,1.4599,1.4242,1.4063,1.4063,1.4421,1.5341,1.6727,1.6727,1.7499,1.483,1.4735,1.4354,1.3205,0.0,0.0,1.1086,1.0613,1.0667,0.0,1.1467,0.0,0.0,0.0,0.0,0.0,0.0,0.0,0.0,0.0,0.0,0.0,0.0,0.0,0.0,1.5808,1.5808,1.5808,1.5808,1.5808,1.5808,1.5808,1.5808,1.5808,1.5808,1.5808,1.5808,1.5808,1.5808,1.5808,1.5808,1.5835,1.59,1.59,1.6233,1.6806,1.6806,1.71,1.7595,1.7595,1.7595,1.7595,1.7595,1.7595,1.7595,1.7595,1.7983,1.8504,1.8504,1.8906,1.9401,1.9401,1.9401,1.9401,1.9401,1.9401,1.9401,1.9401,1.9401,1.9401,1.9401,1.9401,1.9401,1.9401,1.9401,1.9401,1.9401,1.9614,1.9813,1.9867,2.0145,2.037,2.037,2.0601,2.0697,2.0426,2.0561,2.063,2.0397,2.0317,2.0319,2.037,2.037,2.0344,2.029,2.0306,2.0159,1.9826,1.9713,1.943,1.8951,1.6354,1.4811,1.4609,1.2067,1.0732,1.0732,1.3332,1.4762,1.5074,1.5074,1.5237,1.5688,1.5566,1.5535,1.4632,0.0,0.0,0.0,1.0901,1.0606,1.1293,1.1092,1.1154,1.2323,0.0,0.0,0.0,0.0,0.0,0.0,0.0,0.0,0.0,0.0,0.0,0.0,1.5808,1.5808,1.5808,1.5808,1.5808,1.5808,1.5808,1.5808,1.5808,1.5808,1.5808,1.5808,1.5808,1.5808,1.5808,1.5808,1.5808,1.5808,1.5967,1.6286,1.6714,1.6873,1.7207,1.7595,1.7595,1.7595,1.7595,1.7595,1.7595,1.7595,1.7595,1.7983,1.8504,1.8504,1.8906,1.9401,1.9401,1.9401,1.9401,1.9401,1.9401,1.9401,1.9401,1.9401,1.9401,1.9401,1.9401,1.9401,1.9401,1.9401,1.9401,1.9401,1.9508,1.9601,1.9601,1.9706,1.9893,2.0157,2.0346,2.0386,2.0224,2.0241,2.0241,2.0197,2.0077,2.0037,2.0184,2.0197,2.0144,2.0012,1.9998,1.9893,1.9614,1.8968,1.8119,1.7044,1.483,1.3163,1.2217,1.0611,0.9807,0.9807,1.1427,1.2622,1.3392,1.3392,1.3825,0.0,0.0,1.665,0.0,0.0,1.356,0.0,0.0,0.0,0.0,0.0,0.0,0.0,0.0,0.0,0.0,0.0,0.0,0.0,0.0,0.0,0.0,0.0,0.0,0.0,1.5541,1.5568,1.577,1.5595,1.5568,1.5795,1.5808,1.5808,1.5808,1.5808,1.5808,1.5808,1.5808,1.5808,1.5808,1.5808,1.5808,1.5809,1.6151,1.6445,1.6727,1.7046,1.7354,1.7595,1.7595,1.7595,1.7595,1.7595,1.7595,1.7595,1.7595,1.7983,1.8504,1.8504,1.8906,1.9401,1.9401,1.9401,1.9401,1.9401,1.9401,1.9401,1.9401,1.9401,1.9401,1.9401,1.9401,1.9401,1.9401,1.9401,1.9401,1.9401,1.9401,1.9401,1.9401,1.9401,1.9548,1.9972,2.0077,2.0119,2.0037,1.992,1.9867,2.0025,1.9867,1.9813,2.0025,2.0052,1.9958,1.9733,1.972,1.9627,1.9415,1.8183,1.6885,1.5577,1.3676,1.1766,0.9837,0.9807,0.9807,0.9807,0.9807,1.0467,1.1736,1.1736,1.2427,0.0,0.0,0.0,0.0,1.6129,0.0,0.0,0.0,0.0,1.0174,0.0,0.0,0.0,0.0,0.0,0.0,0.0,0.0,0.0,0.0,0.0,0.0,0.0,0.0,0.0,0.0,0.0,1.5716,1.4859,1.4725,1.5755,1.5808,1.5808,1.5808,1.5808,1.5808,1.5808,1.5808,1.5808,1.5808,1.5808,1.5808,1.5809,1.6151,1.6445,1.6727,1.7046,1.7354,1.7595,1.7595,1.7595,1.7595,1.7595,1.7595,1.7595,1.7595,1.7983,1.8504,1.8504,1.8906,1.9401,1.9401,1.9401,1.9401,1.9401,1.9401,1.9401,1.9401,1.9401,1.9401,1.9401,1.9401,1.9401,1.9401,1.9401,1.9401,1.9401,1.9401,1.9401,1.9401,1.9401,1.9415,1.9481,1.9694,1.976,1.9535,1.9667,1.9734,1.9522,1.9468,1.9455,1.9495,1.9495,1.9481,1.9441,1.9441,1.9428,1.9401,1.9228,1.9054,1.8865,1.5943,1.2898,0.9868,0.9807,0.9807,0.9807,0.9807,0.9898,1.0073,1.0073,1.0164,0.0,0.0,0.0,0.0,0.0,0.0,1.319,0.0,1.1386,0.0,0.0,0.0,0.0,0.0,0.0,0.0,0.0,0.0,0.0,0.0,0.0,0.0,0.0,0.0,0.0,0.0,0.0,0.0,0.0,1.4533,1.5513,1.5715,1.5808,1.5808,1.5808,1.5808,1.5808,1.5808,1.5808,1.5808,1.5808,1.5808,1.5821,1.6313,1.6593,1.6727,1.722,1.7501,1.7595,1.7595,1.7595,1.7595,1.7595,1.7595,1.7595,1.7595,1.7983,1.8504,1.8504,1.8906,1.9401,1.9401,1.9401,1.9401,1.9401,1.9401,1.9401,1.9401,1.9401,1.9401,1.9401,1.9401,1.9401,1.9401,1.9401,1.9401,1.9401,1.9401,1.9401,1.9401,1.9401,1.9401,1.9401,1.9495,1.9535,1.9415,1.9495,1.9535,1.9415,1.9401,1.9401,1.9401,1.9401,1.9401,1.9401,1.9401,1.9401,1.9401,1.8519,1.7586,1.665,1.4421,1.2127,0.9852,0.9807,0.9807,0.9807,0.9807,0.9807,0.9807,0.9807,0.9807,1.9805,0.0,0.0,0.0,0.0,0.0,0.0,0.0,0.0,0.0,0.0,0.0,0.0,0.0,0.0,0.0,0.0,0.0,0.0,0.0,0.0,0.0,0.0,0.0,0.0,0.0,0.0,0.0,0.0,0.0,1.5324,1.558,1.5728,1.5808,1.5808,1.5808,1.5808,1.5808,1.5808,1.5808,1.5808,1.5808,1.5821,1.6421,1.67,1.6728,1.7341,1.7595,1.7595,1.7595,1.7595,1.7595,1.7595,1.7595,1.7595,1.7595,1.7983,1.8504,1.8504,1.8906,1.9401,1.9401,1.9401,1.9401,1.9401,1.9401,1.9401,1.9401,1.9401,1.9401,1.9401,1.9401,1.9401,1.9401,1.9401,1.9401,1.9401,1.9401,1.9401,1.9401,1.9401,1.9401,1.9401,1.9401,1.9401,1.9401,1.9401,1.9401,1.9401,1.9401,1.9401,1.9401,1.9401,1.9401,1.9401,1.9401,1.9401,1.9401,1.83,1.6944,1.5326,1.3706,1.2097,1.0498,1.0012,0.9807,0.9807,0.9807,0.9807,0.9807,0.9807,0.9807,0.0,0.0,0.0,1.8251,0.0,0.0,0.0,0.0,1.4078,0.0,0.0,0.0,0.0,0.0,1.1757,0.9989,0.0,0.0,0.0,0.0,0.0,0.0,0.0,0.0,0.0,0.0,0.0,0.0,0.0,0.0,1.5282,1.5416,1.5526,1.5783,1.5808,1.5808,1.5808,1.5808,1.5808,1.5808,1.5808,1.5808,1.5821,1.6421,1.67,1.6728,1.7341,1.7595,1.7595,1.7595,1.7595,1.7595,1.7595,1.7595,1.7595,1.7595,1.7983,1.8504,1.8504,1.8906,1.9401,1.9401,1.9401,1.9401,1.9401,1.9401,1.9401,1.9401,1.9401,1.9401,1.9401,1.9401,1.9401,1.9401,1.9401,1.9401,1.9401,1.9401,1.9401,1.9401,1.9401,1.9401,1.9401,1.9401,1.9401,1.9401,1.9401,1.9401,1.9401,1.9401,1.9401,1.9401,1.9401,1.9401,1.9401,1.9401,1.9401,1.9401,1.9344,1.8604,1.6988,1.5385,1.3765,1.2157,1.0581,0.9807,0.9807,0.9807,0.9807,0.9807,0.9807,0.9807,0.0,0.0,2.1943,1.9629,0.0,0.0,0.0,0.0,0.0,0.0,0.0,0.0,0.0,0.0,1.2381,1.1108,1.0301,0.0,0.0,0.0,0.0,0.0,0.0,0.0,0.0,0.0,0.0,0.0,0.0,0.0,0.0,1.5309,1.5513,1.5795,1.5808,1.5808,1.5808,1.5808,1.5808,1.5808,1.5808,1.5808,1.5821,1.6421,1.67,1.6728,1.7341,1.7595,1.7595,1.7595,1.7595,1.7595,1.7595,1.7595,1.7595,1.7595,1.7983,1.8558,1.896,1.9227,1.9401,1.9401,1.9401,1.9401,1.9401,1.9401,1.9401,1.9401,1.9401,1.9401,1.9401,1.9401,1.9401,1.9401,1.9401,1.9401,1.9401,1.9401,1.9401,1.9401,1.9401,1.9401,1.9401,1.9401,1.9401,1.9401,1.9401,1.9401,1.9401,1.9401,1.9401,1.9401,1.9401,1.9401,1.9401,1.9401,1.9401,1.9401,1.9401,1.8677,1.7064,1.6477,1.493,1.2247,1.1675,1.0853,0.9807,0.9807,0.9807,0.9807,0.9807,0.9807,2.258,2.2871,0.0,0.0,1.9747,0.0,1.6574,0.0,0.0,0.0,0.0,0.0,0.0,0.0,1.3619,1.2352,1.1099,0.9985,0.0,0.9058,0.0,0.0,0.0,0.0,0.0,0.0,1.0891,1.2493,0.0,0.0,0.0,0.0,1.5378,1.566,1.5755,1.5808,1.5808,1.5808,1.5808,1.5808,1.5808,1.5861,1.5993,1.6474,1.6767,1.69,1.7381,1.7595,1.7595,1.7595,1.7595,1.7595,1.7595,1.7595,1.7595,1.7595,1.7983,1.8584,1.9187,1.9401,1.9401,1.9401,1.9401,1.9401,1.9401,1.9401,1.9401,1.9401,1.9401,1.9401,1.9401,1.9401,1.9401,1.9401,1.9401,1.9401,1.9401,1.9401,1.9401,1.9401,1.9401,1.9401,1.9401,1.9401,1.9401,1.9401,1.9401,1.9401,1.9401,1.9401,1.9401,1.9401,1.9401,1.9401,1.9401,1.9401,1.9401,1.9401,1.9401,1.8925,1.7893,1.7296,1.5769,1.3108,1.2487,1.1421,0.9873,0.9819,0.9819,0.9866,0.9812,1.0103]}]]